GFSCGP_con_mucape_000.txt.gz
CAPE
0 0 0 0 0 0 0 0 0 0 0 0 0 0 0 0 0 0 0 0 0 0 0 0 0 0 0 0 0 0 0 0 0 0 0 0 0 0 0 0 0 0 0 0
0 0 0 0 0 0 0 0 0 0 0 0 0 0 0 0 0 0 0 0 0 0 0 0 0 0 0 0 0 0 0 0 0 0 0 0 0 0 0 0 0 0 0 0
0 0 0 0 0 0 0 0 0 0 0 0 0 0 0 0 0 0 0 0 0 0 0 0 0 0 0 0 0 0 0 0 0 0 0 0 0 0 0 0 0 0 0 0
0 0 0 0 0 0 0 0 0 0 0 0 0 0 0 0 0 0 0 0 0 0 0 0 0 0 0 0 0 0 0 0 0 0 0 0 0 0 0 0 0 0 0 0
0 0 0 0 0 0 0 0 0 0 0 0 0 0 0 0 0 0 0 0 0 0 0 0 0 0 0 0 0 0 0 0 0 0 0 0 0 0 0 0 0 0 0 0
0 0 0 0 0 0 0 0 0 0 0 0 0 0 0 0 0 0 0 0 0 0 0 0 0 0 0 0 0 0 0 0 0 0 1 0 0 0 0 0 2 21 25 23
0 0 0 0 0 0 0 0 0 0 0 0 0 0 0 0 0 0 1 0 0 0 0 0 0 0 0 0 0 0 0 0 5 3 0 0 0 0 0 0 0 2 41 29
0 0 0 0 0 0 0 0 0 0 0 0 0 0 0 0 0 0 0 1 0 0 0 0 0 0 0 0 1 1 0 0 2 0 0 0 0 0 0 0 0 0 11 37
0 0 0 0 0 0 0 0 0 0 0 0 0 0 0 0 0 0 0 0 0 0 0 0 0 2 0 0 2 0 0 0 0 0 0 0 0 0 0 0 0 0 0 12
0 0 0 0 0 0 0 0 0 0 0 0 0 0 0 0 1 0 0 0 0 0 0 0 0 1 1 0 0 0 0 0 0 0 0 0 0 0 0 0 0 0 2 11
0 0 0 0 0 0 0 0 0 0 0 0 0 0 0 0 0 19 6 0 0 1 0 0 0 4 0 0 0 0 0 0 0 0 0 0 0 0 0 0 0 0 2 8
0 0 0 0 0 0 0 0 0 0 0 0 0 0 0 0 0 0 0 0 0 3 2 8 0 0 0 0 0 0 0 0 0 0 0 0 0 0 0 0 0 0 0 0
0 0 0 0 0 0 0 0 0 0 0 0 0 0 0 0 0 0 0 0 6 9 9 0 0 0 0 0 0 0 0 0 0 0 0 0 0 0 0 0 0 0 0 0
0 0 0 0 0 0 0 0 0 0 0 0 0 0 0 2 1 0 2 4 7 8 1 0 0 0 0 0 0 0 0 0 0 0 0 0 0 0 0 0 0 0 0 0
0 0 0 0 0 0 0 0 0 0 0 0 0 0 0 0 0 9 21 9 11 10 5 0 0 0 0 0 0 0 0 0 0 0 0 0 0 0 0 0 0 0 0 0
0 0 0 0 0 0 0 0 0 0 0 0 0 0 0 0 4 14 11 4 0 0 0 0 0 0 0 0 0 0 0 0 0 0 0 7 9 1 0 0 0 1 0 0
0 0 0 0 0 0 0 0 0 0 0 0 0 0 0 1 0 3 0 0 0 0 0 0 0 1 0 0 0 0 0 0 0 0 3 1 1 0 1 1 0 0 0 0
0 0 0 0 0 0 0 0 0 0 0 0 0 0 0 2 0 0 3 3 0 0 0 0 48 25 12 5 0 0 0 0 0 0 0 0 0 0 0 0 0 0 0 0
0 0 0 0 0 0 0 0 0 0 0 8 0 2 5 0 0 0 0 0 0 0 0 56 37 35 5 0 0 0 0 0 0 0 0 0 0 0 0 0 0 0 0 0
0 0 0 0 0 0 0 0 0 9 0 10 13 0 11 6 0 0 0 0 2 0 15 61 45 16 0 0 0 11 0 0 0 0 0 0 0 0 0 0 0 0 0 0
0 0 0 0 0 0 0 0 3 0 0 15 1 0 12 32 32 6 1 0 4 0 0 13 0 0 0 9 13 6 0 0 0 0 0 0 0 0 0 0 0 0 0 0
0 0 0 0 0 0 0 7 5 3 10 2 0 5 21 27 9 0 6 1 3 0 0 0 0 0 0 0 4 0 0 0 0 0 0 0 0 0 0 0 0 0 0 0
0 0 0 0 0 0 0 7 0 19 5 0 11 17 14 5 12 5 0 0 0 0 0 0 0 0 0 0 0 0 0 0 1 0 0 0 0 0 0 0 0 0 0 0
0 0 0 0 0 0 1 0 0 9 18 23 25 17 6 10 0 0 1 0 0 0 0 0 1 0 0 0 0 0 11 4 0 0 0 0 0 0 0 0 0 0 0 0
0 7 0 0 0 0 0 8 26 23 32 35 10 16 0 3 0 0 0 2 0 0 0 0 0 1 0 0 0 0 2 0 0 0 0 0 0 0 0 0 0 0 0 0
0 0 0 0 0 15 5 31 33 15 13 5 6 6 0 0 1 8 5 0 0 0 4 0 0 0 0 0 0 0 0 0 0 0 0 0 0 0 0 0 0 0 0 0

GFSCGP_con_mucape_003.txt.gz
CAPE
0 0 0 0 0 0 0 0 0 0 0 0 0 0 0 0 0 0 0 0 0 0 0 0 0 0 0 0 0 0 0 0 0 0 0 0 0 0 0 0 0 0 0 0
0 0 0 0 0 0 0 0 0 0 0 0 0 0 0 0 0 0 0 0 0 0 0 0 0 0 0 0 0 0 0 0 0 0 0 0 0 0 0 0 0 0 0 0
0 0 0 0 0 0 0 0 0 0 0 0 0 0 0 0 0 0 0 0 0 0 0 0 0 0 0 0 0 0 0 0 0 0 0 0 0 0 0 0 0 0 0 0
0 0 0 0 0 0 0 0 0 0 0 0 0 0 0 0 0 0 0 0 0 0 0 0 0 0 0 0 0 0 0 0 0 0 0 0 0 0 0 0 0 0 0 0
0 0 0 0 0 0 0 0 0 0 0 0 0 0 0 0 0 0 0 0 0 0 0 0 0 0 0 0 0 0 0 0 0 0 0 0 0 0 0 0 0 0 0 0
0 0 0 0 0 0 0 0 0 0 0 0 0 0 0 0 0 0 0 0 0 0 0 0 0 0 0 0 0 0 0 0 0 0 0 0 0 0 0 0 0 0 0 0
0 0 0 0 0 0 0 0 0 0 0 0 0 0 0 0 0 0 0 0 0 0 0 0 0 0 0 0 0 0 0 0 0 1 0 0 0 0 0 0 0 0 0 0
0 0 0 0 0 0 0 0 0 0 0 0 0 0 0 0 0 3 0 0 0 0 0 0 0 0 0 0 0 0 0 0 0 0 0 0 0 0 0 0 0 0 0 0
0 0 0 0 0 0 0 0 0 0 0 0 0 0 0 0 0 0 0 0 0 0 0 0 0 0 0 0 0 0 0 0 0 0 0 0 0 0 0 0 0 0 0 0
0 0 0 0 0 0 0 0 0 0 0 0 0 0 0 0 0 0 0 0 0 0 0 0 0 0 0 0 0 0 0 0 0 0 0 0 0 0 0 0 0 0 0 0
0 0 0 0 0 0 0 0 0 0 0 0 0 0 0 0 0 0 0 0 0 0 0 1 1 0 0 0 0 0 0 0 0 0 0 0 0 0 0 0 0 0 0 0
0 0 0 0 0 0 0 0 0 0 0 0 0 0 0 0 0 0 0 0 0 0 0 1 2 0 0 0 0 0 0 0 0 0 0 0 0 0 0 0 0 0 0 0
0 0 0 0 0 0 0 0 0 0 0 0 0 0 0 0 0 0 0 0 1 1 5 10 5 5 3 0 0 0 0 0 0 0 0 0 0 0 0 0 2 0 0 0
0 0 0 0 0 0 0 0 0 0 0 0 0 0 0 0 0 0 0 0 0 2 2 6 1 4 0 0 0 0 0 0 0 0 0 0 0 0 0 0 0 0 0 0
0 0 0 0 0 0 0 0 0 0 0 0 0 0 0 0 0 0 0 0 0 2 0 0 0 0 0 0 0 0 0 0 0 0 0 0 3 0 4 0 0 0 0 0
0 0 0 0 0 0 0 0 0 0 0 0 0 0 0 0 0 0 2 2 1 0 0 0 0 0 0 0 0 0 0 0 0 0 0 0 0 3 0 0 0 0 0 0
0 0 0 0 0 0 0 0 0 0 0 0 0 0 0 0 0 0 0 0 0 0 0 0 0 1 0 0 2 0 0 0 0 0 0 0 0 0 0 0 0 0 0 0
0 0 0 0 0 0 0 0 0 0 0 0 0 0 0 0 0 0 0 0 2 0 0 0 1 1 0 26 4 0 0 1 6 0 0 0 0 0 0 0 0 0 0 0
0 0 0 0 0 0 0 0 0 0 0 0 14 0 0 0 0 0 0 2 0 0 0 0 0 0 21 0 0 0 2 1 4 0 0 0 0 0 0 0 0 0 0 0
0 15 0 0 0 0 0 0 0 0 0 4 0 0 0 0 0 0 38 16 5 17 13 0 8 0 0 0 3 6 0 0 0 0 0 0 0 0 0 0 0 0 0 0
0 0 0 0 0 0 0 0 0 0 0 3 9 0 0 15 38 48 16 15 2 1 0 0 0 0 0 0 0 0 0 0 0 0 0 0 0 0 0 0 0 0 0 0
0 0 0 0 0 0 0 0 0 0 7 0 0 1 13 24 2 30 17 3 0 0 8 1 0 0 0 0 0 0 0 0 0 4 0 0 0 0 0 0 0 0 0 0
0 0 0 0 0 0 0 0 0 7 0 0 10 32 18 13 0 0 2 2 0 5 0 0 0 0 0 0 0 0 0 0 5 0 0 0 0 0 0 0 0 0 0 0
2 0 0 0 0 0 5 13 0 7 9 20 11 0 0 0 1 9 3 0 10 0 0 0 0 0 0 5 4 0 0 4 0 0 0 0 0 0 0 0 0 0 0 0
0 0 14 0 0 0 0 1 8 1 1 0 7 17 8 3 0 0 0 3 7 0 0 0 3 0 0 0 0 0 4 1 0 0 0 0 0 0 0 0 0 0 0 0
0 4 7 0 17 20 19 22 9 4 0 0 12 0 0 0 0 0 9 11 4 8 4 2 0 0 0 0 0 3 0 0 0 0 0 0 0 0 0 0 0 0 0 0

GFSCGP_con_mucape_006.txt.gz
CAPE
0 0 0 0 0 0 0 0 0 0 0 0 0 0 0 0 0 0 0 0 0 0 0 0 0 0 0 0 0 0 0 0 0 0 0 0 0 0 0 0 0 0 0 0
0 0 0 0 0 0 0 0 0 0 0 0 0 0 0 0 0 0 0 0 0 0 0 0 0 0 0 0 0 0 0 0 0 0 0 0 0 0 0 0 0 0 0 0
0 0 0 0 0 0 0 0 0 0 0 0 0 0 0 0 0 0 0 0 0 0 0 0 0 0 0 0 0 0 0 0 0 0 0 0 0 0 0 0 0 0 0 0
0 0 0 0 0 0 0 0 0 0 0 0 0 0 0 0 0 0 0 0 0 0 0 0 0 0 0 0 0 0 0 0 0 0 0 0 0 0 2 0 0 0 0 0
0 0 0 0 0 0 0 0 0 0 0 0 0 0 0 0 0 0 0 0 0 0 0 0 0 0 0 0 0 0 0 0 0 0 0 0 1 7 0 0 0 0 0 0
0 0 0 0 0 0 0 0 0 0 0 0 0 0 0 0 0 0 0 0 0 0 0 0 0 0 0 0 0 0 0 0 0 0 1 8 1 0 0 0 0 0 0 0
0 0 0 0 0 0 0 0 0 0 0 0 0 0 0 0 0 0 0 0 0 0 0 0 0 0 0 0 0 0 0 0 4 3 1 0 0 0 0 0 0 0 0 0
0 0 0 0 0 0 0 0 0 0 0 0 0 0 0 0 0 0 0 0 0 0 0 0 0 0 0 0 0 0 1 0 0 0 0 0 0 0 0 0 0 0 0 0
0 0 0 0 0 0 0 0 0 0 0 0 0 0 0 0 0 0 0 0 0 0 0 0 2 5 1 0 0 0 0 0 0 0 0 0 0 0 0 0 0 0 0 0
0 0 0 0 0 0 0 0 0 0 0 0 0 0 0 0 0 0 0 0 0 0 0 0 0 0 0 0 1 0 0 0 0 0 0 0 0 0 0 0 0 0 0 0
0 0 0 0 0 0 0 0 0 0 0 0 0 0 0 0 0 0 0 0 0 0 0 0 0 0 0 0 1 0 0 0 0 0 0 0 0 0 0 0 0 0 0 0
0 0 0 0 0 0 0 0 0 0 0 0 0 0 0 0 0 0 0 0 0 0 0 0 0 0 0 0 0 0 0 0 0 0 0 0 0 0 0 0 0 0 0 0
0 0 0 0 0 0 0 0 0 0 0 0 0 0 0 0 0 0 0 0 0 2 3 1 6 5 4 0 0 0 0 0 0 0 0 0 0 0 0 0 0 0 0 0
0 0 0 0 0 0 0 0 0 0 0 0 0 0 0 0 0 0 0 0 0 0 0 0 0 0 0 0 0 0 1 1 0 0 0 0 0 0 0 0 0 0 0 0
0 0 0 0 0 0 0 0 0 0 0 0 0 0 0 0 0 0 0 0 0 0 0 0 0 0 0 0 5 0 0 0 0 0 0 0 0 0 0 0 0 0 0 0
0 0 0 0 0 0 0 0 0 0 0 0 0 0 0 0 0 0 0 0 0 0 0 0 0 0 0 0 1 0 0 0 0 0 0 0 0 0 0 0 0 0 0 0
0 0 0 0 0 0 0 0 0 0 0 0 0 0 0 0 0 0 0 0 0 0 0 1 0 0 0 0 0 0 0 0 0 2 2 0 0 0 0 0 0 0 0 0
0 0 0 0 0 0 0 0 0 0 0 0 0 0 0 0 0 0 0 0 0 7 0 0 0 0 0 10 0 0 0 0 0 0 0 0 0 0 0 0 0 0 0 0
0 0 0 0 0 0 0 0 0 0 0 0 0 0 0 0 0 2 0 0 1 0 5 2 1 0 1 0 0 0 4 0 0 0 0 0 0 0 0 0 0 0 0 0
0 0 0 0 0 0 0 0 0 0 0 0 0 0 0 0 0 0 8 1 0 0 2 0 0 0 0 0 0 3 0 0 0 0 0 0 0 0 0 0 0 0 0 0
0 0 0 0 0 0 0 0 0 0 0 0 1 0 0 0 3 1 0 0 0 3 6 0 2 0 0 0 0 0 0 0 0 0 0 0 0 0 0 0 0 0 0 0
0 0 0 0 0 0 0 0 0 0 0 0 4 0 0 0 0 0 0 0 0 0 0 4 1 0 0 0 5 2 7 0 0 0 0 0 0 0 0 0 0 0 0 0
0 0 0 0 0 0 0 0 0 0 0 0 3 0 0 0 0 1 0 1 0 0 0 4 0 0 0 0 0 0 0 0 0 2 0 0 0 0 0 0 0 0 0 0
0 0 0 0 0 0 7 0 1 0 18 12 3 0 0 0 0 0 0 0 0 0 1 0 4 0 0 0 0 0 0 2 1 0 0 0 0 0 0 0 0 0 0 0
0 0 0 0 0 0 0 14 0 8 4 0 0 0 0 0 0 0 0 0 0 0 0 0 2 0 0 0 0 0 0 0 0 0 0 0 0 0 0 0 0 0 0 0
0 0 0 0 18 2 0 0 17 0 0 0 1 0 0 0 0 0 0 0 0 0 0 0 0 0 0 0 0 0 0 0 0 0 0 0 0 0 0 0 0 0 0 0

GFSCGP_con_mucape_009.txt.gz
CAPE
0 0 0 0 0 0 0 0 0 0 0 0 0 0 0 0 0 0 0 0 0 0 0 0 0 0 0 0 0 0 0 0 0 0 0 0 0 0 0 0 0 0 0 0
0 0 0 0 0 0 0 0 0 0 0 0 0 0 0 0 0 0 0 0 0 0 0 0 0 0 0 0 0 0 0 0 0 0 0 0 0 0 0 0 0 0 0 0
0 0 0 0 0 0 0 0 0 0 0 0 0 0 0 0 0 0 0 0 0 0 0 0 0 0 0 0 0 0 0 0 0 0 0 0 0 2 5 3 1 0 0 0
0 0 0 0 0 0 0 0 0 0 0 0 0 0 0 0 0 0 0 0 0 0 0 0 0 0 0 0 0 0 0 0 0 0 0 0 0 0 0 0 0 0 0 0
0 0 0 0 0 0 0 0 0 0 0 0 0 0 0 0 0 0 0 0 0 0 0 0 0 0 0 0 0 0 0 0 0 0 0 1 2 3 4 0 0 0 0 0
0 0 0 0 0 0 0 0 0 0 0 0 0 0 0 0 0 0 0 0 0 0 0 0 0 0 0 0 0 0 0 0 1 0 3 8 14 1 0 0 0 0 0 0
0 0 0 0 0 0 0 0 0 0 0 0 0 0 0 0 0 0 0 0 0 0 0 0 0 0 0 0 0 0 2 3 5 13 13 4 0 0 0 0 0 0 0 0
0 0 0 0 0 0 0 0 0 0 0 0 0 0 0 0 0 0 0 0 0 0 1 1 0 0 4 9 4 0 0 0 1 0 0 0 0 0 0 0 0 0 0 0
0 0 0 0 0 0 0 0 0 0 0 0 0 0 0 0 0 0 0 0 1 6 0 0 0 0 2 0 0 0 0 0 0 0 0 0 0 0 0 0 0 0 0 0
0 0 0 0 0 0 0 0 0 0 0 0 0 0 0 0 0 0 0 0 0 0 0 0 0 1 2 5 2 0 0 0 0 0 0 0 0 0 0 0 0 0 0 0
0 0 0 0 0 0 0 0 0 0 0 0 0 0 0 0 0 0 0 0 0 0 0 0 0 0 2 1 0 0 0 0 0 0 0 0 0 0 0 0 0 0 0 0
0 0 0 0 0 0 0 0 0 0 0 0 0 0 0 0 0 0 0 0 0 0 0 0 0 0 0 0 0 0 0 0 0 0 0 0 0 0 0 0 0 0 0 0
0 0 0 0 0 0 0 0 0 0 0 0 0 0 0 0 0 0 0 0 0 0 0 0 0 0 0 0 0 0 0 0 0 0 0 0 0 0 0 0 0 0 0 0
0 0 0 0 0 0 0 0 0 0 0 0 0 0 0 0 0 0 0 0 0 0 0 0 0 0 0 0 0 0 0 0 0 0 0 0 0 0 0 0 0 0 0 0
0 0 0 0 0 0 0 0 0 0 0 0 0 0 0 0 0 0 0 0 0 0 0 0 0 0 0 0 0 0 0 0 0 0 0 3 20 0 0 0 0 0 0 0
0 0 0 0 0 0 0 0 0 0 0 0 0 0 0 0 0 0 0 0 0 0 0 0 0 0 0 0 0 0 0 0 0 0 0 0 0 0 0 0 0 0 0 0
0 0 0 0 0 0 0 0 0 0 0 0 0 0 0 0 0 0 0 0 0 0 0 0 0 0 0 0 0 0 0 0 0 0 0 0 0 0 0 0 0 0 0 0
0 0 0 0 0 0 0 0 0 0 0 0 0 0 0 0 0 0 0 0 0 0 0 0 0 0 0 0 0 0 0 0 0 0 0 0 0 0 0 0 0 0 0 0
0 0 0 0 0 0 0 0 0 0 0 0 0 0 0 0 0 0 0 0 0 0 0 0 0 0 0 0 0 0 0 0 0 0 0 0 0 0 0 0 0 0 0 0
0 0 0 0 0 0 0 0 0 0 0 0 0 0 0 0 0 0 1 0 0 0 0 0 0 0 2 0 0 0 0 0 0 1 0 0 0 0 0 0 0 0 0 0
0 0 0 0 0 0 0 0 0 0 0 0 0 0 0 0 0 1 1 0 0 0 0 0 0 1 0 0 0 0 0 0 0 0 0 0 0 0 0 0 0 0 0 0
0 0 0 0 0 0 0 0 0 0 1 0 0 0 0 2 2 3 1 0 1 0 0 0 0 0 0 0 0 0 0 0 0 0 0 0 0 0 0 0 0 0 0 0
0 0 0 0 0 0 0 0 22 8 4 0 0 2 0 0 0 0 0 0 0 0 0 0 0 0 0 0 0 0 1 0 0 0 0 0 0 0 0 0 0 0 0 0
0 0 0 0 0 0 0 6 9 0 0 0 0 2 2 0 0 0 0 0 0 0 0 0 0 0 0 0 0 0 0 0 0 0 0 0 0 0 0 0 0 0 0 0
0 0 0 0 0 0 0 3 13 0 0 0 0 0 0 0 0 0 0 0 0 0 0 0 0 0 1 10 4 4 0 0 0 0 0 0 0 0 0 0 0 0 0 0
0 0 0 0 0 0 15 5 4 9 3 0 0 0 0 0 0 0 0 0 0 0 0 0 0 1 2 5 3 0 0 0 0 0 0 0 0 0 0 0 0 0 0 0

GFSCGP_con_mucape_012.txt.gz
CAPE
0 0 0 0 0 0 0 0 0 0 0 0 0 0 0 0 0 0 0 0 0 0 0 0 0 0 0 0 17 23 2 0 0 0 0 0 0 0 0 0 0 0 0 0
0 0 0 0 0 0 0 0 0 0 0 0 0 0 0 0 0 0 0 0 0 0 0 0 0 0 0 0 0 0 0 0 0 0 0 0 0 0 0 0 0 0 0 0
0 0 0 0 0 0 0 0 0 0 0 0 0 0 0 0 0 0 0 0 0 0 0 0 0 0 0 0 0 0 0 0 0 0 0 0 0 1 4 6 7 4 0 0
0 0 0 0 0 0 0 0 0 0 0 0 0 0 0 0 0 0 0 0 0 0 0 0 0 0 0 0 0 0 0 0 0 0 0 0 0 5 4 3 3 4 1 0
0 0 0 0 0 0 0 0 0 0 0 0 0 0 0 0 0 0 0 0 0 0 0 0 0 0 0 0 0 0 0 0 0 0 0 0 2 6 9 6 0 0 0 0
0 0 0 0 0 0 0 0 0 0 0 0 0 0 1 0 0 0 0 0 0 0 0 0 0 0 0 0 0 0 0 0 0 0 0 8 7 0 0 0 0 0 0 0
0 0 0 0 0 0 0 0 0 1 1 0 0 0 0 0 0 0 0 0 0 0 0 0 0 0 0 0 0 1 4 3 0 0 1 0 0 0 0 0 0 0 0 0
0 0 0 0 0 0 0 0 0 0 0 0 0 0 0 0 0 0 0 0 0 0 0 4 0 0 0 0 0 0 4 0 0 0 0 0 0 0 0 0 0 0 0 0
0 0 0 0 0 0 0 0 0 0 0 0 0 0 0 0 0 0 0 0 1 4 1 0 0 0 0 1 10 5 0 0 0 0 0 0 0 0 0 0 0 0 0 0
0 0 0 0 0 0 0 0 0 0 0 0 0 0 0 0 0 0 0 0 0 0 0 0 0 0 5 3 0 0 0 0 2 0 0 0 0 0 0 0 0 0 5 19
0 0 0 0 0 0 0 0 0 0 0 0 0 0 0 0 0 0 0 0 0 0 0 0 0 0 0 0 2 6 5 1 0 0 0 0 0 0 0 0 0 7 16 5
0 0 0 0 0 0 0 0 0 0 0 0 0 0 0 0 0 0 0 0 0 2 11 4 0 0 3 0 0 0 0 0 0 0 0 0 0 0 0 17 16 25 30 35
0 0 0 0 0 0 0 0 0 0 0 0 0 0 0 0 0 2 0 0 0 3 2 1 4 0 0 0 0 0 0 0 0 0 0 1 13 20 19 32 27 39 41 43
0 0 0 0 0 0 0 0 0 0 0 0 0 0 0 2 0 2 2 1 6 8 11 16 3 3 0 0 0 0 0 0 0 0 3 20 23 25 47 39 42 45 42 41
0 0 0 0 0 0 0 0 0 0 0 0 0 0 0 3 0 0 0 12 15 8 0 0 0 0 0 0 0 0 0 0 1 12 21 19 11 18 18 0 0 27 31 10
0 0 0 0 0 0 0 0 0 0 0 0 0 0 0 0 0 3 10 0 0 0 0 0 0 0 0 0 0 0 0 0 7 10 16 10 13 0 0 0 0 0 1 0
0 0 0 0 0 0 0 0 0 0 0 0 0 0 0 0 0 0 0 0 0 0 0 0 0 0 0 3 0 0 0 1 7 16 11 15 0 0 0 0 0 0 0 0
0 0 0 0 0 0 0 0 0 0 0 0 0 0 0 7 15 37 0 0 0 0 0 0 0 0 3 6 0 0 0 1 10 18 20 5 0 0 0 0 0 0 0 0
0 0 0 0 0 0 0 0 0 0 0 0 0 7 23 21 15 0 0 0 0 0 0 0 0 0 9 5 1 2 8 17 33 24 9 0 0 0 0 0 1 2 0 2
0 0 0 0 0 0 0 0 0 0 0 0 1 0 0 0 0 0 0 1 0 0 0 0 0 0 42 41 17 26 33 20 5 10 9 0 0 0 0 0 1 2 4 8
0 0 0 0 0 0 0 0 0 0 0 33 0 0 1 0 0 0 0 0 0 0 0 0 0 1 19 35 34 41 39 15 6 12 0 0 0 0 0 0 3 10 10 0
0 0 0 0 0 0 0 0 0 0 7 0 0 3 0 0 0 0 0 0 0 0 0 0 0 0 0 10 32 42 25 19 19 30 31 0 0 0 0 3 12 22 0 0
0 0 0 0 0 18 33 44 12 0 0 8 7 6 1 0 0 0 0 0 0 0 0 0 0 0 0 5 48 80 33 27 4 0 0 0 0 0 1 15 22 0 0 0
0 0 0 0 0 3 37 40 16 7 5 0 0 0 0 0 0 0 0 0 0 0 0 0 0 0 0 4 22 18 15 3 4 0 0 10 9 3 6 17 0 0 0 0
1 0 0 0 2 21 22 13 14 0 5 2 2 0 0 0 0 0 0 0 0 0 0 0 0 2 1 5 9 16 0 0 0 0 0 2 2 10 12 0 0 0 0 0
11 0 0 0 25 28 12 1 0 0 0 0 0 0 0 0 0 0 0 0 0 0 0 0 2 4 5 9 17 0 0 0 0 0 1 5 6 17 0 0 0 0 0 0

GFSCGP_con_mucape_015.txt.gz
CAPE
0 1 4 0 0 0 0 0 0 0 0 0 0 0 0 0 0 0 0 0 0 0 0 0 0 0 0 82 286 460 212 102 27 0 0 0 0 1 1 10 4 3 0 0
0 0 0 0 0 0 0 0 0 0 0 0 0 0 0 0 0 0 0 0 0 0 0 0 0 0 0 0 0 0 0 0 0 0 0 0 0 1 3 16 0 0 0 0
0 0 0 0 0 0 0 0 0 0 0 0 0 0 0 0 0 0 0 0 0 0 0 0 0 0 0 0 0 0 0 0 0 0 0 0 0 0 0 0 0 0 0 0
0 0 0 0 0 0 0 0 0 0 0 8 0 106 0 0 0 0 0 0 0 0 0 0 0 0 0 0 0 0 0 0 0 0 0 0 0 0 0 1 4 0 0 0
0 0 0 0 0 0 0 0 0 0 0 0 0 0 3 0 0 0 0 0 0 0 0 0 0 0 0 0 0 0 0 0 0 0 0 0 1 0 0 0 0 0 0 0
0 0 0 0 0 0 0 0 0 0 27 27 29 12 150 11 0 0 0 0 0 0 0 0 0 0 0 0 0 0 0 0 1 5 5 0 0 0 0 0 0 0 0 0
0 0 0 0 0 0 0 1 163 186 148 207 0 0 74 0 0 0 0 0 0 0 0 0 0 0 0 0 0 0 0 2 3 0 0 1 1 0 0 0 0 0 0 0
0 17 0 0 0 0 0 1 113 1 48 49 0 0 29 0 0 0 0 0 0 0 0 0 0 0 1 2 1 0 0 0 1 7 8 5 2 0 0 0 0 0 0 0
0 0 0 0 0 0 3 0 0 0 0 2 0 5 0 0 0 0 0 0 0 0 0 0 2 12 4 2 3 0 0 0 0 1 8 9 5 0 0 0 0 0 0 1
0 7 0 0 0 0 0 0 21 1 0 0 10 0 80 18 16 2 12 12 10 5 10 15 17 19 11 1 0 1 1 0 0 6 20 15 15 0 0 0 3 7 15 24
0 0 0 0 0 0 2 4 0 0 0 0 0 0 2 9 3 0 0 1 8 21 25 29 28 20 18 27 21 0 0 0 12 9 3 8 7 2 5 12 24 31 29 29
0 0 0 0 0 0 0 0 0 0 0 0 0 0 0 0 1 0 0 22 4 17 33 20 19 12 18 15 3 0 0 0 0 7 3 2 6 13 30 24 22 23 32 39
0 0 0 0 0 0 0 0 0 0 0 0 13 0 14 5 16 19 23 34 10 22 11 5 14 16 6 0 0 0 0 4 9 1 0 2 15 23 12 24 23 29 40 40
0 0 0 0 0 0 0 0 0 0 0 0 0 0 33 26 25 14 8 24 16 6 10 7 1 0 0 0 0 0 15 11 3 2 5 14 25 23 24 33 35 24 24 9
0 0 0 0 0 0 0 0 0 0 0 0 0 0 34 22 1 0 19 19 16 16 13 0 0 0 0 0 0 6 6 4 3 4 11 22 27 21 16 26 21 4 0 2
0 0 0 0 0 0 0 0 0 0 0 0 0 0 36 3 17 23 10 13 7 0 0 0 0 0 0 0 5 26 11 8 5 12 23 34 28 7 31 22 15 0 5 4
0 0 0 0 0 0 0 0 0 0 13 7 0 23 25 27 20 1 3 20 0 0 0 0 0 0 0 7 16 44 27 35 30 34 35 32 29 32 21 10 9 10 12 18
0 0 1 0 0 0 2 0 0 0 0 13 25 28 31 8 6 5 9 2 0 0 0 0 0 0 0 0 15 62 54 43 49 44 45 29 32 39 0 16 9 14 28 33
0 4 0 0 0 0 0 0 0 0 0 4 14 18 23 22 3 7 1 0 0 0 1 4 1 0 0 8 28 50 42 48 59 48 21 32 42 26 0 0 13 31 33 35
0 3 18 0 0 0 0 13 0 0 0 4 16 5 0 0 0 0 0 0 0 0 0 1 5 8 17 10 14 19 27 45 71 60 27 10 15 4 0 0 26 33 38 27
0 0 40 0 0 0 0 0 0 0 0 33 15 7 0 0 0 0 0 0 5 5 3 14 17 15 9 5 8 19 26 67 54 36 37 52 40 7 3 11 35 39 35 42
0 0 0 0 0 0 0 0 0 32 62 39 0 0 0 0 0 0 0 0 1 5 5 7 6 3 2 5 8 11 33 56 110 110 56 6 12 3 0 30 37 29 27 20
0 0 9 0 0 22 27 50 38 41 51 1 0 1 0 0 0 0 0 0 2 2 0 0 1 5 6 11 17 25 40 52 50 74 36 56 1 4 33 30 35 25 19 0
0 1 11 9 0 2 15 39 22 16 0 0 0 0 0 0 0 0 0 0 0 0 0 0 5 11 19 25 29 39 11 13 10 0 0 0 0 15 16 29 19 0 0 0
0 5 21 62 29 18 32 11 2 1 0 0 0 0 0 0 0 0 0 0 0 0 1 6 16 27 35 41 33 16 8 0 0 0 0 1 19 27 20 16 7 0 0 0
0 1 99 65 41 6 29 28 0 0 1 0 0 0 0 2 0 0 0 0 1 2 5 20 26 39 37 23 6 0 0 0 0 0 2 17 14 19 0 0 0 0 0 0

GFSCGP_con_mucape_018.txt.gz
CAPE
0 0 4 0 0 0 0 0 0 1 0 0 0 0 0 0 0 0 0 0 0 17 8 65 71 66 123 390 242 534 557 294 58 31 9 0 0 0 8 5 38 0 0 0
0 0 0 0 0 0 0 0 0 0 0 0 0 0 0 0 0 0 0 0 0 0 0 2 25 26 0 14 28 83 47 0 0 0 0 0 0 7 2 9 1 3 0 0
0 0 0 0 0 0 0 0 1 0 0 0 0 0 0 0 0 0 0 0 0 0 0 0 0 0 0 0 0 0 0 0 0 0 0 0 0 0 0 0 1 0 0 0
0 0 0 0 0 0 0 0 0 0 0 1 1 2 0 0 4 0 0 0 0 0 0 0 0 0 0 0 0 0 0 0 0 0 0 0 4 10 12 1 0 0 0 0
0 0 0 0 0 0 0 0 0 0 0 0 0 35 58 5 0 0 0 0 0 0 0 0 0 0 0 0 0 0 0 0 0 0 0 0 2 0 0 0 0 0 0 0
0 0 0 0 0 0 0 2 0 0 10 310 19 77 52 6 0 0 0 0 0 0 0 0 0 0 0 0 0 0 0 0 0 1 0 0 1 0 0 0 0 0 0 0
0 0 0 0 0 3 0 13 426 433 571 510 63 6 96 15 27 11 0 0 0 0 0 1 1 0 3 3 1 0 0 0 0 11 8 12 0 0 0 0 0 0 0 0
2 4 0 0 0 0 0 0 451 62 149 80 0 5 0 4 10 1 0 0 0 0 0 0 0 0 3 12 10 18 1 0 0 0 0 0 0 0 0 0 0 0 0 0
7 1 0 0 0 0 4 3 0 12 2 21 3 101 15 2 2 0 0 0 2 5 16 32 21 22 14 0 3 7 0 0 0 0 0 0 0 0 0 0 0 0 2 0
0 20 0 0 0 0 0 0 9 205 38 0 0 5 47 22 11 1 0 2 0 1 24 14 9 10 6 1 15 20 4 4 1 0 0 0 0 0 0 0 2 0 0 0
0 0 0 0 0 0 0 4 0 0 11 9 0 0 0 0 15 5 7 0 11 12 0 0 0 0 0 0 6 6 12 4 0 0 0 0 0 0 5 5 0 0 0 0
0 1 0 0 0 0 0 0 0 32 0 83 25 0 0 0 0 2 0 1 6 5 0 0 0 0 6 11 10 0 0 0 0 0 0 0 0 4 11 1 0 0 3 5
0 14 1 0 0 0 0 0 0 0 3 0 0 0 14 7 2 2 0 5 1 0 0 0 0 0 0 0 0 0 0 0 0 0 0 0 6 11 0 0 0 4 5 15
0 0 0 0 0 0 0 0 0 0 37 0 2 0 7 20 3 0 1 0 0 0 0 0 0 0 0 0 0 0 0 12 1 0 0 0 3 0 0 0 0 13 14 5
0 0 0 0 0 0 0 0 0 0 0 0 0 0 17 11 3 1 0 0 0 0 0 0 0 0 0 0 0 0 5 20 3 1 0 7 20 12 0 0 0 2 12 5
0 0 0 0 0 0 0 0 0 0 0 0 4 0 20 6 0 0 0 0 0 0 0 0 0 0 0 0 4 4 19 53 14 5 2 8 8 3 0 0 0 7 0 0
0 21 0 0 0 0 7 0 0 0 0 0 0 22 14 0 0 0 0 0 0 0 0 0 0 2 4 0 1 0 18 52 30 37 43 19 6 22 0 0 0 0 0 0
0 0 0 0 0 0 0 0 0 0 0 0 5 21 1 0 0 0 0 2 1 0 0 0 6 3 2 0 2 3 0 0 8 51 71 27 23 7 0 0 0 0 0 2
0 0 0 0 0 0 0 0 0 0 0 0 6 0 0 0 0 0 3 0 0 0 0 7 0 0 0 2 0 0 0 1 14 44 15 7 8 0 4 2 0 0 0 4
0 3 0 0 0 0 0 4 0 0 0 15 2 2 0 0 0 0 0 0 0 0 0 0 1 1 0 0 0 0 0 0 9 87 43 40 74 47 5 10 0 0 0 9
0 0 0 0 0 0 0 0 0 0 10 12 0 0 0 0 0 0 0 0 0 0 0 2 1 0 0 0 0 0 0 2 12 21 43 42 53 5 5 0 0 0 3 6
0 0 0 0 0 0 0 0 0 21 13 31 0 0 0 0 0 0 0 0 0 0 0 0 0 0 0 0 0 1 0 0 0 0 0 17 49 38 11 0 2 5 0 0
0 0 5 0 0 1 25 9 14 12 12 13 12 3 0 0 0 0 0 0 0 0 0 0 0 0 0 3 6 3 0 0 0 0 0 1 0 8 2 5 1 0 0 0
0 0 70 13 0 0 11 12 3 0 0 0 0 0 0 0 0 0 0 0 0 0 0 0 0 0 11 15 8 0 0 0 0 0 0 0 0 0 3 0 0 0 0 0
0 0 0 0 1 28 23 4 1 4 4 8 0 0 0 0 0 0 0 0 0 0 0 0 6 5 0 6 1 0 0 0 0 0 0 0 0 0 0 0 0 0 0 0
0 0 0 3 29 25 26 9 10 2 10 0 0 0 0 0 0 0 0 0 0 0 0 1 2 1 2 0 0 5 0 0 0 0 0 0 0 0 0 0 0 0 0 0

GFSCGP_con_mucape_021.txt.gz
CAPE
0 0 0 0 0 0 0 0 0 0 0 0 0 0 0 0 0 0 0 0 0 0 8 43 98 115 104 217 337 572 574 341 154 91 39 21 5 0 0 0 0 0 0 0
0 0 0 0 0 0 0 0 0 0 0 0 0 0 0 0 0 0 0 0 0 0 48 154 181 140 69 71 233 346 258 106 2 0 0 0 0 0 0 0 0 0 0 0
0 0 0 0 0 0 0 0 0 0 0 0 0 0 0 0 0 0 0 0 0 0 0 52 71 76 59 20 0 0 0 0 0 0 0 0 0 0 0 0 2 1 0 0
0 0 0 0 0 0 1 0 0 0 0 0 0 0 0 0 0 0 0 0 0 0 0 0 0 2 0 0 0 0 0 0 0 0 0 0 0 0 0 7 1 0 0 0
0 0 0 0 0 0 0 0 0 0 0 0 0 0 14 0 0 0 0 0 0 0 0 0 0 0 0 0 0 0 0 0 0 0 0 0 0 0 0 0 0 0 0 0
0 0 0 0 0 0 0 0 0 0 0 2 39 6 0 4 2 0 0 0 0 0 0 0 0 0 0 0 0 0 0 0 0 0 0 0 0 0 0 0 0 0 0 0
0 0 0 0 0 0 0 0 38 21 53 34 51 33 18 6 0 0 4 3 0 0 0 0 0 0 0 0 0 0 0 0 0 0 0 0 0 0 0 0 0 0 0 0
0 0 0 0 0 0 0 0 0 0 0 3 2 16 13 40 30 16 8 1 0 0 0 0 0 0 0 0 0 0 0 0 0 0 0 0 0 0 0 0 0 0 0 0
0 0 0 0 0 0 0 0 0 0 0 0 2 7 20 21 25 22 0 0 0 1 4 0 0 0 0 0 0 0 0 0 3 1 0 0 0 0 0 0 0 0 0 0
0 0 0 0 0 0 0 0 0 0 0 0 0 12 4 0 1 2 3 0 2 2 1 0 2 2 0 0 1 0 0 1 3 0 0 0 0 0 0 0 0 0 0 2
0 0 0 0 0 0 0 0 0 0 0 0 0 0 0 30 47 10 2 2 0 0 0 0 0 0 0 0 0 0 0 0 0 0 0 0 0 0 0 0 0 0 0 0
0 0 0 0 0 0 0 0 0 0 0 0 0 0 0 0 0 2 2 0 0 0 0 0 0 0 0 0 0 0 0 0 0 0 0 0 0 0 0 0 0 0 0 0
0 0 0 0 0 0 0 0 0 0 0 0 0 0 0 15 0 0 0 0 0 1 0 0 0 0 0 0 0 0 0 0 0 0 1 7 0 0 0 0 0 0 0 0
0 0 0 0 0 0 0 0 0 0 0 0 0 0 0 1 0 0 0 0 0 0 0 0 0 0 0 0 0 0 0 0 0 2 6 17 5 1 3 8 2 8 5 0
0 0 0 0 0 0 0 0 0 0 0 0 0 0 0 0 0 0 0 0 0 0 0 0 0 0 0 0 0 0 0 0 0 4 17 25 19 12 6 6 15 9 5 0
0 0 0 0 0 0 0 0 0 0 0 0 0 0 0 0 0 0 0 2 3 4 0 0 0 0 0 0 0 0 0 0 0 0 1 9 29 17 11 2 0 0 0 0
0 0 0 0 0 0 0 0 0 0 0 0 0 0 0 0 0 0 3 2 0 0 0 0 0 0 0 0 0 0 0 0 0 3 4 0 0 17 21 21 24 9 0 0
0 0 0 0 0 0 0 0 0 0 0 0 0 0 0 0 0 2 0 0 0 0 0 0 0 4 0 0 0 0 0 0 1 1 0 0 12 35 34 25 7 13 1 5
0 0 0 0 0 0 0 0 0 0 0 0 0 0 0 4 15 0 0 0 0 0 0 0 0 0 0 0 0 0 0 0 0 0 1 8 18 3 0 6 6 0 0 0
0 0 0 0 0 0 0 0 0 0 0 0 0 0 0 0 0 0 0 0 0 0 0 0 0 0 0 0 0 0 0 0 0 0 2 1 0 4 6 1 0 0 0 0
0 0 0 0 0 0 0 0 0 0 0 0 0 0 0 0 0 0 0 0 0 0 0 0 0 0 0 0 0 0 0 0 0 7 0 0 0 0 18 6 0 0 0 0
0 0 0 0 0 0 0 0 0 0 0 0 0 0 0 4 1 0 0 0 0 0 0 0 0 0 0 0 0 0 0 0 0 1 0 0 0 0 0 0 0 0 0 0
0 0 0 0 0 0 0 0 0 0 0 0 0 0 0 0 0 0 0 0 0 0 0 0 0 0 0 0 0 0 0 0 0 0 0 0 0 0 0 0 0 0 0 0
0 0 0 0 0 0 0 0 0 0 3 3 3 7 0 0 0 0 0 0 0 0 0 0 0 0 0 0 0 0 0 0 0 0 0 0 0 0 0 0 0 0 0 0
0 0 0 0 0 0 0 1 2 8 10 11 13 1 0 0 0 0 0 0 0 0 0 0 0 0 0 0 0 0 0 0 0 0 0 0 0 0 0 0 0 0 0 0
0 0 0 0 0 0 0 0 12 25 12 2 0 0 0 0 0 0 0 0 0 0 0 0 0 0 0 0 0 0 0 0 0 0 0 0 0 0 0 0 0 0 0 0

GFSCGP_con_mucape_024.txt.gz
CAPE
0 0 0 0 0 0 0 0 0 0 0 0 0 0 0 0 0 0 0 0 0 0 7 134 77 227 491 611 541 296 194 77 67 69 72 47 32 5 0 0 0 5 18 23
0 0 0 0 0 0 0 0 0 0 0 0 0 0 0 0 0 0 0 0 0 2 45 108 113 58 66 125 84 83 57 38 5 0 0 0 0 0 0 0 0 1 7 9
0 0 0 0 0 0 0 0 0 0 0 0 0 0 0 0 0 0 0 0 2 8 48 97 106 70 53 30 27 11 0 0 0 0 0 0 0 0 0 0 0 0 0 0
0 0 0 0 0 0 0 0 0 0 0 0 0 0 0 0 0 0 0 0 0 44 114 85 66 44 24 2 0 0 0 0 0 0 0 0 0 0 0 0 0 0 0 0
0 0 0 0 0 0 0 0 0 0 0 0 0 0 0 0 0 0 0 0 0 0 3 0 1 0 0 0 0 0 0 0 0 0 0 0 0 0 0 0 0 1 0 0
0 0 0 0 0 0 0 0 0 0 0 0 7 0 0 0 0 0 0 0 0 0 0 0 0 0 0 0 0 0 0 0 0 0 0 0 0 0 0 0 0 0 0 0
0 0 0 0 0 0 0 0 0 0 26 5 0 3 2 2 0 0 0 0 0 0 0 0 0 0 0 0 0 0 0 0 0 0 0 0 0 0 0 1 0 0 0 0
0 0 0 0 0 0 0 0 0 0 0 4 0 0 0 0 1 0 0 0 0 0 0 0 0 0 0 0 0 0 0 1 0 0 0 0 0 0 0 0 0 0 0 0
0 0 0 0 0 0 0 0 0 0 0 0 0 0 1 3 14 25 19 0 0 0 0 0 0 0 0 0 1 3 7 5 0 0 0 0 0 0 0 0 0 0 0 0
0 0 0 0 0 0 0 0 0 0 0 0 0 0 0 0 12 0 0 0 0 0 1 0 0 0 0 8 1 0 0 0 0 0 0 0 0 0 0 0 0 0 0 0
0 0 0 0 0 0 0 0 0 0 0 0 0 0 0 0 2 4 0 0 1 1 0 0 0 7 8 15 2 0 0 0 0 0 0 0 0 0 0 0 0 0 0 0
0 0 0 0 0 0 0 0 0 0 0 0 0 0 0 1 24 17 3 0 1 3 4 11 7 3 0 0 0 0 0 0 0 0 0 0 0 0 0 0 0 0 0 6
0 0 0 0 0 0 0 0 0 0 0 0 0 0 0 0 0 1 0 0 0 0 11 13 0 0 0 0 0 0 0 0 0 0 0 0 0 0 11 14 5 13 13 8
0 0 0 0 0 0 0 0 0 0 0 0 0 0 0 0 0 0 0 0 0 0 0 0 0 0 0 0 0 0 0 0 0 0 0 0 0 4 24 22 19 13 14 21
0 0 0 0 0 0 0 0 0 0 0 0 0 0 0 0 0 0 0 0 0 0 1 0 1 0 0 0 0 0 0 0 0 0 0 2 10 8 0 14 39 38 39 15
0 0 0 0 0 0 0 0 0 0 0 0 0 0 0 0 0 0 0 2 12 16 6 0 0 0 0 0 0 0 0 0 0 0 0 0 0 0 0 0 15 28 17 35
0 0 0 0 0 0 0 0 0 0 0 0 0 0 0 0 0 0 0 1 1 0 0 0 0 0 0 0 0 0 0 0 0 0 0 0 0 0 0 0 1 13 12 8
0 0 0 0 0 0 0 0 0 0 0 0 0 0 0 0 0 0 1 0 0 0 0 0 0 0 0 0 0 0 0 0 0 0 0 0 0 0 0 0 0 3 2 0
0 0 0 0 0 0 0 0 0 0 0 0 0 0 0 0 0 2 11 1 0 0 0 0 0 0 0 0 0 0 0 0 0 0 0 0 0 0 0 0 0 0 0 0
0 0 0 0 0 0 0 0 0 0 0 0 0 0 0 3 3 0 0 0 0 0 0 0 0 0 0 0 0 0 0 0 0 0 0 0 0 0 0 0 0 0 0 0
0 0 0 0 0 0 0 0 0 0 0 0 0 0 3 8 0 0 0 0 0 0 0 0 0 0 0 0 0 0 0 0 0 0 0 0 0 0 0 0 0 0 0 0
0 0 0 0 0 0 0 0 0 0 0 0 0 0 3 4 0 0 0 0 0 0 0 0 0 0 0 0 0 0 0 0 0 0 0 0 0 0 0 0 0 0 0 0
0 0 0 0 0 0 0 0 0 0 0 0 0 6 14 1 0 0 0 0 0 0 0 0 0 0 0 0 0 0 0 0 0 0 0 0 0 0 0 0 0 1 0 0
0 0 0 0 0 0 0 0 0 0 0 0 14 15 4 0 5 1 0 0 0 0 0 0 0 0 0 0 0 0 0 0 0 0 0 0 0 0 0 0 0 0 0 0
0 0 0 0 0 0 0 0 0 0 2 15 23 19 22 4 0 0 0 0 0 0 0 0 0 0 0 0 0 0 0 0 0 0 0 0 0 0 0 0 0 0 0 0
0 0 0 0 0 0 0 0 0 0 11 27 12 0 0 0 0 0 0 0 0 0 0 0 0 0 0 0 0 0 0 0 0 0 0 0 0 0 0 0 0 0 0 0

GFSCGP_con_mucape_027.txt.gz
CAPE
11 3 0 0 0 0 0 0 0 0 0 0 0 0 0 0 0 0 11 77 195 187 241 311 383 526 871 918 781 532 373 304 125 117 93 68 68 35 38 13 16 21 14 7
0 0 0 0 0 0 0 0 0 0 0 0 0 0 0 0 0 0 0 0 14 93 213 322 483 620 673 529 206 103 91 59 50 49 47 11 0 0 8 7 0 0 0 0
0 0 0 0 0 0 0 0 0 0 0 0 0 0 0 0 0 0 0 1 18 32 46 77 83 63 52 46 14 0 0 0 0 0 0 0 0 0 0 0 0 0 0 0
0 0 0 0 0 0 0 0 0 0 0 0 0 0 0 0 0 0 0 0 1 18 29 44 23 18 8 0 0 0 0 0 0 0 0 0 0 0 0 0 0 0 0 0
0 0 0 0 0 0 0 0 0 0 0 0 0 0 0 0 0 0 0 0 1 5 10 2 6 0 0 0 0 0 0 0 0 0 0 0 0 0 0 0 0 3 0 0
0 0 0 0 0 0 0 0 0 0 0 0 0 0 0 0 0 0 0 0 0 0 0 0 0 0 0 0 0 0 0 0 0 0 0 0 0 0 0 0 0 0 0 0
0 0 0 0 0 0 0 0 0 0 0 0 0 0 0 0 0 0 0 0 1 0 0 1 0 0 0 0 0 0 0 0 0 0 0 0 0 0 0 0 0 0 0 0
0 0 0 0 0 0 0 0 0 0 0 0 0 0 0 0 0 0 0 0 0 0 0 0 3 5 0 0 0 0 0 0 0 0 0 0 0 0 0 0 0 0 0 0
0 0 0 0 0 0 0 0 0 0 0 0 0 0 0 0 0 0 0 0 3 0 0 0 0 0 0 0 0 0 0 0 0 0 0 0 0 0 0 0 0 0 0 0
0 0 0 0 0 0 0 0 0 0 0 0 0 0 0 0 0 0 1 8 0 0 0 0 0 0 0 0 0 0 0 0 0 0 0 0 0 0 0 0 0 0 0 0
0 0 0 0 0 0 0 0 0 0 0 0 0 0 0 0 0 0 0 0 0 0 0 0 2 3 9 2 0 1 0 0 0 0 0 0 0 0 0 0 0 1 4 12
0 0 0 0 0 0 0 0 0 0 0 0 0 0 0 0 0 0 0 13 4 5 12 20 24 21 19 4 0 0 0 0 0 0 0 0 0 0 0 0 0 0 4 14
0 0 0 0 0 0 0 0 0 0 0 0 0 0 0 0 0 0 0 0 2 4 7 10 15 11 5 1 0 0 0 0 0 0 0 0 0 0 0 1 0 0 0 8
0 0 0 0 0 0 0 0 0 0 0 0 0 0 0 0 0 0 0 0 0 0 0 2 8 8 3 0 0 0 0 0 0 0 0 0 0 0 0 0 0 0 0 12
0 0 0 0 0 0 0 0 0 0 0 0 0 0 0 0 0 0 0 0 0 0 3 11 4 9 0 0 0 0 0 0 0 0 0 0 0 0 0 0 0 0 0 13
0 0 0 0 0 0 0 0 0 0 0 0 0 0 0 0 0 0 0 0 0 7 9 12 5 1 0 0 0 0 0 0 0 0 0 0 0 0 0 0 0 0 6 15
0 0 0 0 0 0 0 0 0 0 0 0 0 0 0 0 0 0 0 0 0 6 5 6 0 0 0 0 0 0 0 0 0 0 0 0 0 0 0 0 0 0 0 0
0 0 0 0 0 0 0 0 0 0 0 0 0 0 0 0 0 0 0 0 4 11 4 0 0 0 0 0 0 0 0 0 0 0 0 0 0 0 0 0 0 0 0 0
0 0 0 0 0 0 0 0 0 0 0 0 0 0 0 0 0 0 0 2 1 0 0 0 0 0 0 0 0 0 0 0 0 0 0 0 0 0 0 0 0 0 0 0
0 0 0 0 0 0 0 0 0 0 0 0 0 0 0 0 0 0 0 0 0 0 0 0 0 0 0 0 0 0 0 0 0 0 0 0 0 0 0 0 0 0 0 0
0 0 0 0 0 0 0 0 0 0 0 0 0 0 0 0 1 7 16 7 0 0 0 0 0 0 0 0 0 0 0 0 0 0 0 0 0 0 0 0 0 0 2 0
0 0 0 0 0 0 0 0 0 0 0 0 0 0 0 4 19 16 9 0 0 0 0 0 0 0 0 0 0 0 0 0 0 0 0 0 0 0 0 0 0 0 0 0
0 0 0 0 0 0 0 0 0 0 0 0 0 0 0 9 13 13 0 4 0 0 0 0 0 0 0 0 0 0 0 0 0 0 0 0 0 0 0 0 0 0 0 0
0 0 0 0 0 0 0 0 0 0 0 0 2 5 9 27 19 8 0 0 0 0 0 0 0 0 0 0 0 0 0 0 0 0 0 0 0 0 0 0 0 0 0 0
0 0 0 0 0 0 0 0 0 0 0 4 2 8 25 14 11 0 0 0 0 0 0 0 0 0 0 0 0 0 0 0 0 0 0 0 0 0 0 0 0 0 0 0
0 0 0 0 0 0 0 0 0 0 0 0 3 25 25 10 0 0 0 0 0 0 0 0 0 0 0 0 0 0 0 0 0 0 0 0 0 0 0 0 0 0 0 0

GFSCGP_con_mucape_030.txt.gz
CAPE
8 0 0 0 0 0 0 0 0 0 0 0 0 0 0 0 120 133 177 183 197 213 195 168 189 211 343 443 428 293 195 100 50 38 82 79 56 27 2 0 0 4 13 3
34 13 5 0 0 0 0 0 0 0 0 0 0 0 0 0 0 35 51 122 199 221 242 326 572 659 640 445 254 131 59 28 0 0 0 0 0 0 0 0 0 0 0 0
11 1 3 10 9 1 0 0 0 0 0 0 0 0 0 0 0 0 0 0 173 345 426 438 421 335 279 94 6 1 0 0 0 0 0 0 0 0 0 0 0 0 0 0
5 0 1 6 0 0 0 0 0 0 0 0 0 0 0 0 0 0 0 25 83 55 40 37 27 2 0 0 0 0 0 0 0 0 0 0 0 0 0 0 0 0 0 0
0 0 0 0 0 0 0 0 0 0 0 0 0 0 0 0 0 0 0 0 0 4 15 0 0 0 0 0 0 0 0 0 0 0 0 0 0 0 0 0 0 0 0 0
0 0 0 0 0 0 0 0 0 0 0 0 0 0 0 0 0 0 0 0 0 0 0 0 0 0 0 3 0 0 0 0 0 0 0 0 0 0 0 0 0 0 0 0
0 0 0 0 0 0 0 0 0 0 0 0 0 0 0 0 0 0 0 0 0 0 0 0 0 0 0 0 0 0 0 0 0 0 0 0 0 0 0 0 0 0 0 0
0 0 0 0 0 0 0 0 0 0 0 0 0 0 0 0 0 0 0 0 0 0 0 0 0 5 12 1 0 0 0 0 0 0 0 0 0 0 0 0 0 0 0 0
0 0 0 0 0 0 0 0 0 0 0 0 0 0 0 0 0 0 0 0 0 1 3 0 0 0 0 0 0 0 2 0 0 0 0 0 0 0 0 0 0 0 0 0
0 0 0 0 0 0 0 0 0 0 0 0 0 0 0 0 0 0 0 0 5 8 4 0 0 0 0 0 0 8 3 0 0 0 0 0 0 0 0 0 0 0 0 0
0 0 0 0 0 0 0 0 0 0 0 0 0 0 0 0 0 0 0 0 0 0 0 2 9 9 11 11 10 2 0 0 0 0 0 0 0 0 0 0 0 0 0 0
0 0 0 0 0 0 0 0 0 0 0 0 0 0 0 0 0 0 0 0 0 2 18 16 16 21 22 18 12 7 3 0 0 0 0 0 0 0 0 0 0 0 0 0
0 0 0 0 0 0 0 0 0 0 0 0 0 0 0 0 0 0 0 0 0 9 8 5 6 14 20 20 14 2 0 0 0 0 0 0 0 0 0 0 0 0 0 0
0 0 0 0 0 0 0 0 0 0 0 0 0 0 0 0 0 0 0 0 0 0 0 0 3 15 13 5 6 0 0 0 0 0 0 0 0 0 0 0 0 0 0 0
0 0 0 0 0 0 0 0 0 0 0 0 0 0 0 0 0 0 0 0 0 0 0 0 1 5 4 4 0 0 0 0 0 0 0 0 0 0 0 0 0 0 0 1
0 0 0 0 0 0 0 0 0 0 0 0 0 0 0 0 0 0 0 0 0 0 0 0 10 15 13 9 0 0 0 0 0 0 0 0 0 0 0 0 0 0 0 0
0 0 0 0 0 0 0 0 0 0 0 0 0 0 0 0 0 0 0 0 0 0 1 19 26 27 10 0 0 0 0 0 0 0 0 0 0 0 0 0 0 0 0 0
0 0 0 0 0 0 0 0 0 0 0 0 0 0 0 0 0 0 0 0 0 0 8 17 2 0 0 0 0 0 0 0 0 0 0 0 0 0 0 0 0 0 0 0
0 0 0 0 0 0 0 0 0 0 0 0 0 0 0 0 0 0 0 0 0 4 13 8 4 0 0 0 0 0 0 0 0 0 0 0 0 0 0 0 0 0 0 0
0 0 0 0 0 0 0 0 0 0 0 0 0 0 0 0 0 0 0 0 7 14 7 1 0 0 0 0 0 0 0 0 0 0 0 0 0 0 0 0 0 0 0 0
0 0 0 0 0 0 0 0 0 0 0 0 0 0 0 0 0 0 0 3 11 3 0 0 0 0 0 0 0 0 0 0 0 0 0 0 0 0 0 0 0 0 0 0
0 0 0 0 0 0 0 0 0 0 0 0 0 0 0 0 0 0 0 4 4 6 0 0 0 0 0 0 0 0 0 0 0 0 0 0 0 0 0 0 0 0 0 0
0 0 0 0 0 0 0 0 0 0 0 0 0 0 0 0 0 11 15 17 26 0 0 0 0 0 0 0 0 0 0 0 0 0 0 0 0 0 0 0 0 0 0 0
0 0 0 0 0 0 0 0 0 0 0 0 0 0 0 6 18 19 8 2 0 0 0 0 0 0 0 0 0 0 0 0 0 0 0 0 0 0 0 0 0 0 0 0
0 0 0 0 0 0 0 0 0 0 0 0 0 1 12 12 27 18 1 0 0 0 0 0 0 0 0 0 0 0 0 0 0 0 0 0 0 0 0 0 0 0 0 0
0 0 0 0 0 0 0 0 0 0 0 0 0 0 3 26 22 20 11 0 0 0 0 0 0 0 0 0 0 0 0 0 0 0 0 0 0 0 0 0 0 0 0 0

GFSCGP_con_mucape_033.txt.gz
CAPE
2 0 0 0 0 0 0 0 0 0 0 0 0 0 0 0 122 102 68 119 96 116 151 114 169 214 156 131 104 156 171 152 90 101 51 16 14 0 0 0 0 0 0 0
16 4 0 0 0 0 0 0 0 0 0 0 0 0 0 0 14 102 109 125 137 171 204 248 372 330 322 291 244 60 167 41 23 4 0 0 0 0 0 0 0 0 0 0
17 0 1 1 1 2 0 0 0 0 0 0 0 0 0 0 0 1 51 76 115 147 285 494 468 214 244 305 264 139 14 0 0 0 0 0 0 0 0 0 0 0 0 0
23 17 11 12 11 8 1 0 0 0 0 0 0 0 0 0 0 0 0 7 224 321 262 206 111 30 0 1 0 0 0 0 0 0 0 0 0 0 0 0 0 0 0 0
9 13 23 12 1 1 6 0 0 0 0 0 0 0 0 0 0 0 0 149 222 86 37 25 10 0 0 0 0 0 0 0 0 0 0 0 0 0 0 0 0 0 0 0
3 2 1 0 0 0 0 0 0 0 0 0 0 0 0 0 0 0 0 8 3 0 9 0 3 0 0 0 0 2 1 0 0 0 0 0 0 0 0 0 0 0 0 0
0 0 0 0 0 0 0 0 0 12 0 0 0 0 0 0 0 0 0 0 0 0 0 4 3 0 0 2 7 2 0 0 0 0 0 0 0 0 0 0 0 0 0 0
0 0 0 0 0 0 0 0 0 0 0 0 0 0 0 0 0 0 0 0 0 0 0 0 0 1 0 0 0 0 0 0 0 14 0 0 0 0 0 0 0 0 0 0
0 0 0 0 0 0 0 0 0 0 0 0 0 0 0 0 0 0 0 0 0 0 0 0 0 0 0 0 0 0 0 5 20 7 0 0 0 0 0 0 0 0 0 0
0 0 0 0 0 0 0 0 0 0 0 0 0 0 0 0 0 0 0 0 0 0 0 0 0 0 0 0 0 3 8 16 9 2 1 0 0 0 0 0 0 0 0 0
0 0 0 0 0 0 0 0 0 0 0 0 0 0 0 0 0 0 0 0 0 0 0 0 0 0 4 9 10 10 2 9 0 1 0 0 0 0 0 0 0 0 0 0
0 0 0 0 0 0 0 0 0 0 0 0 0 0 0 0 0 0 0 0 0 0 0 0 4 16 15 12 13 28 24 0 0 0 0 0 0 0 0 0 0 0 0 0
0 0 0 0 0 0 0 0 0 0 0 0 0 0 0 0 0 0 0 0 0 0 0 6 17 23 10 13 28 25 10 0 0 0 0 0 0 0 0 0 0 0 0 0
0 0 0 0 0 0 0 0 0 0 0 0 0 0 0 0 0 0 0 0 0 0 3 5 8 7 14 19 17 7 0 0 0 0 0 0 0 0 0 0 0 0 0 2
0 0 0 0 0 0 0 0 0 0 0 0 0 0 0 0 0 0 0 0 0 0 0 0 0 9 18 9 7 0 0 0 0 0 0 0 0 0 0 0 0 0 0 0
0 0 0 0 0 0 0 0 0 0 0 0 0 0 0 0 0 0 0 0 0 0 0 0 5 16 16 11 0 0 0 0 0 0 0 0 0 0 0 0 0 0 0 0
0 0 0 0 0 0 0 0 0 0 0 0 0 0 0 0 0 0 0 0 0 0 0 0 12 25 11 1 3 0 0 0 0 0 0 0 0 0 0 0 0 0 0 0
0 0 0 0 0 0 0 0 0 0 0 0 0 0 0 0 0 0 0 0 0 0 0 8 20 15 6 0 0 0 0 0 0 0 0 0 0 0 0 0 0 0 0 0
0 0 0 0 0 0 0 0 0 0 0 0 0 0 0 0 0 0 0 0 0 0 6 12 28 10 0 0 0 0 0 0 0 0 0 0 0 0 0 0 0 0 0 0
0 0 0 0 0 0 0 0 0 0 0 0 0 0 0 0 0 0 0 0 0 0 4 15 19 4 0 0 0 0 0 0 0 0 0 0 0 0 0 0 0 0 0 0
0 0 0 0 0 0 0 0 0 0 0 0 0 0 0 0 0 0 0 0 0 1 18 23 13 1 0 0 0 0 0 0 0 0 0 0 0 0 0 0 0 0 0 0
0 0 0 0 0 0 0 0 0 0 0 0 0 0 0 0 0 0 0 0 2 16 16 13 2 0 0 0 0 0 0 0 0 0 0 0 0 0 0 0 0 0 0 0
0 0 0 0 0 0 0 0 0 0 0 0 0 0 0 0 0 2 6 6 12 18 30 0 0 0 0 0 0 0 0 0 0 0 0 0 0 0 0 0 0 0 0 0
0 0 0 0 0 0 0 0 0 0 0 0 0 0 0 0 1 13 25 15 21 9 0 0 0 0 0 0 0 0 0 0 0 0 0 0 0 0 0 0 0 0 0 0
0 0 0 0 0 0 0 0 0 0 0 0 0 0 0 0 9 21 27 27 6 0 0 0 0 0 0 0 0 0 0 0 0 0 0 0 0 0 0 0 0 0 0 0
0 0 0 0 0 0 0 0 0 0 0 0 0 0 0 0 14 26 16 8 6 2 0 0 0 0 0 0 0 0 0 0 0 0 0 0 0 0 0 0 0 0 0 0

GFSCGP_con_mucape_036.txt.gz
CAPE
0 24 0 0 0 0 0 3 0 0 0 0 0 0 0 49 317 262 249 301 315 254 63 240 484 558 675 689 494 535 139 166 28 0 0 40 4 0 0 0 0 0 0 0
65 48 0 0 0 0 0 8 34 0 0 2 20 34 0 4 308 351 320 312 307 178 262 396 648 662 594 572 681 340 222 116 13 20 5 0 0 0 0 0 0 0 0 0
73 37 9 29 9 36 50 64 39 12 0 0 18 66 37 0 4 51 146 307 274 354 497 583 848 1024 694 612 621 583 664 405 48 0 0 0 0 0 0 0 0 0 0 0
114 13 53 76 55 52 102 11 0 1 25 76 1 124 124 66 0 1 67 163 349 487 583 822 668 743 845 744 734 542 207 38 1 0 0 0 3 3 0 0 0 0 0 0
124 77 74 101 48 16 78 0 8 8 43 57 23 33 198 31 92 3 10 225 466 507 437 206 81 106 119 157 120 6 0 0 0 0 0 0 0 0 0 0 0 0 0 0
86 46 69 65 21 14 17 85 97 87 69 64 54 46 3 38 38 73 10 308 317 151 104 28 12 1 0 0 0 0 0 0 0 0 0 0 0 0 0 0 0 0 0 0
108 87 19 17 71 29 73 68 8 28 64 17 4 2 0 0 0 34 88 249 41 8 3 1 0 0 0 0 0 0 0 0 0 0 0 0 3 1 0 0 0 0 0 10
113 113 1 0 48 44 27 14 0 0 0 0 0 22 65 0 0 3 75 111 0 0 0 0 0 0 0 0 0 0 0 0 0 0 4 8 10 0 0 0 0 0 1 0
84 29 0 0 0 0 0 0 0 4 0 2 0 4 4 0 0 5 82 43 1 0 0 0 0 0 0 0 0 0 0 0 0 6 13 10 4 0 0 0 0 0 0 0
72 37 0 0 0 0 3 0 0 0 0 0 0 0 0 0 0 0 48 41 0 0 0 0 0 0 0 0 0 0 3 4 5 8 0 0 0 0 0 0 0 0 0 0
43 22 2 0 0 0 0 0 0 0 0 0 0 0 0 0 0 0 30 13 0 0 0 0 0 0 0 0 6 12 11 7 5 2 0 0 0 0 0 0 0 0 0 0
0 14 64 0 0 0 0 0 0 0 0 0 0 0 0 0 0 0 0 0 0 0 0 0 0 0 2 7 13 13 8 8 0 2 0 0 0 0 0 0 0 0 0 0
0 0 15 2 0 0 0 0 0 0 0 0 43 0 0 0 0 0 0 0 0 0 0 0 0 2 6 14 24 23 7 2 1 0 0 0 0 0 0 0 0 0 0 0
0 0 0 0 0 0 0 0 0 0 0 0 0 0 0 0 0 0 0 0 0 0 0 0 4 6 10 20 22 12 2 0 0 0 0 0 0 0 0 0 0 0 0 1
0 0 0 0 0 0 0 0 0 0 0 0 0 0 0 0 0 0 0 0 0 0 0 0 6 1 7 11 10 7 1 0 0 0 0 0 0 0 0 0 0 0 2 5
0 0 0 0 0 0 0 0 0 0 0 0 0 0 0 0 0 0 0 0 0 0 0 0 0 0 0 3 12 12 0 0 0 0 0 0 0 0 0 0 0 0 9 16
0 0 0 0 0 0 0 0 0 0 0 0 0 0 0 0 0 0 0 0 0 0 0 0 0 0 0 11 12 8 0 0 0 0 0 0 0 0 0 0 0 2 6 17
0 0 0 0 0 0 0 0 0 0 0 0 0 0 0 0 0 0 0 0 0 0 0 0 0 0 7 12 8 6 0 0 0 0 0 0 0 0 0 0 0 4 5 14
0 0 0 4 0 0 0 0 0 0 0 0 0 0 0 0 0 0 0 0 0 0 0 0 0 3 18 17 1 0 0 0 0 0 0 0 0 0 0 0 0 7 5 13
0 0 0 0 65 178 0 0 0 0 0 0 0 0 0 0 0 0 0 0 0 0 0 0 4 14 24 15 9 0 0 0 0 0 0 0 0 0 0 0 6 8 11 0
0 0 0 0 0 0 0 0 0 0 0 0 0 0 0 0 0 0 0 0 0 0 0 1 12 22 21 22 0 0 0 0 0 0 0 0 0 0 0 4 10 0 0 0
0 0 0 0 7 0 0 0 0 0 0 0 0 0 0 0 0 0 0 0 0 0 1 2 8 30 38 0 0 0 0 0 0 0 0 0 0 0 0 0 6 0 0 0
0 0 0 0 0 0 0 0 0 0 0 0 0 0 0 0 0 0 0 0 4 8 10 4 10 15 2 0 0 0 0 0 0 0 0 0 0 0 0 0 0 0 0 0
0 0 0 0 0 0 0 0 0 0 0 0 0 0 0 0 0 0 0 0 8 16 16 21 7 0 0 0 0 0 0 0 0 0 0 0 0 0 0 0 0 0 0 0
0 0 0 0 0 0 0 0 0 0 0 0 0 0 0 0 0 0 0 1 14 25 25 6 0 0 0 0 0 0 0 0 0 0 0 0 0 0 0 0 0 0 0 0
0 0 0 0 0 0 0 0 0 0 0 0 0 0 0 0 0 0 4 8 15 11 3 0 0 0 0 0 0 0 0 0 0 0 0 0 0 0 0 0 0 0 0 0

GFSCGP_con_mucape_039.txt.gz
CAPE
103 20 16 0 1 0 0 0 1 3 0 0 0 2 0 164 162 264 404 425 363 311 293 371 512 426 410 1092 842 636 487 207 117 46 1 0 0 0 2 0 0 0 0 0
39 9 0 0 1 0 0 9 2 6 0 2 0 21 8 71 155 186 263 420 483 503 476 521 770 761 789 1082 863 822 535 177 449 0 20 17 8 0 0 0 0 0 0 0
43 45 21 10 14 1 3 4 10 66 6 0 74 108 97 70 247 330 338 353 423 553 551 682 909 1015 987 863 721 948 586 601 279 204 7 1 0 0 0 0 0 0 0 0
19 34 77 39 22 4 40 61 54 56 63 51 64 98 35 149 198 286 370 500 481 512 631 859 1117 1089 1072 952 1039 724 463 351 91 1 0 0 2 8 9 3 10 0 0 0
123 103 85 70 129 98 29 54 105 84 67 20 102 52 94 212 172 156 236 435 560 649 844 1122 1238 1255 1145 930 726 469 309 45 1 0 0 1 20 23 9 1 0 0 0 4
11 130 155 97 97 75 128 149 138 101 87 181 133 98 110 190 187 191 184 309 578 798 902 644 688 442 304 413 324 49 6 7 0 0 2 13 18 1 13 4 1 0 0 1
142 137 151 137 156 153 146 199 277 183 158 167 145 89 61 79 75 103 210 326 613 610 488 208 104 24 20 26 4 0 0 2 3 11 19 3 0 2 2 1 0 0 0 0
136 204 138 139 204 179 168 141 187 40 50 69 134 2 206 131 29 85 230 373 430 375 275 15 0 0 0 0 0 0 4 11 17 11 0 0 0 0 0 0 0 0 0 0
204 40 56 44 91 64 144 40 114 87 168 26 0 57 157 37 18 116 287 418 356 276 87 0 0 0 0 0 3 1 14 7 0 0 0 2 8 10 17 0 0 0 0 0
130 138 36 5 27 39 58 59 39 6 0 0 25 0 131 15 0 52 274 390 277 179 30 0 0 0 0 1 6 9 4 0 0 1 4 6 14 13 0 0 0 0 0 0
108 88 113 0 8 30 100 22 2 9 13 0 0 23 0 0 0 3 154 301 302 134 16 0 0 1 3 7 8 2 0 1 8 17 7 11 2 0 0 0 0 0 0 0
138 99 62 34 4 1 6 35 42 8 0 0 7 0 0 0 0 0 13 167 242 112 41 13 2 4 4 0 0 0 5 10 14 20 4 0 0 0 0 0 0 0 0 0
139 0 2 33 38 5 1 0 0 0 0 0 284 0 0 0 0 0 0 4 91 73 49 25 5 2 1 0 3 6 7 8 24 30 15 0 0 0 0 0 0 0 0 0
8 0 1 38 45 53 64 0 0 0 4 0 0 0 0 0 0 0 0 0 0 26 34 9 2 1 0 0 4 6 1 16 28 26 0 0 0 0 0 0 0 0 0 0
29 65 1 0 1 0 0 0 0 0 0 14 0 0 0 0 0 0 0 0 0 0 0 0 0 0 0 0 12 6 1 22 40 17 0 0 0 0 0 0 0 0 0 3
0 40 0 0 0 0 0 0 0 0 0 0 0 0 0 0 0 0 0 0 0 0 0 0 0 0 0 0 14 0 8 14 21 16 0 0 0 0 0 0 0 0 0 3
82 18 0 0 0 0 0 0 0 0 0 0 0 0 0 0 0 0 0 0 0 0 0 0 0 0 0 0 0 2 8 17 29 0 0 0 0 0 0 0 0 0 1 5
36 16 0 0 0 0 0 0 0 0 0 0 0 0 0 0 0 0 0 0 0 0 0 0 0 0 0 0 0 13 13 26 4 0 0 0 0 0 0 0 0 0 6 8
0 0 0 0 0 0 0 0 0 0 0 0 0 0 0 0 0 0 0 0 0 0 0 0 0 0 0 0 12 18 20 15 7 0 0 0 0 0 0 0 0 5 9 11
0 0 0 0 0 0 0 0 0 0 0 0 0 0 0 0 0 0 0 0 0 0 0 0 0 0 0 2 10 14 9 12 2 0 0 0 0 0 0 0 1 6 9 10
0 0 0 0 15 0 0 0 0 0 0 0 0 0 0 0 0 0 0 0 0 0 0 0 0 0 3 12 8 14 27 20 0 0 0 0 0 0 0 0 1 6 14 13
0 13 0 2 1 0 0 0 0 0 0 0 0 0 0 0 0 0 0 0 0 0 0 0 0 1 0 6 0 0 0 0 0 0 0 0 0 0 0 0 3 8 15 15
0 7 0 0 2 0 0 0 0 0 0 0 0 0 0 0 0 0 0 0 0 0 0 0 3 11 9 4 0 2 0 0 0 0 0 0 0 0 0 0 5 7 10 11
0 0 0 0 0 0 0 0 0 0 0 0 0 0 0 0 0 11 0 0 0 0 0 5 16 10 15 0 0 0 0 0 0 0 0 0 0 0 1 2 6 1 0 0
0 0 0 0 0 0 0 0 0 0 0 0 0 1 0 0 3 2 0 0 0 0 7 18 14 9 8 0 0 0 0 0 0 0 0 0 0 5 6 6 10 6 0 0
0 0 0 0 0 0 0 9 0 0 0 0 0 0 0 0 0 0 0 0 4 14 2 4 3 0 0 0 0 0 0 0 0 0 0 0 0 4 6 0 0 0 0 0

GFSCGP_con_mucape_042.txt.gz
CAPE
64 44 76 52 1 0 0 2 5 2 0 0 0 1 0 25 143 246 191 129 54 12 9 94 182 187 628 803 542 368 292 68 62 59 29 4 3 0 0 0 0 0 0 0
88 7 0 0 0 6 0 4 40 0 0 0 0 0 0 2 72 268 291 210 203 123 43 347 434 521 920 999 794 488 321 294 34 39 34 0 0 0 0 0 0 0 0 0
24 0 0 1 0 0 0 26 44 8 1 0 1 0 0 2 12 82 227 343 341 287 375 494 598 724 992 1149 704 548 360 169 173 21 27 0 0 0 0 0 0 0 0 0
6 4 20 51 0 8 35 30 17 21 19 0 8 35 9 0 10 61 124 192 372 455 595 570 779 893 1241 1127 731 730 545 354 405 149 0 0 0 0 0 0 1 0 0 0
58 0 43 87 23 23 15 35 65 62 30 75 0 2 16 0 1 73 314 372 408 466 565 631 867 1035 760 747 854 884 688 217 39 0 0 0 15 11 10 10 11 12 6 0
13 12 16 59 35 26 75 67 88 57 113 85 3 30 30 0 9 6 146 308 449 576 577 830 1014 1104 791 942 991 696 309 100 0 0 7 4 14 3 0 0 1 0 0 0
36 0 69 100 28 52 24 42 230 19 79 264 42 82 67 21 84 176 123 271 451 634 850 997 945 924 729 557 602 367 63 7 0 0 1 3 0 0 0 5 9 7 0 0
67 137 73 64 57 50 50 84 155 84 56 255 78 71 164 107 56 102 219 200 547 769 824 542 584 306 286 319 156 31 0 0 0 9 9 1 0 0 1 6 22 18 0 0
13 15 5 40 39 43 24 105 94 76 315 476 1 0 167 42 38 90 185 331 589 545 421 218 168 64 41 15 0 0 0 0 0 3 0 0 1 2 8 12 11 0 0 0
57 0 11 48 9 16 0 3 135 44 11 0 0 9 168 20 9 59 289 476 520 401 313 101 1 0 0 0 0 0 9 1 0 0 0 2 7 8 19 27 0 0 0 0
20 5 8 52 9 0 82 57 0 0 191 199 192 17 0 0 0 4 218 443 524 402 266 80 0 0 0 1 9 1 5 3 0 0 1 10 26 31 33 10 0 0 0 0
75 127 240 130 40 16 3 23 52 590 32 125 327 11 0 0 0 0 13 248 415 405 259 36 0 0 0 8 7 0 0 0 0 0 11 17 36 36 25 1 0 0 0 0
143 154 143 29 51 45 1 0 0 13 178 31 302 47 0 0 0 0 0 7 217 369 214 41 4 3 6 5 1 3 0 0 0 36 8 28 50 36 32 0 0 0 0 0
154 78 3 50 0 39 112 11 0 12 308 21 0 0 0 0 0 0 0 0 0 126 127 82 26 17 8 5 2 0 0 0 15 40 9 22 36 4 18 0 0 0 0 0
30 0 0 0 1 16 4 15 20 10 12 1 23 0 0 0 1 0 0 0 0 0 3 36 155 64 60 33 1 0 0 5 34 12 9 36 8 11 0 0 0 0 0 0
29 78 0 43 0 0 0 0 0 0 0 0 0 0 0 0 0 0 0 0 0 0 0 7 66 88 84 39 1 0 0 3 39 24 48 18 24 0 0 0 0 0 0 0
150 270 195 87 0 0 0 0 0 0 0 0 0 0 0 0 0 0 0 0 0 0 0 3 16 21 17 5 1 0 0 0 0 6 27 24 2 1 0 0 0 0 0 0
312 368 371 157 0 0 0 0 0 0 0 0 0 0 0 0 0 0 0 0 0 0 0 0 9 15 7 8 2 0 0 0 2 21 27 16 0 0 0 0 0 0 0 0
119 138 67 11 0 0 0 0 0 0 0 0 0 0 0 0 0 0 0 0 0 0 0 0 0 1 1 2 2 0 0 10 13 12 1 0 0 0 0 0 0 0 0 0
0 45 146 0 12 0 0 0 0 0 0 0 0 0 0 0 2 0 0 0 0 0 0 0 0 0 0 0 0 0 1 10 10 0 0 0 0 0 0 0 0 0 0 0
0 36 0 0 52 0 0 0 0 0 0 0 0 0 0 0 0 0 0 0 0 0 0 0 0 0 0 0 0 4 4 3 3 0 0 0 0 0 0 0 0 0 0 0
0 111 0 161 0 0 0 0 0 0 0 0 0 0 0 0 0 0 0 0 0 0 0 0 0 0 0 2 13 15 6 0 0 0 0 0 0 0 0 0 0 0 0 0
90 93 271 15 26 0 0 0 0 0 0 0 0 0 0 0 0 0 10 0 0 0 0 0 0 0 1 8 8 4 0 0 0 0 0 0 0 0 0 0 0 0 0 0
0 0 27 0 0 0 0 0 0 0 0 0 0 1 0 0 0 1 9 2 0 0 0 0 0 0 3 4 0 0 0 0 0 0 0 0 0 0 0 0 0 0 3 0
8 0 0 0 0 0 0 0 0 0 0 0 0 0 0 0 0 1 0 0 0 0 0 0 10 0 0 0 0 0 0 0 0 0 0 0 0 0 0 0 0 0 0 0
0 0 38 62 0 0 0 0 0 0 0 0 0 0 0 0 0 0 0 0 0 0 0 1 4 0 0 0 0 0 0 0 0 0 0 0 0 0 0 0 0 0 0 0

GFSCGP_con_mucape_045.txt.gz
CAPE
94 32 28 12 9 1 0 2 3 0 4 14 8 0 0 39 156 151 163 116 52 0 22 46 104 195 279 373 401 429 408 361 200 55 38 27 22 3 10 8 0 0 0 0
15 2 8 6 0 0 1 0 0 0 0 2 0 12 4 8 92 69 39 6 3 0 0 2 111 378 424 468 460 462 367 178 26 25 19 22 5 0 0 0 0 0 0 0
10 4 2 0 0 0 21 31 7 6 7 0 0 0 0 6 20 144 84 50 7 0 0 15 83 586 541 559 613 506 363 225 71 60 19 26 0 0 0 0 0 0 0 0
12 16 0 3 0 12 65 21 16 5 7 0 3 0 2 0 1 165 205 185 174 90 90 184 302 714 785 771 775 598 490 334 80 36 4 0 0 0 0 0 0 0 0 0
61 10 1 2 6 1 1 13 7 9 6 13 8 1 1 0 0 0 14 191 191 175 144 216 392 590 868 812 875 650 466 232 171 76 2 0 0 0 0 0 0 0 0 2
0 0 0 1 0 0 45 1 28 30 10 1 13 2 0 0 1 3 39 179 179 184 203 419 580 884 1003 969 789 498 324 243 257 29 0 0 0 0 0 0 3 8 8 2
0 0 0 2 19 25 28 41 31 6 3 7 26 0 3 11 7 3 7 50 146 379 444 531 819 796 835 729 629 532 507 364 136 0 0 0 0 0 1 2 12 19 15 1
0 1 4 18 50 87 32 48 16 0 0 2 30 9 15 3 20 6 38 50 63 440 707 842 946 939 855 727 572 479 457 191 53 2 0 0 0 0 3 8 13 19 13 2
10 2 38 28 50 29 35 51 58 12 3 27 0 13 13 6 17 127 48 85 486 734 783 863 935 829 754 708 550 395 229 103 1 0 0 0 0 5 15 23 14 13 13 12
23 43 4 1 19 9 10 0 21 8 0 0 0 3 26 13 72 159 147 406 614 646 639 645 640 562 381 343 307 188 76 39 0 0 0 0 0 8 21 19 6 0 0 20
3 3 0 0 55 36 20 12 2 0 0 2 19 0 31 0 1 164 247 502 561 525 456 389 298 247 187 184 208 123 22 0 1 0 0 6 18 25 20 19 16 6 1 0
8 0 1 16 19 38 28 39 52 1 0 2 0 0 0 0 0 0 120 381 440 404 317 245 137 40 0 0 0 0 0 4 5 5 3 36 49 25 34 16 13 13 0 0
45 1 2 29 10 24 18 30 1 15 9 0 0 0 0 0 0 0 0 146 405 362 282 211 125 53 0 0 0 4 11 28 36 59 46 56 31 45 37 25 8 3 0 0
66 33 1 0 0 0 15 11 20 0 0 0 0 0 0 0 0 0 0 0 204 334 260 192 117 36 20 33 32 27 14 50 101 102 76 46 44 39 46 11 1 0 0 0
1 0 1 0 0 7 10 1 5 10 10 10 0 0 0 0 0 0 0 0 0 18 320 263 114 62 40 50 49 50 53 85 108 81 61 41 27 31 9 6 0 0 0 0
0 0 0 0 0 0 0 0 0 5 0 0 0 0 0 0 0 0 0 0 0 0 0 49 85 103 71 66 62 79 88 95 89 38 44 34 10 11 2 0 0 3 0 0
18 0 0 0 0 0 0 0 0 0 0 0 0 0 0 0 0 0 0 0 0 0 0 0 43 72 81 86 67 56 34 46 81 55 42 14 6 5 0 0 0 0 0 0
45 10 8 0 0 0 0 0 0 0 0 0 0 0 0 0 0 0 0 0 0 0 0 0 0 29 61 64 58 48 56 61 47 38 8 0 0 2 0 0 0 0 0 0
167 66 17 7 0 0 0 0 0 0 0 0 0 0 0 0 0 0 0 0 0 0 0 0 0 0 12 38 57 47 35 31 21 16 7 2 0 0 0 0 0 0 0 0
14 55 18 0 0 0 0 0 0 0 0 0 0 0 0 0 0 0 0 0 0 0 0 0 0 0 8 30 47 61 70 30 31 12 9 7 0 0 0 0 0 0 0 0
0 0 0 0 0 0 0 0 0 0 0 0 0 0 0 0 0 0 0 0 0 0 0 0 0 0 10 32 38 48 35 39 38 23 11 0 0 0 0 0 0 0 0 0
0 0 0 0 0 0 0 0 0 0 0 0 0 0 0 0 0 0 0 0 0 0 0 0 8 30 40 30 23 26 38 33 27 4 0 0 0 0 0 0 0 0 0 0
0 0 0 0 0 0 0 0 0 0 0 0 0 0 0 0 0 0 0 0 0 0 0 1 10 17 28 28 35 6 0 0 0 0 0 0 0 0 0 0 0 0 0 0
0 0 0 0 0 0 0 0 0 0 0 0 0 0 0 0 0 0 0 0 1 6 7 5 0 0 0 5 0 0 0 0 0 0 0 0 0 0 0 0 0 0 0 0
0 0 0 0 0 0 0 0 0 0 0 0 0 0 0 0 0 0 2 8 4 0 0 0 0 0 0 0 0 0 0 0 0 0 0 0 0 0 0 0 0 0 0 0
0 0 0 0 0 0 0 0 0 0 0 0 0 0 0 0 0 0 0 0 0 0 0 0 0 0 0 0 0 0 0 0 0 0 0 0 0 0 0 0 0 0 0 0

GFSCGP_con_mucape_048.txt.gz
CAPE
62 25 17 30 25 26 0 0 0 0 0 1 37 13 5 316 831 950 901 709 318 378 186 309 228 172 110 99 190 203 377 393 358 269 208 150 92 21 12 15 15 6 0 2
19 7 32 7 2 0 5 0 0 0 0 0 8 6 0 648 828 732 499 493 220 137 174 232 221 165 183 245 319 393 394 415 362 248 157 87 34 42 45 27 9 0 0 0
1 3 3 6 0 0 1 0 0 0 0 2 0 2 0 66 361 484 342 377 286 89 93 125 143 203 280 328 334 452 463 385 372 314 79 31 43 45 0 0 0 0 0 0
0 0 0 0 0 0 0 0 0 2 1 0 13 0 0 0 9 137 260 234 226 75 62 93 166 314 296 288 344 483 488 436 352 88 27 62 34 0 0 0 0 0 0 0
0 0 0 0 0 0 0 0 0 1 0 0 0 0 0 0 0 22 119 121 125 108 41 35 300 330 325 335 403 524 552 448 394 172 81 34 12 0 0 0 0 0 0 0
0 0 0 0 0 4 7 0 0 0 1 0 0 0 0 0 0 0 97 111 129 150 103 71 415 426 440 510 538 562 572 562 387 138 125 0 0 0 0 0 0 0 0 0
0 0 0 2 1 2 27 22 14 5 1 0 1 0 0 0 0 0 0 54 91 100 156 161 441 642 654 699 693 763 593 477 225 136 6 4 0 0 0 0 1 2 0 6
3 0 0 0 0 8 14 41 27 0 0 0 1 2 0 4 0 0 0 8 3 150 232 237 550 677 719 829 858 834 624 403 208 222 84 32 0 0 0 1 1 0 11 14
0 0 0 0 9 9 12 29 38 21 2 12 0 0 19 2 6 64 70 21 1 139 245 335 477 744 823 916 919 670 472 348 240 316 43 3 4 38 20 8 22 57 9 16
0 1 1 21 0 6 32 14 15 31 0 0 0 0 7 10 29 141 82 52 156 296 416 590 654 686 814 897 710 581 554 610 463 186 48 33 68 71 44 52 47 89 30 0
17 2 0 0 3 0 10 0 1 1 0 1 0 0 30 11 53 143 97 100 480 644 781 825 910 997 1009 772 584 435 500 484 306 158 98 99 61 74 71 47 55 14 0 4
6 2 1 0 0 1 6 1 4 33 6 0 0 0 0 0 11 110 107 203 514 592 583 689 875 915 844 713 472 242 223 168 70 57 97 85 61 71 88 35 74 15 16 18
29 25 20 12 3 43 61 26 3 1 0 0 0 0 0 0 0 0 53 148 394 502 512 483 446 509 572 396 364 349 369 150 57 35 26 56 71 68 37 40 32 5 10 22
48 29 14 0 0 5 2 7 13 7 6 0 1 0 0 0 0 0 0 1 255 443 469 413 337 289 248 259 246 189 44 31 52 36 47 55 68 47 67 80 17 3 10 2
37 31 36 8 0 1 0 0 17 38 18 7 0 0 0 0 0 0 0 0 0 283 394 388 324 277 196 131 75 57 49 42 45 67 55 55 51 74 78 63 43 2 2 0
16 1 0 0 1 0 0 0 0 0 6 10 4 0 0 0 0 0 0 0 0 0 0 69 311 221 112 70 52 56 38 55 62 89 119 121 49 44 37 44 29 0 0 0
0 0 0 0 0 0 0 0 0 0 0 0 1 1 0 0 0 0 0 0 0 0 0 7 3 19 55 67 55 65 71 65 85 110 87 65 55 66 55 23 0 0 0 0
0 0 0 0 0 0 0 0 0 0 0 0 0 0 0 0 0 0 0 0 0 0 0 0 12 27 64 101 121 85 80 79 71 65 47 50 37 25 12 2 0 0 0 0
10 1 0 0 0 0 0 0 0 0 0 0 0 0 0 0 0 0 0 0 0 0 0 0 0 1 61 82 83 75 51 50 52 46 45 27 26 22 7 0 0 0 0 0
143 59 9 0 0 0 0 0 0 0 0 0 0 0 0 0 0 0 0 0 0 0 0 0 0 0 0 0 5 35 47 44 38 39 38 30 16 0 0 0 0 0 0 0
110 116 73 3 0 0 0 0 0 0 0 0 0 0 0 0 0 0 0 0 0 0 0 0 0 0 0 4 18 30 26 16 9 18 23 0 0 0 0 0 0 0 0 0
0 7 13 0 0 0 0 0 0 0 0 0 0 0 0 0 0 0 0 0 0 0 0 0 2 12 20 31 38 33 26 0 3 0 0 0 0 0 0 0 0 0 0 0
0 0 0 0 0 0 0 0 0 0 0 0 0 0 0 0 0 0 0 0 0 0 1 5 13 15 7 7 5 0 0 0 0 0 0 0 0 0 0 0 0 0 0 0
0 0 0 0 0 0 0 0 0 0 0 0 0 0 0 0 0 0 0 0 1 4 5 10 6 0 0 0 2 0 0 0 0 0 0 0 0 0 0 0 0 0 0 0
0 0 0 0 0 0 0 0 0 0 0 0 0 0 0 0 0 0 0 1 2 0 0 0 0 0 0 0 0 0 0 0 0 0 0 0 0 0 0 0 0 0 0 0
0 0 0 0 0 0 0 0 0 0 0 0 0 0 0 0 0 0 0 0 0 0 0 0 0 0 0 0 0 0 0 0 0 0 0 0 0 0 0 0 0 0 0 0

GFSCGP_con_mucape_051.txt.gz
CAPE
30 9 7 22 19 24 30 2 0 1 4 0 0 7 59 207 662 641 646 573 532 610 528 446 258 234 354 334 271 192 148 86 72 206 290 338 384 306 169 57 7 0 2 19
10 2 25 16 14 4 0 0 0 0 4 10 0 1 1 154 685 607 577 859 853 718 624 492 344 331 355 372 219 126 111 194 272 354 381 379 266 155 65 22 22 39 48 11
0 0 0 0 0 0 0 0 0 1 0 2 0 0 0 5 474 705 629 724 930 752 749 656 450 386 280 359 89 149 186 256 311 378 358 294 184 54 40 49 64 81 20 0
0 0 0 0 0 0 0 0 0 0 0 0 0 0 0 0 258 676 730 685 736 424 622 474 289 373 287 344 120 234 205 278 296 351 372 265 128 63 57 75 40 2 0 0
0 0 0 0 0 0 0 0 0 0 0 6 0 0 0 0 85 560 689 403 512 234 273 310 345 360 271 253 127 237 202 237 334 389 324 303 197 60 57 18 0 0 0 0
0 0 0 0 0 0 0 0 0 0 0 0 0 0 0 0 0 0 88 446 298 308 236 172 217 219 192 154 138 219 208 263 281 430 393 274 89 50 53 2 0 0 0 0
0 0 0 0 0 0 0 0 0 0 0 0 0 0 0 0 0 0 0 11 276 248 249 138 133 176 151 107 134 221 231 329 415 512 403 130 81 14 8 0 0 0 0 0
0 0 0 0 0 0 0 0 0 0 0 0 0 0 0 0 0 0 0 0 31 117 125 110 213 255 260 202 244 308 359 492 534 422 219 46 3 15 2 1 5 5 5 3
0 0 0 0 6 5 0 0 0 0 0 0 0 0 0 0 1 4 1 0 16 93 67 84 255 376 379 361 394 423 444 570 484 412 212 109 27 21 29 47 45 39 22 30
0 0 0 2 0 0 4 0 0 2 0 0 0 0 0 9 35 14 0 0 0 1 52 116 278 449 472 496 539 647 697 718 566 341 199 201 114 69 30 27 37 25 8 1
0 0 0 0 0 0 0 0 0 0 0 0 0 0 0 12 14 0 0 1 12 26 114 185 357 477 559 602 636 774 765 654 472 215 226 318 154 89 59 29 26 45 1 8
0 0 0 0 0 4 2 0 0 0 0 0 0 0 0 0 1 0 1 0 143 385 392 480 551 607 632 756 823 953 871 619 552 358 419 267 128 55 42 38 72 23 0 1
0 0 0 3 0 0 1 2 7 0 0 0 0 0 0 0 0 0 1 16 72 495 687 696 696 734 786 841 955 970 627 595 614 480 283 133 79 86 49 67 58 20 11 25
0 3 0 0 0 5 27 36 36 4 0 0 0 0 0 0 0 0 0 0 12 270 576 692 802 882 949 993 946 789 583 408 330 140 72 62 61 60 62 54 73 75 63 5
1 1 0 2 1 0 3 4 2 2 0 0 0 0 0 0 0 0 0 0 0 0 215 401 506 567 702 778 735 560 227 111 64 63 38 52 73 66 66 48 50 53 34 22
7 20 9 27 3 2 3 0 0 0 0 0 0 0 0 0 0 0 0 0 0 0 0 77 318 481 469 377 366 211 147 72 85 44 56 67 71 52 72 52 53 16 8 5
39 47 23 28 18 6 3 0 0 0 0 0 0 0 0 0 0 0 0 0 0 0 0 0 0 15 45 86 78 86 103 71 59 73 65 59 61 53 47 32 15 2 0 0
3 27 34 11 7 0 0 0 0 0 0 0 0 0 0 0 0 0 0 0 0 0 0 0 4 1 4 10 23 35 50 91 85 81 51 79 42 33 31 15 23 4 0 0
0 3 6 1 0 0 0 0 0 0 0 0 0 0 0 0 0 0 0 0 0 0 0 0 0 0 0 9 19 43 77 80 55 46 63 36 24 34 21 16 1 0 0 0
0 4 4 0 0 0 0 0 0 0 0 0 0 0 0 0 0 0 0 0 0 0 0 0 0 0 0 0 19 66 66 46 41 31 35 40 50 18 0 0 0 0 0 0
7 8 8 4 0 0 0 0 0 0 0 0 0 0 0 0 0 0 0 0 0 0 0 0 0 0 0 0 0 8 14 24 11 6 8 0 0 0 0 0 0 0 0 0
8 54 25 2 0 0 0 0 0 0 0 0 0 0 0 0 0 0 0 0 0 0 0 0 0 0 0 3 10 15 17 13 10 0 0 0 0 0 0 0 0 0 0 0
1 5 9 1 0 1 0 0 0 0 0 0 0 0 0 0 0 0 0 0 0 0 0 0 0 1 11 17 15 1 9 5 0 0 0 0 0 0 0 0 0 0 0 0
0 0 0 0 0 0 0 0 0 0 0 0 0 0 0 0 0 0 0 0 0 0 0 2 6 7 0 9 7 5 0 0 0 0 0 0 0 0 0 0 0 0 0 0
1 3 0 0 0 0 0 0 0 0 0 0 0 0 0 0 0 0 0 0 0 1 0 0 0 0 0 0 0 0 0 0 0 0 0 0 0 0 0 0 0 0 0 0
0 1 0 1 0 0 0 0 0 0 0 0 0 0 0 0 0 0 0 0 2 0 0 0 0 0 0 0 0 0 0 0 0 0 0 0 0 0 0 0 0 0 0 0

GFSCGP_con_mucape_054.txt.gz
CAPE
0 1 0 4 15 20 18 0 0 1 5 26 6 0 0 82 310 202 218 325 345 249 246 248 187 104 93 202 190 125 211 73 0 0 9 76 164 223 314 218 142 129 30 7
0 0 0 0 20 27 10 2 0 1 0 2 4 8 1 85 233 253 193 215 284 470 429 355 377 209 134 148 291 287 264 323 36 42 53 79 143 243 244 267 181 71 31 39
0 0 0 0 5 15 6 2 3 0 1 14 1 6 2 16 211 447 417 333 294 466 553 564 485 447 310 171 326 381 379 439 104 49 58 94 198 246 185 172 119 45 47 58
0 0 0 0 0 2 0 0 0 0 0 0 0 0 0 0 73 579 557 510 507 536 567 598 594 562 469 294 376 475 317 218 65 37 36 161 277 265 224 109 46 47 75 57
0 0 0 0 0 0 0 0 0 0 0 0 0 0 0 0 0 70 558 564 501 638 672 683 684 628 524 375 407 451 407 145 59 73 156 267 335 279 183 45 48 56 46 3
0 0 0 0 0 0 0 0 0 0 0 0 0 0 0 0 0 0 20 439 604 566 732 872 743 726 642 501 457 389 413 148 115 141 209 276 279 189 131 38 63 88 3 6
0 0 0 0 0 0 0 0 0 0 0 0 0 0 0 0 0 0 0 72 485 650 599 684 398 482 486 316 412 345 373 235 164 93 117 220 286 121 94 45 82 91 5 0
0 0 0 0 0 0 0 0 0 0 0 0 0 0 0 0 0 0 0 0 4 329 636 480 398 294 336 243 304 305 296 250 130 99 81 198 265 274 115 65 28 9 0 4
0 0 0 0 0 0 0 0 0 0 0 0 0 0 0 0 0 3 0 2 0 0 81 477 460 377 307 198 177 145 171 142 114 124 124 288 331 88 79 10 0 18 21 35
0 0 0 1 0 0 0 0 0 0 0 0 0 0 0 0 2 0 0 0 0 1 24 101 310 365 310 189 137 168 146 110 144 190 244 337 270 128 60 13 26 38 45 28
0 0 0 0 0 0 0 0 0 0 0 0 0 0 0 0 5 0 0 0 0 0 10 46 47 135 198 208 203 218 228 251 307 376 471 425 271 208 123 67 80 77 62 52
0 0 0 0 0 0 0 0 0 0 0 0 0 0 0 0 0 0 1 0 0 47 68 139 194 203 291 321 353 400 408 386 434 644 658 463 350 290 246 134 68 55 62 71
0 0 0 0 0 0 0 0 0 0 0 0 0 0 0 0 0 0 0 0 6 33 288 305 314 334 376 386 392 408 475 563 635 651 543 407 280 222 232 110 70 76 65 42
0 0 0 0 0 0 2 0 0 0 0 0 0 0 0 0 0 0 0 0 0 11 214 454 472 499 501 522 538 577 661 686 587 417 336 242 167 175 80 92 76 58 30 27
0 0 0 0 0 0 0 0 1 0 1 1 0 0 0 0 0 0 0 0 0 0 2 248 536 606 657 721 732 704 652 579 434 309 235 148 171 60 22 57 56 28 40 0
0 0 0 0 0 2 8 0 0 0 0 0 0 0 0 0 0 0 0 0 0 0 9 21 116 295 368 414 443 476 423 281 137 121 87 94 88 59 27 40 47 43 7 31
4 0 1 1 3 2 7 0 0 0 0 0 0 0 0 0 0 0 0 0 0 0 0 0 0 0 2 10 33 35 48 61 71 65 62 77 70 61 56 45 43 44 23 7
2 10 19 22 22 2 0 0 0 0 0 0 0 0 0 0 0 0 0 0 0 0 0 0 0 0 0 0 0 0 0 0 35 78 74 54 32 34 60 62 54 6 1 0
7 19 19 24 17 0 0 0 0 0 0 0 0 0 0 0 0 0 0 0 0 0 0 0 0 0 0 0 0 0 0 0 46 28 38 31 25 30 38 17 1 0 0 0
13 21 19 14 0 0 0 0 0 0 0 0 0 0 0 0 0 0 0 0 0 0 0 0 0 0 0 0 0 0 9 18 17 40 30 28 28 21 2 0 0 0 0 0
6 22 11 4 6 0 0 0 0 0 0 0 0 0 0 0 0 0 0 0 0 0 0 0 0 0 0 0 0 0 6 22 18 13 14 1 0 0 0 0 0 0 0 0
2 15 12 4 0 0 0 0 0 0 0 0 0 0 0 0 0 0 0 0 0 0 0 0 0 0 0 0 0 0 3 8 2 6 8 1 0 0 0 0 0 0 0 0
9 0 6 12 0 0 0 0 0 0 0 0 0 0 0 0 0 0 0 0 0 0 0 0 0 0 0 0 2 1 7 7 9 0 0 0 0 0 0 0 0 0 0 0
0 3 13 9 0 0 11 5 0 0 0 0 0 0 0 0 0 0 0 0 0 0 0 0 0 0 0 2 8 7 8 4 0 0 0 0 0 0 0 0 0 0 0 0
0 3 0 0 0 0 15 20 0 0 0 0 0 0 0 0 0 0 0 0 0 0 0 0 0 0 0 0 0 5 0 0 0 0 0 0 0 0 0 0 0 0 0 0
0 0 0 0 1 3 1 0 0 0 0 0 0 0 0 0 0 0 0 0 0 0 0 0 0 0 0 0 0 0 0 0 0 0 0 0 0 0 0 0 0 0 0 0

GFSCGP_con_mucape_057.txt.gz
CAPE
0 0 0 0 3 3 5 0 1 12 3 122 83 36 2 630 647 491 365 195 196 286 253 145 139 116 162 230 215 285 246 228 244 9 2 0 5 19 171 310 304 167 159 138
0 0 0 0 0 0 2 7 5 2 1 1 4 18 17 245 568 421 345 238 165 301 353 236 197 149 160 204 266 217 213 246 262 27 22 21 17 17 176 285 239 130 80 55
0 0 0 0 0 0 0 0 1 1 1 9 2 21 37 26 149 314 268 284 269 402 537 467 262 241 204 190 248 236 203 183 221 64 40 30 21 43 159 223 188 44 100 54
0 0 0 0 0 0 0 0 0 0 0 0 4 0 4 0 87 214 261 329 278 322 388 628 561 381 330 222 183 244 222 263 235 355 45 32 29 24 162 160 82 51 86 66
0 0 0 0 0 0 0 0 0 0 0 0 0 2 4 0 0 76 393 550 593 505 481 635 773 700 450 422 275 199 181 401 382 427 400 21 19 29 66 129 64 49 60 54
0 0 0 0 0 0 0 0 0 0 0 0 0 0 13 0 0 0 0 325 595 605 426 534 723 712 601 605 554 440 264 373 449 364 395 89 34 52 74 90 111 67 27 47
0 0 0 0 0 0 0 0 0 0 0 0 0 0 6 0 0 0 0 2 341 494 404 370 568 564 650 708 709 600 417 414 508 525 321 81 47 77 156 237 181 198 46 49
0 0 0 0 0 0 0 0 3 0 0 0 0 0 0 0 0 3 0 0 0 258 387 498 401 526 749 879 818 782 640 489 500 469 452 79 44 95 181 184 198 310 58 50
0 0 0 0 0 0 0 0 0 0 0 0 0 0 0 0 0 3 0 0 1 0 104 281 647 594 662 758 556 637 657 541 485 412 427 173 74 71 95 129 260 137 39 17
0 0 0 0 0 0 0 0 0 1 0 0 0 0 0 0 6 1 1 0 0 0 0 0 44 322 656 594 543 441 399 321 341 343 320 298 96 88 197 230 211 58 20 14
0 0 0 0 0 0 0 0 0 0 0 0 0 0 0 0 0 2 1 0 0 0 4 35 122 159 206 384 455 342 224 186 201 217 213 152 138 189 236 391 65 59 15 2
0 0 0 0 0 0 0 0 0 0 0 0 0 0 0 0 0 0 0 0 0 2 16 68 94 136 261 331 327 297 277 371 357 270 236 234 264 339 281 158 75 59 10 15
0 0 0 0 0 0 0 0 0 0 0 0 0 0 0 0 0 0 0 0 0 0 100 102 119 132 302 395 388 333 263 322 365 383 465 381 295 314 209 131 114 123 58 66
0 0 0 0 0 0 0 0 0 3 0 0 0 0 0 0 0 0 0 0 0 0 0 120 206 171 162 237 287 340 410 464 514 600 477 486 260 115 106 123 51 25 17 52
0 0 0 0 0 0 0 0 0 0 0 0 0 0 0 0 0 0 0 0 0 0 0 0 126 408 473 528 579 608 606 657 670 525 321 159 100 45 86 104 30 1 14 32
0 0 0 0 0 0 0 0 0 0 0 0 0 0 0 0 0 0 0 0 0 0 0 3 16 110 300 402 430 438 416 359 287 136 73 51 22 39 4 10 6 1 1 10
0 0 0 0 0 0 0 0 0 0 0 0 0 0 0 0 0 0 0 0 0 0 0 0 0 0 5 22 41 53 52 42 52 39 9 1 2 5 5 11 9 2 16 4
7 0 0 0 0 0 0 0 0 1 0 0 0 0 0 0 0 0 0 0 0 0 0 0 0 0 0 0 0 0 0 0 0 0 2 6 7 11 12 20 26 34 15 1
9 2 2 0 0 0 0 0 0 0 0 0 0 0 0 0 0 0 0 0 0 0 0 0 0 0 0 0 0 0 0 0 0 0 3 7 15 14 7 13 5 1 0 0
0 15 13 6 0 0 0 0 0 0 0 0 0 0 0 0 0 0 0 0 0 0 0 0 0 0 0 0 0 0 0 0 0 1 1 7 1 3 3 0 0 0 0 0
0 14 1 0 0 0 0 0 0 0 0 0 0 0 0 0 0 0 0 0 0 0 0 0 0 0 0 0 0 0 0 0 1 8 11 2 3 0 0 0 0 0 0 0
0 0 3 3 0 0 0 0 0 0 0 0 0 0 0 0 0 0 0 0 0 0 0 0 0 0 0 0 0 0 0 0 0 1 5 1 0 0 0 0 0 0 0 0
2 0 10 0 0 0 0 0 0 0 0 0 0 0 0 0 0 0 0 0 0 0 0 0 0 0 0 0 0 0 1 3 0 0 0 0 0 0 0 0 0 0 0 0
4 11 13 10 0 0 0 5 6 1 0 0 0 0 0 0 0 0 0 0 0 0 0 0 0 0 0 0 0 0 0 0 0 0 0 0 0 0 0 0 0 0 0 0
0 11 8 8 3 26 13 7 3 6 2 0 0 0 0 0 0 0 0 0 0 0 0 0 0 0 0 0 0 0 0 0 0 0 0 0 0 0 0 0 0 0 0 0
0 0 1 0 6 4 0 6 0 0 0 0 0 0 0 0 0 0 0 0 0 0 0 0 0 0 0 0 0 0 0 0 0 0 0 0 0 0 0 0 0 0 0 0

GFSCGP_con_mucape_060.txt.gz
CAPE
0 0 0 0 0 11 17 28 44 50 30 175 130 122 63 689 957 1026 595 395 571 578 532 589 384 422 256 128 201 318 355 484 728 569 220 83 113 142 255 464 615 335 229 59
0 0 0 0 0 0 33 19 20 14 4 24 63 54 27 154 821 922 864 395 350 468 670 583 557 406 475 272 267 335 504 801 690 495 186 32 40 164 194 419 353 280 113 102
0 0 0 0 2 6 34 60 35 40 19 24 18 42 31 76 381 681 729 744 406 372 528 710 615 643 556 534 478 411 509 753 633 600 278 102 79 186 275 300 191 99 137 122
0 0 0 0 0 0 12 12 14 12 23 66 16 23 31 43 186 356 649 920 865 541 515 788 884 789 816 655 566 537 578 704 705 741 438 196 66 61 156 340 226 164 86 73
0 0 0 0 0 0 5 0 20 31 46 49 38 68 79 1 22 155 452 632 866 869 680 725 1007 1017 960 874 851 739 581 651 733 716 606 416 209 17 180 392 222 74 74 38
0 0 0 0 0 0 0 13 27 77 76 91 55 50 79 58 30 39 47 374 608 840 923 760 663 1163 1213 1182 1126 1003 857 772 809 826 723 730 577 339 343 127 90 34 47 37
0 0 0 0 1 0 1 17 129 111 101 104 9 41 68 35 39 29 45 78 147 580 1018 1103 852 1021 1314 1419 1373 1194 1116 963 883 1028 931 908 849 655 194 46 82 52 77 90
0 0 0 0 0 20 13 53 91 7 31 39 0 20 62 5 0 34 89 71 10 43 709 1073 1071 1112 1246 1437 1473 1353 1140 1219 1021 1046 920 849 707 536 63 29 46 78 158 215
0 0 0 0 0 2 35 36 24 115 11 92 4 3 4 0 0 47 22 39 103 23 285 711 962 1080 1367 1447 1472 1448 1196 1135 1138 1080 1038 753 401 247 57 7 1 81 137 84
0 0 0 0 0 0 43 15 59 96 21 9 19 0 18 0 27 0 0 0 40 129 81 234 505 898 1099 1285 1360 1453 1408 1364 1306 1196 882 543 442 298 97 59 79 61 71 133
0 0 0 1 0 23 22 50 30 49 39 61 16 19 0 0 0 41 75 18 53 154 222 175 199 318 588 916 1009 1086 1118 1126 1148 1064 916 417 402 325 319 150 104 88 158 213
0 0 0 0 0 0 26 72 85 60 20 31 51 28 0 5 0 0 0 1 57 206 320 291 261 288 417 626 805 913 915 902 896 926 754 461 400 340 208 144 103 93 83 65
0 0 0 0 0 0 4 13 19 25 3 11 212 39 6 0 1 0 0 0 0 31 333 512 507 552 677 780 841 904 935 921 894 655 656 724 462 374 240 91 110 105 106 37
0 0 0 0 1 1 3 8 9 30 54 0 6 7 9 15 15 2 3 0 0 0 0 461 780 831 925 993 1005 790 613 516 667 696 822 881 546 589 250 189 186 111 71 22
0 2 0 0 0 0 0 0 0 4 0 18 0 0 39 59 65 28 0 0 0 0 0 21 668 955 1012 1042 925 541 546 705 709 696 648 566 484 217 112 67 74 104 77 15
0 0 0 0 0 0 0 0 0 0 0 17 24 0 19 50 0 0 0 0 2 0 0 6 227 545 488 530 576 578 585 526 462 486 388 242 151 84 62 43 0 3 0 2
9 10 3 3 0 0 0 0 0 1 10 42 49 48 22 2 0 0 0 0 0 0 0 0 24 91 172 234 224 174 149 125 100 79 93 80 9 0 0 0 0 8 8 3
13 11 16 2 1 49 0 0 8 12 6 38 23 1 0 0 0 0 0 0 0 0 0 0 0 0 0 0 0 0 0 0 0 0 0 0 0 0 0 2 1 0 2 2
25 17 15 81 3 0 0 0 0 25 16 32 26 8 0 0 0 0 0 0 0 0 0 0 0 0 0 0 0 0 0 0 0 0 0 0 0 0 0 0 1 4 0 0
25 19 81 0 26 47 0 0 0 0 40 46 0 0 0 0 0 0 0 0 0 0 0 0 0 0 0 0 0 0 0 0 0 0 0 0 0 0 0 0 0 0 0 0
37 24 24 15 27 2 0 0 0 3 175 39 0 0 0 0 0 0 0 0 0 0 0 0 0 0 0 0 0 0 0 0 0 0 0 0 0 0 0 0 0 0 0 0
62 50 14 31 85 1 0 0 0 61 3 4 0 0 0 0 0 0 0 0 0 0 0 0 0 0 0 0 0 0 0 0 0 0 0 0 0 0 0 0 0 0 0 0
110 60 120 9 65 31 0 22 0 1 5 0 0 0 0 0 0 0 0 0 0 0 0 0 0 0 0 0 0 0 0 0 0 0 0 0 0 0 0 0 0 0 0 0
0 0 3 12 19 0 0 0 1 1 0 0 0 2 0 0 0 0 0 0 0 0 0 0 0 0 0 0 0 0 0 0 0 0 0 0 0 0 0 0 0 0 0 0
42 0 0 14 40 13 2 14 16 10 0 0 0 0 0 0 0 0 0 0 0 0 0 0 0 0 0 0 0 0 0 0 0 0 0 0 0 0 0 0 0 0 0 0
0 0 29 78 98 113 136 54 9 3 0 0 0 0 0 0 0 0 0 0 0 0 0 0 0 0 0 0 0 0 0 0 0 0 0 0 0 0 0 0 0 0 0 0

GFSCGP_con_mucape_063.txt.gz
CAPE
0 0 0 35 46 4 18 50 46 70 38 23 48 124 77 633 544 718 626 622 611 659 434 326 215 89 72 69 48 26 12 14 149 163 63 23 32 41 54 209 384 579 656 581
3 0 1 4 0 0 17 69 40 51 15 22 27 100 5 100 575 576 716 423 588 715 580 297 309 156 90 63 61 59 9 18 235 290 212 5 0 1 26 80 412 599 640 475
1 5 1 0 0 0 26 59 47 51 58 23 17 56 41 14 302 609 740 527 286 556 664 567 333 411 234 168 176 246 277 242 298 291 238 26 5 26 78 123 332 700 656 344
0 2 0 0 1 10 51 24 2 16 19 49 34 43 33 22 99 396 611 902 578 374 536 822 844 784 735 494 345 314 378 416 487 497 388 188 23 2 50 154 246 377 348 190
0 0 0 0 4 12 30 5 0 11 84 114 140 38 55 29 1 59 394 854 777 489 414 560 889 1006 937 863 709 721 490 486 589 633 622 513 248 61 87 161 345 402 485 233
0 0 0 0 1 0 7 0 5 17 95 165 45 109 37 20 5 25 32 216 657 638 431 407 663 924 937 966 1211 960 780 655 718 816 862 894 672 549 149 257 617 619 394 103
0 1 0 0 0 0 1 17 86 145 114 147 100 34 36 60 7 0 3 26 243 547 746 635 473 801 969 971 1141 1214 1126 851 824 953 1012 1062 1018 997 879 545 532 393 362 35
0 0 0 0 0 37 24 44 174 117 170 17 24 11 39 12 0 0 25 77 115 178 490 798 829 572 899 1181 1220 1350 1278 1248 1081 1427 1356 1482 1455 1307 1270 568 229 254 202 137
0 1 2 2 0 5 74 67 93 124 99 70 91 66 23 0 0 0 7 33 159 175 157 542 852 987 790 1110 1562 1895 1451 1329 1331 1694 1809 1866 1802 1586 1458 899 500 79 205 7
2 26 0 0 0 0 33 75 85 83 108 150 97 111 98 1 40 0 0 2 10 125 209 429 770 1090 1222 1273 1777 2067 1825 1626 1538 1555 1654 1574 1412 1098 1013 794 345 181 98 20
8 19 15 18 0 10 10 93 73 102 120 187 149 145 52 7 0 0 0 0 2 50 267 391 440 692 1068 1336 1637 1825 1873 1854 1774 1772 1687 1520 947 726 665 547 323 170 136 117
1 5 85 3 1 0 39 37 82 111 95 77 156 169 69 23 14 0 0 1 13 121 180 374 458 522 617 1021 1330 1634 1704 1794 1762 1746 1682 1191 888 789 807 934 666 191 153 79
0 7 33 30 25 2 9 63 98 103 82 59 275 105 31 24 6 0 0 1 35 102 171 265 471 627 751 897 1055 1224 1324 1278 1190 1227 1207 839 683 705 803 765 588 478 319 171
9 5 11 12 14 10 3 11 44 73 170 37 27 37 96 45 46 53 31 10 4 22 61 284 479 753 1002 1118 1161 1222 1189 1083 947 873 792 641 724 716 709 448 481 377 291 167
1 10 4 4 27 29 18 16 21 41 43 58 24 42 54 47 50 106 77 41 13 52 7 22 628 816 1131 1320 992 857 488 523 423 500 688 691 485 515 329 336 188 138 88 82
5 29 9 17 12 20 13 5 12 9 11 5 7 15 53 41 24 11 10 1 97 194 173 212 475 1086 1233 1232 490 404 437 476 508 510 456 338 249 221 185 135 127 102 52 9
66 103 51 26 16 28 52 0 5 5 10 10 15 16 42 77 54 10 0 59 129 155 193 303 608 816 633 383 167 388 467 439 336 233 201 149 115 110 109 7 0 0 0 0
68 77 156 83 10 0 0 1 1 4 0 7 8 7 25 33 11 6 0 47 62 32 55 125 154 92 53 122 169 62 31 22 10 1 0 0 0 0 0 0 0 0 1 0
153 156 222 138 75 0 0 0 0 3 0 11 17 9 36 27 0 0 0 2 0 0 0 0 0 0 0 0 0 0 0 0 0 0 0 0 0 0 0 0 0 0 0 0
78 221 287 100 0 0 0 0 2 25 39 14 35 31 13 0 0 0 0 0 0 0 0 0 0 0 0 0 0 0 0 0 0 0 0 0 0 0 0 0 0 0 0 0
94 142 178 118 84 2 0 2 23 82 170 49 26 23 0 0 0 0 0 0 0 0 0 0 0 0 0 0 0 0 0 0 0 0 0 0 0 0 0 0 0 0 0 0
92 111 171 134 188 22 0 6 52 205 162 87 64 9 2 0 0 0 0 0 0 0 0 0 0 0 0 0 0 0 0 0 0 0 0 0 0 0 0 0 0 0 0 0
94 163 165 139 110 104 56 108 58 137 218 188 119 26 10 0 0 0 0 0 0 0 0 0 0 0 0 0 0 0 0 0 0 0 0 0 0 0 0 0 0 0 0 0
112 135 164 180 148 117 94 86 53 104 115 117 60 36 1 0 0 0 0 0 0 0 0 0 0 0 0 0 0 0 0 0 0 0 0 0 0 0 0 0 0 0 0 0
9 15 30 36 22 26 100 85 100 98 62 14 9 0 0 0 0 0 0 0 0 0 0 0 0 0 0 0 0 0 0 0 0 0 0 0 0 0 0 0 0 0 0 0
0 0 114 86 40 175 114 140 201 179 99 11 5 1 0 0 0 0 0 0 0 0 0 0 0 0 0 0 0 0 0 0 0 0 0 0 0 0 0 0 0 0 0 0

GFSCGP_con_mucape_066.txt.gz
CAPE
0 0 0 0 0 2 16 0 9 12 5 20 13 48 92 18 124 672 480 564 540 230 259 263 136 5 0 0 0 0 6 85 108 25 31 4 64 12 0 0 33 345 411 436
0 0 0 0 7 0 0 0 7 20 7 0 0 13 32 173 111 242 422 435 524 337 285 142 53 2 0 7 51 59 58 120 76 21 0 0 4 5 0 10 44 345 409 445
0 0 0 0 3 0 0 0 3 43 10 10 1 2 32 2 113 128 456 369 571 556 352 256 148 69 44 3 22 27 37 33 90 80 20 1 3 0 0 8 111 461 503 411
0 0 5 4 0 0 2 0 7 15 23 26 5 4 53 4 7 149 202 472 255 500 370 258 280 111 80 35 48 42 3 0 51 203 180 84 0 0 0 0 64 507 532 416
0 0 0 0 0 0 16 0 12 0 4 33 40 31 53 4 10 0 180 470 352 313 466 388 223 316 151 161 110 164 214 125 137 185 245 217 49 7 0 44 56 445 379 281
0 0 0 0 0 2 5 1 0 0 2 30 30 27 23 20 27 52 156 459 675 387 352 578 608 536 535 425 426 252 333 307 329 413 345 441 181 105 13 55 97 384 314 217
0 0 1 0 0 1 0 0 9 52 82 144 76 98 119 14 10 15 7 394 580 522 332 313 692 815 781 759 727 654 472 418 389 626 610 420 762 324 289 124 230 427 338 264
0 0 0 0 0 2 0 0 41 27 0 130 36 67 35 5 1 0 0 11 163 474 582 407 257 821 869 877 961 970 845 674 582 641 909 903 711 956 532 556 491 410 312 168
0 0 0 0 0 0 14 21 16 41 37 121 2 131 48 4 0 0 0 3 108 136 300 596 615 483 906 900 1074 1186 1072 983 812 752 784 892 1078 865 937 929 597 339 242 192
0 0 2 0 0 0 0 7 49 80 5 36 10 28 68 7 0 1 0 2 30 122 182 252 643 803 658 1031 1116 1252 1250 1221 1166 1110 1086 1111 1175 1201 1104 1086 889 578 337 266
12 19 51 45 0 0 0 4 53 59 71 123 220 104 27 2 1 0 8 1 9 67 237 287 499 891 919 914 1127 1476 1476 1362 1295 1183 1190 1121 1417 1206 961 794 636 545 392 237
14 60 87 17 0 0 4 3 72 142 99 109 132 76 8 15 4 6 0 3 6 7 112 361 502 521 670 1234 1247 1656 1754 1693 1595 1486 1330 1369 1243 953 694 720 537 396 365 315
21 17 64 8 14 3 0 5 8 58 95 122 95 38 27 16 6 0 0 1 2 18 33 248 461 565 660 798 1304 1613 1760 1741 1609 1394 1131 1016 920 710 535 409 327 297 272 243
41 101 75 44 15 3 5 3 39 75 106 119 88 62 134 26 18 7 5 1 7 45 33 86 301 567 796 1022 1194 1307 1314 1298 1137 1043 1033 963 943 581 385 369 355 249 258 197
104 150 118 28 23 15 1 0 0 0 26 74 45 4 8 39 15 43 82 63 4 0 0 35 378 696 998 1122 1048 1099 1132 1080 991 930 861 786 640 381 430 357 224 229 251 205
73 115 132 105 28 6 6 13 1 0 0 9 34 33 31 21 18 9 57 35 35 48 107 94 223 883 1258 1176 1172 1079 1084 1042 861 726 757 700 455 448 225 206 140 117 82 67
99 111 99 50 22 11 0 6 14 14 18 16 14 17 2 7 19 38 32 5 5 189 182 237 555 1237 1120 1074 992 695 569 325 291 369 329 427 178 121 81 56 40 6 0 2
181 205 100 129 53 0 0 0 1 3 2 5 7 4 6 7 18 17 7 31 40 134 157 356 748 727 577 575 263 240 175 326 250 190 96 60 27 2 0 0 0 0 0 0
44 268 148 119 48 14 0 0 2 7 2 8 8 6 14 4 51 22 17 27 88 24 72 139 172 132 57 0 3 78 23 2 2 3 0 0 0 0 0 0 0 0 0 0
1 247 154 229 0 0 51 0 0 12 1 0 0 44 35 48 78 51 0 22 0 0 0 0 0 0 0 0 0 0 0 0 0 0 0 0 0 0 0 0 0 0 0 0
17 104 70 3 50 71 13 10 4 21 50 97 71 81 79 54 88 9 0 0 0 0 0 0 0 0 0 0 0 0 0 0 0 0 0 0 0 0 0 0 0 0 0 0
33 80 60 59 0 0 45 34 16 66 269 258 206 127 97 96 17 0 0 0 0 0 0 0 0 0 0 0 0 0 0 0 0 0 0 0 0 0 0 0 0 0 0 0
39 51 110 101 86 204 62 117 114 271 396 304 323 206 159 59 0 0 0 0 0 0 0 0 0 0 0 0 0 0 0 0 0 0 0 0 0 0 0 0 0 0 0 0
132 164 85 30 124 147 195 86 109 126 185 217 195 173 185 78 2 0 0 0 0 0 0 0 0 0 0 0 0 0 0 0 0 0 0 0 0 0 0 0 0 0 0 0
31 119 100 41 31 38 31 24 82 100 172 153 126 66 69 50 30 0 0 0 0 0 0 0 0 0 0 0 0 0 0 0 0 0 0 0 0 0 0 0 0 0 0 0
10 1 35 123 75 214 154 157 124 90 160 193 94 56 5 54 5 0 0 0 0 0 0 0 0 0 0 0 0 0 0 0 0 0 0 0 0 0 0 0 0 0 0 0

GFSCGP_con_mucape_069.txt.gz
CAPE
0 0 0 0 0 0 0 1 2 1 0 4 26 14 6 42 72 53 0 227 377 435 196 19 0 0 0 0 0 0 0 0 0 0 0 7 0 1 0 0 21 39 25 120
0 0 0 0 0 0 0 0 0 5 0 0 1 0 29 15 11 46 122 206 295 425 265 74 17 0 0 0 0 0 0 0 0 0 0 0 0 0 0 0 20 57 34 46
0 0 0 0 0 0 0 0 0 0 0 4 0 3 18 8 55 121 226 343 336 369 161 123 71 0 0 0 0 0 0 0 0 0 0 0 0 0 0 0 0 94 139 166
0 0 0 0 0 0 0 0 0 4 5 0 0 0 0 0 9 47 260 368 379 246 150 164 139 1 0 0 0 0 0 0 0 0 0 0 0 0 0 0 0 126 192 257
0 0 0 0 0 2 0 7 1 7 4 0 0 0 3 0 1 33 155 340 320 306 245 175 193 87 0 0 1 0 0 0 0 0 3 0 0 0 0 0 0 143 197 199
0 0 0 0 0 0 0 3 0 0 0 0 0 5 0 0 0 5 60 270 327 355 262 267 207 237 62 0 31 0 0 0 0 0 20 29 3 0 0 0 0 44 231 313
0 0 0 0 0 0 0 0 0 0 0 0 37 12 1 0 0 0 0 185 192 298 291 278 291 319 305 29 0 0 1 9 24 35 33 36 92 48 24 2 0 65 175 358
0 0 0 0 0 0 0 0 0 0 0 22 8 11 2 12 0 1 1 149 308 379 232 336 334 388 429 384 156 7 13 19 11 28 36 32 52 77 50 52 1 89 180 309
0 0 0 0 0 0 0 1 1 25 7 1 15 19 13 0 0 0 0 126 292 372 354 237 388 393 459 460 461 354 138 40 61 88 142 209 221 170 266 135 35 84 173 266
0 0 0 0 0 0 0 7 16 40 0 0 28 27 5 0 0 0 0 0 21 149 344 261 221 482 528 541 531 438 345 282 195 165 184 344 436 335 397 509 177 273 335 232
0 0 0 0 0 0 0 0 16 32 15 0 25 23 28 0 0 0 0 0 3 29 29 133 287 283 622 644 598 533 534 505 450 360 330 375 495 590 556 464 439 427 358 289
0 0 0 0 2 0 0 0 4 30 20 23 21 50 7 8 0 0 0 0 0 23 56 95 192 352 469 652 644 694 651 543 482 439 483 493 461 658 461 440 156 161 308 413
1 0 0 0 0 1 0 0 0 44 83 32 27 18 15 9 3 0 0 0 0 0 60 149 196 260 415 597 709 751 732 764 945 583 653 504 556 427 373 31 91 241 351 284
2 0 0 0 0 0 0 0 2 1 1 16 21 13 5 18 10 3 0 1 0 0 2 78 177 280 550 828 1011 1122 934 995 342 124 29 616 530 384 327 280 226 306 128 136
0 0 0 0 0 0 0 0 0 0 10 42 15 22 16 44 13 3 0 0 1 2 1 48 99 353 706 716 737 801 910 797 570 200 566 692 759 436 349 225 97 219 173 142
0 0 0 0 0 1 0 5 0 0 3 1 6 9 24 29 13 8 5 14 16 2 1 20 230 561 675 759 760 780 778 737 731 821 803 705 497 239 80 114 105 117 69 85
1 0 0 0 0 0 0 0 0 0 3 1 0 0 0 18 20 2 10 18 11 12 43 208 727 781 750 779 805 781 788 744 632 567 430 315 266 170 101 71 35 16 13 1
36 0 0 0 0 0 0 0 3 0 0 3 4 4 1 1 1 2 4 11 34 30 52 526 725 802 925 953 934 871 794 598 542 558 326 76 24 29 18 0 0 0 0 0
36 77 47 0 0 0 0 0 0 0 0 0 0 0 0 0 3 7 4 20 56 49 133 522 723 836 822 795 759 583 239 4 2 5 15 33 5 0 0 0 0 0 0 0
0 6 37 46 0 0 0 0 23 0 0 0 0 0 0 3 13 4 21 33 43 66 142 181 201 296 307 194 41 0 0 22 15 0 0 0 0 0 0 0 0 0 0 0
0 0 0 0 0 0 1 1 49 12 0 2 2 0 12 5 0 3 14 18 8 20 40 66 64 32 11 0 0 0 0 0 0 0 0 0 0 0 0 0 0 0 0 0
0 0 0 0 0 0 17 1 22 0 5 29 18 76 58 36 24 0 0 9 0 0 0 0 0 0 0 0 0 0 0 0 0 0 0 0 0 0 0 0 0 0 0 0
26 0 0 21 1 0 1 9 12 58 57 118 91 100 120 43 27 12 6 0 0 0 0 0 0 0 0 0 0 0 0 0 0 0 0 0 0 0 0 0 0 0 0 0
51 35 14 32 0 32 10 0 19 35 37 35 74 100 113 66 28 34 23 0 0 0 0 0 0 0 0 0 0 0 0 0 0 0 0 0 0 0 0 0 0 0 0 0
104 77 39 1 27 3 13 0 7 2 1 11 50 73 59 53 73 82 32 1 0 0 0 0 0 0 0 0 0 0 0 0 0 0 0 0 0 0 0 0 0 0 0 0
8 38 95 17 84 36 0 4 6 0 1 2 8 98 138 79 70 78 65 24 0 0 0 0 0 0 0 0 0 0 0 0 0 0 0 0 0 0 0 0 0 0 0 0

GFSCGP_con_mucape_072.txt.gz
CAPE
0 0 0 0 0 0 0 0 0 0 0 11 9 6 9 0 3 152 322 376 409 310 272 57 0 0 0 0 12 19 13 20 21 4 1 0 5 5 20 62 67 100 101 56
0 0 0 0 0 0 0 0 0 0 0 13 4 2 0 28 11 19 270 196 150 276 369 53 0 0 0 0 0 0 0 0 1 5 3 0 3 0 12 8 6 1 6 37
0 0 0 0 0 0 0 0 0 0 0 6 8 3 0 3 15 51 147 91 175 199 340 65 16 0 0 0 0 0 0 0 0 0 0 0 0 0 0 0 0 0 7 3
0 0 0 0 0 0 0 0 0 0 0 1 1 0 0 1 5 1 81 219 180 160 284 144 29 13 0 0 0 0 0 0 0 0 0 0 0 0 0 0 0 0 18 19
0 0 0 0 0 0 0 0 0 3 3 0 0 0 0 0 0 0 30 289 268 270 283 209 110 82 0 0 0 0 0 0 0 0 0 0 0 0 0 0 0 0 10 49
0 0 0 0 0 0 0 0 1 0 0 0 0 0 0 0 0 0 3 250 331 359 280 227 150 148 50 0 0 0 0 0 0 0 0 0 0 0 0 0 0 0 12 44
0 0 0 0 0 0 0 0 0 0 0 0 6 1 3 0 0 0 29 199 317 397 305 238 187 193 164 0 0 0 0 0 0 0 0 0 0 0 0 0 0 0 14 100
0 0 0 0 0 0 0 0 0 0 0 0 0 0 1 0 0 0 0 93 234 374 354 282 231 227 219 246 0 0 0 0 0 0 0 1 15 0 11 20 16 0 0 35
0 0 0 0 0 0 0 0 0 0 1 0 0 0 0 0 0 0 0 1 161 318 327 325 269 258 255 263 292 5 0 0 0 0 2 3 2 53 77 99 58 59 78 48
0 0 0 0 0 0 0 0 17 7 0 0 0 0 0 0 0 0 0 14 40 248 241 292 308 299 295 297 321 360 238 88 2 0 0 41 71 90 112 78 112 108 65 62
0 0 0 0 0 0 0 3 38 22 13 0 0 0 0 0 0 0 0 5 52 74 100 205 280 312 306 333 342 380 404 370 275 156 65 46 110 123 113 91 48 82 80 61
0 0 0 0 0 0 0 0 2 8 0 0 1 1 0 0 0 0 0 0 0 11 54 97 184 245 317 317 361 318 372 404 302 221 129 77 71 88 152 191 132 131 72 1
0 0 0 0 0 0 0 0 8 21 4 5 1 1 0 1 0 0 0 0 0 0 0 9 58 123 240 299 327 382 417 389 264 243 299 392 267 154 194 136 232 223 42 4
1 0 0 0 0 0 0 1 0 9 16 2 22 41 23 12 4 0 0 0 0 1 0 7 70 172 301 438 508 556 572 575 502 516 357 197 437 514 347 316 259 167 75 126
0 0 0 0 0 0 0 5 4 3 3 6 0 32 10 22 13 4 0 3 0 0 20 19 38 374 485 570 621 700 714 728 740 716 434 118 81 121 254 261 228 204 192 288
0 0 0 0 0 0 0 6 4 1 2 1 15 5 19 29 22 27 12 3 0 6 2 43 72 354 287 459 784 823 865 905 920 823 614 183 101 235 316 145 117 173 154 193
0 2 0 0 0 0 0 0 0 0 2 5 15 8 33 0 1 24 6 6 1 4 6 30 78 198 257 242 313 629 849 901 843 704 455 129 367 549 259 111 35 108 49 61
0 0 0 0 0 0 0 0 1 1 5 10 11 1 6 4 14 26 10 17 8 10 64 125 171 178 247 262 288 325 437 472 446 351 199 159 145 158 139 77 34 43 28 9
5 12 0 0 0 0 0 0 0 9 15 8 11 1 11 2 0 2 0 2 13 18 68 191 246 316 334 380 443 527 567 524 477 357 130 225 177 96 11 19 3 2 1 0
30 20 18 7 0 0 0 0 0 0 0 11 0 0 1 0 0 0 0 0 6 18 131 119 180 345 429 475 621 681 645 536 370 0 3 0 0 0 0 0 0 0 0 0
18 32 15 20 8 12 17 2 0 1 0 0 0 0 0 0 1 5 12 5 21 63 173 243 386 493 593 601 547 430 184 10 0 0 0 0 0 0 0 0 0 0 0 0
1 22 3 5 0 0 35 19 13 0 3 21 41 4 11 4 1 0 24 33 32 51 119 159 147 125 111 81 25 0 0 0 0 0 0 0 0 0 0 0 0 0 0 0
10 0 0 0 0 63 46 39 12 0 27 28 14 32 48 21 7 10 19 19 34 56 59 71 51 10 0 0 0 0 0 0 0 0 0 0 0 0 0 0 0 0 0 0
53 38 31 49 43 69 47 55 29 9 8 31 12 0 21 37 48 33 27 10 6 9 15 16 1 0 0 0 0 0 0 0 0 0 0 0 0 0 0 0 0 0 0 0
0 137 68 21 33 68 10 10 13 7 0 2 0 11 6 17 16 51 51 16 7 10 6 0 0 0 0 0 0 0 0 0 0 0 0 0 0 0 0 0 0 0 0 0
87 205 127 54 94 68 31 19 11 2 0 0 4 8 11 34 64 34 41 43 28 13 10 0 0 0 0 0 0 0 0 0 0 0 0 0 0 0 0 0 0 5 0 0

GFSCGP_con_mucape_075.txt.gz
CAPE
0 0 0 0 0 0 0 0 0 0 0 0 0 0 0 0 3 38 245 356 200 198 121 106 40 0 1 5 10 0 1 3 0 0 18 27 15 56 59 81 68 30 6 0
0 0 0 0 0 0 0 0 0 0 0 0 0 0 0 0 0 0 5 269 334 365 230 230 17 0 0 0 0 0 0 5 13 8 4 3 41 69 61 88 65 38 46 13
0 0 0 0 0 0 0 0 0 0 0 0 0 0 0 0 0 0 0 14 170 256 232 299 33 0 0 0 0 0 0 0 13 15 8 7 28 86 54 66 55 63 32 70
0 0 0 0 0 0 0 0 0 0 0 0 0 0 0 0 0 0 1 4 11 66 70 274 96 0 0 0 0 0 0 0 0 1 0 3 0 0 0 0 0 1 8 32
0 0 0 0 0 0 0 0 0 0 0 0 0 0 0 0 0 0 0 0 1 15 50 211 191 21 0 0 0 0 0 0 0 0 0 0 0 0 0 0 0 0 0 16
0 0 0 0 0 0 0 0 0 0 0 0 0 0 0 0 0 0 0 0 0 53 50 105 193 90 12 0 0 0 0 0 0 0 0 0 0 0 0 0 0 0 0 0
0 0 0 0 0 0 0 0 0 0 0 0 0 0 0 0 0 0 0 0 0 19 110 109 156 178 34 10 0 0 0 0 0 0 0 0 0 0 0 0 1 0 0 0
0 0 0 0 0 0 0 0 0 0 0 0 0 0 0 0 0 0 1 0 2 15 112 156 201 205 40 56 4 0 0 0 0 0 0 0 0 0 0 0 10 8 6 2
0 0 0 0 0 0 0 0 0 0 0 0 0 0 0 0 0 0 9 2 30 56 145 206 258 208 141 94 116 8 0 0 0 0 0 0 0 0 1 23 25 12 1 2
0 0 0 0 0 0 0 0 0 0 0 0 0 0 0 0 0 0 14 0 13 74 191 247 262 275 210 146 164 154 92 2 0 0 0 0 0 0 8 7 0 1 10 42
0 0 0 0 0 0 0 0 0 0 0 0 0 0 0 0 0 0 0 0 0 52 126 209 286 304 251 196 199 185 194 199 41 7 0 0 0 0 6 9 8 43 48 59
0 0 0 0 0 0 0 0 0 0 0 0 0 0 0 0 0 0 0 0 0 15 55 98 205 308 271 273 288 294 271 253 209 129 45 2 0 0 0 2 36 70 11 31
1 0 0 0 0 0 0 0 0 0 0 0 0 0 0 1 0 0 0 0 0 23 24 62 138 237 229 270 323 339 338 309 263 246 255 75 45 58 35 42 56 54 47 34
11 0 0 0 0 0 0 0 0 0 0 0 0 0 4 1 1 0 1 1 4 16 30 46 76 107 135 172 252 294 323 355 346 308 280 273 147 152 118 131 167 190 72 108
13 0 0 0 0 0 0 0 0 0 0 0 0 0 0 16 7 18 0 8 1 1 0 14 55 78 112 136 136 167 240 347 414 440 416 391 315 212 192 273 369 382 254 166
0 0 0 0 0 0 0 0 0 0 0 0 0 0 0 28 24 23 4 9 6 2 5 5 76 89 102 118 135 145 251 366 472 567 541 510 399 456 318 438 339 539 586 312
7 1 0 0 0 0 0 0 0 0 0 0 0 0 0 0 10 10 19 21 27 11 3 1 20 80 127 164 179 219 291 362 474 591 578 499 530 210 124 117 179 214 246 206
6 7 1 1 5 0 0 0 0 0 0 0 0 0 0 0 1 5 6 21 20 26 5 3 19 42 118 145 172 316 387 437 531 646 649 610 406 174 120 156 310 218 157 83
34 47 12 2 0 0 0 0 0 0 0 0 5 6 0 0 2 0 0 0 3 3 4 12 10 57 105 106 119 237 383 588 650 572 308 179 143 68 9 115 173 131 135 46
7 60 56 2 0 0 0 0 12 0 0 0 6 2 0 0 0 0 0 0 0 0 17 37 55 50 60 87 138 192 272 342 394 442 526 339 20 12 56 119 80 11 9 7
34 45 19 9 12 0 0 1 4 0 0 0 0 0 0 5 0 0 0 0 0 0 32 95 93 105 155 184 204 266 364 501 544 477 179 2 2 3 2 2 3 4 1 2
19 34 30 32 27 0 18 13 28 0 0 0 0 0 0 0 0 0 0 0 0 5 57 73 83 122 162 220 302 397 395 255 56 0 0 0 3 2 1 0 0 0 0 0
14 4 0 26 10 31 28 75 50 42 3 21 17 0 4 5 11 2 0 1 12 47 93 109 156 232 305 300 212 93 3 0 0 0 1 2 0 0 0 0 0 0 0 0
2 62 41 24 21 62 101 108 71 56 39 15 26 39 23 24 45 27 10 12 43 82 102 137 164 133 96 52 11 0 0 0 0 0 0 0 0 0 0 0 0 0 0 0
0 79 127 49 13 99 50 50 34 17 38 17 6 6 16 11 24 40 15 22 48 78 109 86 69 28 3 2 5 1 0 0 0 0 0 0 0 0 0 0 0 0 0 0
1 24 18 0 4 86 24 18 8 13 30 6 11 2 7 7 14 15 33 33 45 40 25 20 9 2 0 0 0 0 1 0 0 0 0 4 0 0 0 0 0 0 0 0

GFSCGP_con_mucape_078.txt.gz
CAPE
0 0 0 0 0 0 0 0 0 0 0 0 0 0 0 0 0 0 0 98 201 179 61 49 24 6 10 6 7 10 10 27 1 3 9 18 0 0 44 36 51 90 4 0
0 0 0 0 0 0 0 0 0 0 0 0 0 0 0 0 0 0 0 60 271 205 188 91 87 29 2 2 2 0 11 6 5 15 6 2 3 0 10 65 48 57 0 0
0 0 0 0 0 0 0 0 0 0 0 0 0 0 0 0 0 0 0 0 55 276 269 242 149 56 2 2 5 3 1 13 4 5 4 6 16 33 55 80 87 74 37 34
0 0 0 0 0 0 0 0 0 0 0 0 0 0 0 0 0 0 0 0 0 48 262 297 210 100 0 0 1 1 1 2 11 6 2 4 5 4 0 42 94 71 71 70
0 0 0 0 0 0 0 0 0 0 0 0 0 0 0 0 0 0 0 0 0 0 66 192 209 154 0 0 0 0 0 0 0 4 8 6 0 2 4 24 43 64 68 41
0 0 0 0 0 0 0 0 0 0 0 0 0 0 0 0 0 0 0 0 0 0 0 55 118 205 42 0 0 0 0 0 0 0 0 0 0 0 0 0 0 0 6 19
0 0 0 0 0 0 0 0 0 0 0 0 0 0 0 0 0 0 0 0 0 0 0 0 83 195 124 12 0 0 0 0 0 0 0 0 0 0 0 0 0 0 0 0
0 0 0 0 0 0 0 0 0 0 0 0 0 0 0 0 0 0 0 0 0 0 0 0 82 161 184 86 0 0 0 0 0 0 0 0 0 0 0 0 0 0 0 0
0 0 0 0 0 0 0 0 0 0 0 0 0 0 0 0 0 0 0 0 0 0 0 2 35 162 192 170 74 2 0 0 0 0 0 0 0 0 0 0 0 0 0 0
0 0 0 0 0 0 0 0 0 0 0 0 0 0 0 0 0 0 0 0 5 1 0 2 17 117 197 225 114 68 58 2 0 0 0 0 0 0 0 0 0 0 0 1
0 0 0 0 0 0 0 0 0 0 0 0 0 0 0 0 0 0 0 0 2 2 2 15 28 63 160 257 244 142 133 130 54 0 0 0 0 0 0 0 0 0 0 0
0 0 0 0 0 0 0 0 0 0 0 0 0 0 0 0 0 0 0 0 0 0 0 9 53 94 137 166 263 271 198 164 174 175 36 0 4 0 0 0 0 0 0 0
3 1 0 0 0 0 0 0 0 0 0 0 0 0 0 0 0 0 0 0 0 0 0 4 37 60 80 116 173 229 221 252 239 212 162 62 24 2 0 11 0 1 1 13
26 1 0 0 0 0 0 0 0 0 0 0 0 0 0 0 0 0 0 0 0 1 0 6 39 64 68 98 129 152 150 167 205 236 244 228 107 37 29 24 31 41 44 40
34 4 10 0 0 0 0 0 0 0 0 0 0 0 0 12 0 0 1 3 0 0 0 26 28 52 83 93 109 121 115 135 137 137 185 243 202 136 101 93 74 106 123 132
0 0 0 0 0 0 0 0 0 0 0 0 0 0 0 0 1 0 0 23 17 13 20 22 37 36 61 56 78 93 102 97 98 105 135 204 304 287 188 126 153 181 159 154
0 0 0 1 0 0 0 0 0 0 0 0 0 0 0 0 1 0 0 13 15 40 28 20 2 17 43 63 59 72 81 94 109 130 164 244 343 324 289 244 254 356 509 206
0 7 1 1 9 0 0 0 0 0 0 0 0 0 0 0 1 2 0 0 2 9 13 26 34 6 50 80 100 99 86 98 136 186 246 341 424 400 361 257 298 140 60 28
21 0 9 4 3 0 0 0 0 0 0 0 0 0 0 0 0 0 0 0 0 0 5 20 3 0 9 74 105 122 129 159 231 298 377 481 535 349 191 223 46 28 61 98
0 41 18 0 0 2 1 0 0 0 0 0 0 0 0 0 7 1 0 0 0 0 0 1 3 9 23 60 118 115 138 191 287 376 457 528 277 267 172 53 9 134 44 29
53 100 5 0 0 0 4 12 0 0 0 0 0 0 2 0 1 4 0 0 0 0 0 0 3 9 20 61 71 79 118 181 240 267 298 248 170 73 14 12 3 18 30 28
31 25 22 53 27 4 34 73 13 7 1 1 0 0 0 0 0 1 0 0 0 0 0 0 7 20 36 53 68 112 160 203 272 347 182 49 2 4 6 5 3 4 5 5
9 22 28 17 37 45 22 110 62 53 54 59 31 0 0 0 0 0 0 0 0 0 0 29 53 65 79 150 176 198 277 310 189 38 0 0 0 3 1 1 1 2 3 0
0 4 16 18 5 15 28 20 98 118 74 64 49 49 14 17 4 10 15 3 0 0 40 88 98 106 153 244 275 172 46 0 0 0 0 0 0 0 0 0 0 0 0 0
0 0 0 3 4 0 0 5 46 113 63 84 55 41 17 0 11 11 2 10 2 8 96 169 203 179 129 93 28 2 0 0 0 0 0 0 0 0 0 0 0 0 0 0
3 0 0 0 0 0 0 25 0 1 25 32 13 20 19 19 14 10 0 1 1 1 50 56 62 37 5 1 10 6 0 0 0 0 3 3 0 0 0 0 0 0 0 0

GFSCGP_con_mucape_084.txt.gz
CAPE
0 0 0 0 0 0 0 0 0 0 0 0 0 0 0 0 0 0 0 37 120 147 190 300 3 0 0 14 5 0 8 26 12 7 6 2 4 0 0 38 39 34 12 8
0 0 0 0 0 0 0 0 0 0 0 0 0 0 0 0 0 0 0 35 107 204 357 316 27 13 1 14 9 0 31 0 14 5 6 12 6 1 0 41 58 42 13 0
0 0 0 0 0 0 0 0 0 0 0 0 0 0 0 0 0 0 0 1 61 216 522 435 211 46 59 19 21 4 0 1 4 3 5 2 8 8 0 107 52 56 47 10
0 0 0 0 0 0 0 0 0 0 0 0 0 0 0 0 0 0 0 24 55 166 350 583 375 150 98 15 16 19 1 0 2 1 7 0 0 0 0 1 54 63 100 92
0 0 0 0 0 0 0 0 0 0 0 0 0 0 0 0 0 0 0 0 40 148 367 694 518 272 173 7 9 20 0 4 7 8 5 3 0 0 62 3 0 0 112 116
0 0 0 0 0 0 0 0 0 0 0 0 0 0 0 0 0 0 0 0 0 63 292 628 597 302 223 3 2 21 0 9 1 9 8 2 0 0 0 3 1 0 81 107
0 0 0 0 0 0 0 0 0 0 0 0 0 0 0 0 0 0 0 0 0 22 161 552 685 504 193 1 5 4 3 5 0 0 0 2 1 4 0 5 9 3 52 56
0 0 0 0 0 0 0 0 0 0 0 0 0 0 0 0 0 0 0 0 0 7 125 467 669 652 191 43 1 3 4 6 0 0 27 42 36 12 11 2 0 59 94 115
0 0 0 0 0 0 0 0 0 0 0 0 0 2 0 0 0 0 0 0 0 0 78 327 561 597 306 146 11 4 5 9 6 3 12 22 38 45 80 42 27 78 140 80
0 0 0 0 0 0 0 0 0 0 0 0 0 0 1 0 0 0 0 0 0 0 19 246 462 590 417 204 36 3 5 28 56 48 17 17 17 23 27 56 59 81 127 96
0 0 0 0 0 0 0 0 0 0 0 0 0 0 7 0 0 0 0 0 0 0 17 198 341 478 508 317 98 0 14 35 57 48 65 36 15 12 16 72 84 65 169 84
18 42 0 0 0 0 0 0 0 0 0 0 0 0 8 0 0 0 0 0 0 0 51 192 256 345 404 422 238 110 48 44 65 51 62 79 55 13 29 89 166 208 161 79
2 22 0 0 0 0 0 0 0 1 15 0 19 0 0 0 0 0 17 0 0 0 34 224 303 306 345 405 340 171 95 62 48 52 71 72 69 85 247 181 151 69 86 72
0 0 0 0 13 17 4 0 1 8 15 0 0 0 17 5 0 0 2 15 10 0 5 153 359 364 332 340 391 259 151 118 47 59 63 46 76 70 85 56 43 10 11 17
11 0 0 0 0 0 0 0 0 0 0 30 0 0 0 1 0 0 0 6 8 3 0 18 267 483 428 387 360 271 225 151 170 164 171 175 122 10 5 2 5 0 0 2
3 19 23 0 1 0 5 0 0 1 0 8 9 5 20 21 0 0 0 0 3 7 3 4 20 291 513 414 441 303 240 172 153 184 203 177 174 161 158 3 13 21 3 4
0 0 0 0 37 29 1 42 59 20 2 0 9 10 25 11 0 0 0 0 0 1 17 0 10 24 298 496 381 400 275 192 128 120 125 122 105 105 134 138 100 87 51 31
0 0 0 0 0 0 0 0 43 31 25 3 1 1 7 5 3 1 0 0 0 0 0 1 1 0 7 214 358 416 295 183 125 107 86 62 58 58 75 135 123 87 88 80
0 0 0 0 61 13 0 0 10 98 71 68 39 38 63 25 4 4 0 0 0 0 0 0 0 0 0 22 172 259 314 248 160 109 95 71 63 72 78 139 183 163 147 132
0 23 0 0 0 0 0 0 4 7 238 174 199 210 133 60 60 78 0 0 0 0 0 0 0 0 0 0 1 84 215 240 205 201 147 68 70 94 142 212 246 174 123 145
0 0 0 0 0 13 49 51 22 141 105 135 156 238 182 187 152 18 0 9 1 0 0 0 0 7 18 47 28 67 105 99 35 47 62 78 134 200 216 250 232 230 233 189
6 0 0 0 45 0 1 19 14 28 195 160 129 192 325 181 31 4 0 0 0 0 0 0 0 3 2 16 29 20 0 7 34 60 108 187 263 230 271 242 164 123 103 66
1 83 1 76 38 6 0 0 22 33 35 9 112 308 254 157 26 18 13 0 0 0 0 0 4 0 0 0 5 25 22 72 97 149 169 192 216 143 111 85 49 15 5 6
0 0 8 0 2 0 0 0 1 1 5 6 13 3 120 170 129 23 3 0 0 0 0 10 0 0 0 0 0 18 58 105 159 195 206 146 77 40 10 1 0 0 1 0
13 1 2 0 0 6 2 0 0 3 8 10 0 40 94 95 62 15 10 5 1 0 0 5 13 10 6 6 16 49 106 118 99 121 71 15 2 0 0 0 0 0 0 0
26 16 28 53 1 1 1 0 0 0 0 1 6 26 31 46 57 38 39 49 61 35 36 0 42 56 58 66 62 96 92 61 34 4 0 0 0 0 0 0 0 0 0 0

GFSCGP_con_mucape_087.txt.gz
CAPE
0 0 0 0 0 0 0 0 0 0 1 0 0 0 0 0 0 0 0 0 0 108 207 321 414 175 231 85 6 5 0 3 29 10 0 1 0 0 2 0 2 3 0 31
0 0 0 0 0 0 0 0 0 0 0 0 0 0 0 0 0 0 0 0 2 68 212 403 428 168 183 87 7 7 1 3 1 5 6 4 2 1 3 4 0 21 21 37
0 0 0 0 0 0 0 0 0 0 0 3 0 0 0 0 0 0 0 0 0 26 340 491 549 211 56 54 5 5 0 0 15 0 1 2 8 7 1 0 0 25 27 40
0 0 0 0 0 0 0 0 0 0 0 0 0 0 0 0 0 0 0 0 0 5 245 606 663 392 233 228 6 21 4 0 0 0 1 0 0 0 1 0 0 0 97 42
0 0 0 0 0 0 0 0 0 0 0 0 0 0 0 0 0 0 0 0 0 1 84 613 789 545 458 382 6 19 12 1 11 0 3 0 0 0 1 1 0 83 111 102
0 2 0 0 0 0 1 0 0 0 0 0 0 0 0 1 0 0 0 0 0 0 13 405 805 667 601 351 63 20 19 0 0 0 6 0 0 0 2 4 1 0 51 51
0 0 0 0 0 0 0 0 0 0 0 0 0 0 8 0 0 0 0 0 0 0 1 343 882 748 649 390 64 19 16 1 0 0 1 0 0 1 4 0 1 2 0 13
0 0 0 0 0 0 0 0 0 3 0 1 44 0 10 0 0 0 0 0 0 0 0 259 796 806 661 482 75 2 4 12 0 0 0 0 0 0 3 1 4 3 0 0
1 0 0 0 0 0 0 0 0 0 4 0 11 30 23 0 0 0 0 0 0 0 1 133 558 900 744 570 229 35 4 15 17 4 0 0 1 9 4 2 3 3 7 3
3 0 0 0 0 0 0 0 0 0 0 0 0 16 15 6 0 0 0 1 0 0 0 106 417 955 865 525 367 138 35 18 16 16 25 28 61 70 70 57 3 38 3 10
67 4 7 0 0 0 0 0 0 0 16 0 0 53 31 27 6 15 13 0 0 0 0 46 398 782 925 577 494 199 81 39 121 14 16 38 40 158 210 160 52 81 11 66
68 110 23 10 9 0 1 0 0 0 0 37 47 14 31 38 20 23 0 0 0 7 0 36 432 667 834 716 587 308 97 70 348 321 136 109 35 43 105 375 367 268 160 122
0 55 37 27 1 0 0 0 4 9 28 0 82 44 30 31 131 18 1 33 2 0 110 225 437 587 790 765 656 409 173 169 227 269 576 613 438 252 300 340 454 425 355 285
0 0 0 0 18 36 41 23 18 22 69 15 31 43 15 26 74 37 9 51 24 0 6 166 439 533 658 761 783 588 372 377 324 180 244 523 635 635 612 450 236 220 182 270
0 0 0 0 0 0 22 32 40 16 11 26 18 42 36 13 5 48 68 52 8 6 0 11 250 550 566 596 910 882 735 503 338 168 209 407 567 444 402 532 491 221 95 227
27 0 5 0 1 0 0 6 6 17 25 24 40 29 44 51 46 63 0 15 1 2 7 3 7 213 613 549 574 943 918 779 494 337 422 221 263 171 434 469 440 483 362 261
26 12 0 0 3 44 3 5 22 41 56 48 39 22 32 37 76 60 12 2 1 2 0 3 6 4 97 620 593 709 729 841 688 491 293 205 154 138 239 117 89 212 221 201
6 20 0 0 0 0 0 50 0 14 3 72 32 48 48 50 66 57 28 18 0 0 1 0 0 0 1 40 598 615 616 628 755 614 433 395 288 166 130 138 130 211 238 150
0 0 0 0 0 0 3 37 0 0 0 72 204 47 50 63 63 75 72 1 4 7 37 22 0 0 0 0 23 575 614 533 516 513 543 433 450 347 310 314 316 347 147 94
33 32 74 0 0 0 66 16 6 10 51 31 53 267 120 130 206 184 150 58 118 88 57 10 1 0 0 0 0 131 541 548 459 481 365 354 341 361 335 366 107 91 88 78
35 24 0 0 0 9 28 79 50 13 36 6 18 256 173 347 228 116 89 72 90 52 5 0 2 0 0 0 1 15 188 480 450 369 282 271 216 201 157 144 130 117 158 190
23 9 0 0 0 0 20 84 76 11 1 5 6 32 51 59 180 105 196 169 87 7 0 0 0 0 0 0 1 4 22 56 136 227 231 198 165 125 112 108 140 182 209 226
45 0 47 0 37 59 4 96 0 0 0 23 14 69 71 91 166 223 344 200 14 0 0 0 5 0 0 0 0 1 12 32 64 63 45 63 46 60 105 140 179 171 209 334
30 54 29 9 32 16 13 1 1 0 0 0 3 127 140 213 197 250 361 98 0 0 0 0 0 1 0 0 0 0 0 0 0 4 1 2 34 80 191 153 122 117 104 82
53 14 32 20 54 40 25 0 0 0 0 0 0 15 7 279 324 273 17 8 0 0 0 1 1 7 3 3 1 1 9 11 7 15 26 80 127 157 180 124 54 3 16 3
53 15 81 180 13 12 24 0 0 0 0 0 0 0 0 5 4 26 29 15 29 43 28 24 13 0 19 25 23 26 60 47 70 90 131 125 110 136 59 10 3 3 0 2

GFSCGP_con_mucape_090.txt.gz
CAPE
0 0 0 0 0 0 0 0 0 0 0 0 4 6 0 0 0 0 0 0 0 0 85 372 476 286 205 67 0 0 1 15 4 2 4 0 0 0 0 4 17 7 14 2
0 0 0 0 0 0 0 0 0 0 0 0 0 0 0 0 0 0 0 0 0 1 35 351 587 270 271 62 0 1 3 0 0 1 0 0 0 0 0 3 7 6 3 3
0 0 0 0 0 0 0 0 0 0 0 0 0 0 0 0 0 0 0 0 0 6 45 366 631 340 319 62 1 3 4 5 0 0 0 0 0 0 1 9 1 3 4 2
0 0 0 0 0 0 0 0 0 0 0 0 0 0 0 0 0 0 0 0 0 0 47 365 641 437 219 121 1 16 5 6 0 0 0 0 0 0 5 2 7 0 0 5
0 0 0 0 0 0 0 2 0 0 0 0 0 0 0 0 0 0 0 0 0 0 0 408 658 594 217 101 3 3 8 4 0 1 0 2 0 7 3 4 0 0 0 0
0 0 0 1 0 0 8 1 0 0 0 0 0 0 0 0 0 3 0 0 0 0 0 395 766 642 406 212 46 7 6 4 0 0 0 1 2 0 0 0 2 0 0 0
0 0 0 4 0 0 3 5 0 0 0 0 0 0 0 0 0 4 1 0 0 1 3 81 883 632 469 362 196 14 4 6 0 0 0 4 2 0 0 0 4 7 0 0
0 0 0 0 0 4 1 16 0 0 0 0 0 0 0 0 0 0 0 0 0 2 7 88 836 713 595 456 190 0 5 6 3 0 2 0 1 0 0 0 2 4 1 0
3 0 0 0 0 3 14 0 1 0 0 0 13 10 2 5 0 0 0 0 1 0 0 0 731 827 617 519 216 15 4 9 2 0 0 0 0 0 0 0 2 6 6 0
8 0 6 0 0 0 0 16 0 0 0 0 1 0 0 71 78 0 1 0 6 1 1 3 310 945 680 605 300 20 3 6 5 4 2 2 0 0 5 0 0 8 13 6
188 86 20 35 0 0 0 0 0 0 0 0 0 0 41 43 19 57 45 36 6 4 1 30 205 985 731 701 380 54 0 5 3 4 17 4 0 0 0 0 0 1 1 8
46 100 82 34 17 10 2 0 0 0 0 0 0 0 0 0 0 18 35 37 13 0 26 32 241 1028 921 685 414 148 22 7 11 3 1 8 4 22 13 0 0 0 0 0
0 13 0 38 20 28 45 43 12 5 5 0 0 0 7 42 10 29 20 48 20 0 148 94 289 851 1006 720 553 219 69 33 38 12 11 34 18 23 21 10 10 2 0 0
0 0 0 0 15 3 10 82 35 40 33 40 2 0 27 29 3 5 0 117 63 14 9 187 361 591 946 899 662 493 217 64 42 128 19 21 16 31 8 54 70 39 0 8
4 0 0 0 11 3 8 3 16 35 28 15 0 5 1 2 3 0 7 2 13 15 1 31 279 492 700 915 820 709 374 147 75 131 196 98 26 49 7 21 47 144 116 26
38 37 3 0 0 0 11 0 0 0 0 9 16 5 0 0 0 0 16 29 1 12 7 11 0 172 566 715 965 878 625 443 171 137 180 241 317 220 85 70 96 75 120 120
15 2 0 0 0 0 0 0 0 0 0 12 37 38 32 3 0 0 19 57 45 17 9 16 0 1 118 659 733 947 878 623 482 239 181 205 227 275 280 250 248 174 89 80
1 8 4 0 0 0 0 0 27 17 32 20 19 10 26 128 12 2 26 43 40 63 22 5 5 5 1 2 595 728 941 835 613 494 318 262 204 261 202 202 211 224 204 138
9 18 0 0 0 0 0 0 11 20 28 20 25 25 96 182 35 40 192 129 112 78 57 11 46 29 9 0 1 606 695 829 807 636 525 394 219 176 165 170 181 175 167 199
14 18 11 0 0 0 40 40 30 30 59 1 2 21 43 51 169 351 206 167 139 44 9 22 29 6 10 7 0 0 608 678 719 796 624 471 366 249 195 129 114 151 131 148
22 36 10 26 0 2 14 0 53 76 12 11 2 0 61 24 10 1 63 118 103 74 24 0 0 0 0 0 0 34 65 666 578 569 564 522 554 410 274 230 189 127 124 180
2 10 21 47 0 0 85 65 35 2 18 6 0 0 25 16 9 27 53 103 54 38 38 0 0 0 0 0 0 20 38 404 510 500 408 383 360 369 280 251 234 267 252 280
63 27 73 0 20 71 0 43 0 0 0 0 0 0 79 50 47 10 108 70 41 0 0 0 0 0 0 0 0 0 24 134 334 505 463 323 289 257 237 230 236 285 240 478
44 44 80 0 25 89 32 0 0 0 0 0 0 1 0 4 21 63 68 75 1 0 0 0 0 0 0 0 0 0 0 24 51 120 306 166 190 199 188 106 82 54 37 78
20 4 51 15 26 32 6 0 0 1 0 0 0 0 0 0 1 17 41 8 0 0 0 0 0 0 0 1 6 1 0 0 0 0 3 47 117 181 88 17 12 25 65 108
4 13 28 30 1 4 0 0 0 0 0 0 0 0 0 2 7 22 40 18 0 7 24 3 10 2 0 27 1 3 26 15 21 55 25 1 1 2 5 8 17 55 114 89

GFSCGP_con_mucape_093.txt.gz
CAPE
0 0 0 0 0 0 0 0 0 0 0 0 0 0 0 0 0 0 0 0 0 0 0 104 210 194 240 214 92 0 2 4 1 0 0 8 7 8 0 0 0 0 13 17
0 0 0 0 0 0 0 0 0 0 0 0 0 0 0 0 0 0 0 0 0 0 1 101 202 208 242 203 64 0 1 5 5 0 5 0 0 0 0 0 0 8 18 9
0 0 0 0 0 0 0 0 0 0 0 0 0 0 0 0 0 0 0 0 0 0 3 149 180 168 208 167 55 10 0 12 2 1 0 0 0 0 0 0 0 10 10 38
0 0 0 0 0 0 0 0 0 0 0 0 0 0 0 0 0 0 0 0 0 0 31 180 172 127 200 177 56 20 0 3 6 0 0 0 0 0 0 0 3 15 13 12
0 0 0 0 0 0 0 0 0 0 0 0 0 0 0 0 0 0 0 0 0 0 71 168 184 154 229 181 40 31 0 2 3 4 0 0 0 0 1 1 0 9 5 3
0 0 0 0 0 0 0 0 6 1 0 0 0 0 0 0 0 0 0 0 0 0 85 246 249 229 229 215 35 1 0 3 4 4 0 0 0 0 2 10 15 3 0 7
0 0 0 0 0 0 0 0 0 0 0 0 0 0 0 0 0 0 0 0 0 0 40 277 281 299 304 290 20 0 0 17 2 3 0 0 0 3 3 2 6 0 0 0
0 0 0 0 0 0 0 0 0 0 0 0 0 0 0 0 0 0 0 0 0 0 104 362 390 410 429 355 80 16 0 13 3 4 0 0 0 2 9 0 0 0 1 0
0 0 0 0 0 0 0 0 7 2 0 0 0 0 0 3 0 0 0 0 0 0 138 447 484 489 545 435 179 56 28 3 2 4 0 0 0 0 0 0 0 6 2 1
0 0 7 0 0 0 0 6 0 0 0 0 0 0 8 0 0 0 0 0 3 4 127 547 520 557 611 473 236 179 94 0 2 4 3 1 0 2 0 0 0 0 2 12
25 45 49 13 0 0 0 0 7 0 0 0 1 5 4 0 2 0 2 8 28 8 0 287 576 631 616 549 440 277 105 0 1 5 3 0 0 3 0 0 0 0 0 12
9 22 36 51 22 0 0 0 0 0 0 0 1 1 0 0 5 0 0 0 17 24 5 23 687 669 659 629 591 350 181 8 4 8 4 4 0 0 0 0 0 0 0 2
4 0 0 20 68 11 24 2 3 0 0 0 0 0 4 0 0 1 6 0 0 69 33 70 761 726 727 721 665 502 343 41 0 6 5 2 1 2 0 0 0 0 0 0
0 0 0 0 0 1 1 3 4 1 0 0 0 0 7 1 12 38 0 0 6 2 37 226 908 859 821 781 713 605 500 252 1 0 2 1 2 1 3 0 0 0 0 0
0 0 0 0 0 1 0 0 14 0 0 0 0 0 0 1 4 0 0 4 2 16 0 107 473 987 887 795 765 760 739 534 115 0 0 1 3 4 3 1 0 0 0 0
16 0 0 0 0 0 0 0 0 0 0 0 0 0 0 0 0 8 15 0 0 0 0 6 93 469 1035 1005 862 828 792 675 404 191 17 2 0 0 42 11 10 1 0 0
0 0 0 0 0 0 0 0 6 1 0 0 0 0 0 0 0 0 4 42 3 17 35 5 18 5 91 754 884 838 813 724 661 567 424 108 102 35 0 0 6 51 67 75
0 0 0 0 0 0 0 0 0 49 2 0 4 0 0 0 0 21 86 28 49 33 29 30 26 10 12 19 201 743 830 839 746 663 581 504 231 231 159 65 30 46 44 62
0 0 0 0 0 0 0 40 36 12 10 6 0 0 0 0 0 109 94 73 45 35 33 36 31 29 24 12 10 17 550 896 861 795 706 564 421 286 286 261 229 157 68 88
0 0 0 0 0 0 25 0 24 17 11 4 0 0 0 0 0 32 56 56 6 26 42 32 25 15 8 0 10 2 1 535 799 755 810 618 516 343 283 285 343 343 320 307
0 1 0 0 0 0 31 11 2 41 0 0 1 0 0 0 1 6 13 44 23 39 15 16 12 2 9 12 2 14 4 12 311 832 671 731 557 431 401 324 343 315 303 334
0 0 0 0 0 0 2 8 0 0 0 0 0 0 20 4 0 60 9 16 18 1 1 11 3 1 4 7 1 0 5 0 69 449 743 724 653 449 395 361 351 328 300 521
0 0 0 0 0 23 6 0 0 0 0 0 0 0 0 0 0 0 3 24 2 0 0 0 0 0 0 0 0 1 0 3 22 288 438 584 665 553 525 529 448 405 376 412
34 2 10 8 23 26 5 2 0 0 0 0 0 0 0 0 0 3 0 1 0 0 0 2 0 0 0 0 0 1 9 0 12 114 241 363 430 425 390 372 403 331 300 224
10 1 38 73 11 6 0 0 0 0 0 0 0 0 0 0 0 4 30 33 27 7 4 0 0 0 0 0 1 8 31 21 11 3 115 325 287 352 249 235 293 267 113 18
0 0 2 0 8 21 3 2 0 0 0 0 0 0 0 0 0 2 21 39 53 24 0 0 0 0 0 0 0 0 2 21 14 65 8 0 0 63 157 247 317 50 30 20

GFSCGP_con_mucape_096.txt.gz
CAPE
0 0 0 0 0 0 0 0 0 0 0 0 0 0 0 0 0 0 0 0 0 0 0 0 120 180 202 222 246 246 185 26 0 0 3 4 0 41 100 74 55 67 42 20
0 0 0 0 0 0 0 0 0 0 0 0 0 0 0 0 0 0 0 0 0 0 0 1 234 199 230 228 196 176 159 19 0 0 1 0 1 20 34 47 57 43 14 24
0 0 0 0 0 0 0 0 0 0 0 0 0 0 0 0 0 0 0 0 0 0 0 9 282 234 242 221 134 150 130 16 0 0 0 1 5 0 0 0 1 6 23 31
0 0 0 0 0 0 0 0 0 0 0 0 0 0 0 0 0 0 0 0 0 0 0 28 282 220 203 184 179 194 123 18 0 0 1 0 0 0 0 0 0 0 3 25
0 0 0 0 0 0 0 0 0 0 0 0 0 0 0 0 0 0 0 0 0 0 0 2 248 202 208 185 190 167 80 14 0 0 1 0 0 0 0 0 5 0 3 11
0 0 0 0 0 0 0 0 1 0 0 0 0 0 0 0 0 0 0 0 0 0 0 3 133 197 247 194 177 144 44 10 0 0 0 0 0 0 0 0 0 0 1 5
0 0 0 0 0 0 0 0 0 0 0 0 0 0 0 0 0 0 0 0 0 0 0 10 91 227 260 185 174 144 28 3 0 0 1 0 0 0 0 6 1 3 5 4
0 0 0 0 0 0 0 0 0 0 0 0 11 0 0 2 0 4 0 0 0 0 2 20 102 240 273 198 185 140 14 2 0 0 0 0 0 0 6 5 3 13 4 3
0 0 0 0 0 0 0 0 0 3 1 0 0 0 0 0 0 1 0 0 0 0 26 81 144 264 297 239 245 200 18 0 0 0 0 0 0 0 5 3 7 6 3 1
0 0 0 0 0 0 0 0 7 12 0 0 0 0 0 0 0 0 0 0 0 0 218 156 198 275 315 298 330 262 76 0 2 0 0 0 0 0 0 6 0 0 0 5
8 22 0 18 0 0 0 0 11 2 0 0 0 0 7 0 3 0 0 0 0 0 222 345 330 356 391 440 454 356 149 8 0 0 0 1 0 0 0 0 0 0 2 0
7 11 18 20 36 21 0 0 0 0 0 0 0 0 20 0 0 0 0 0 0 0 3 473 414 403 419 510 563 450 286 45 15 1 1 1 1 0 0 0 0 0 0 0
2 17 8 4 13 11 15 0 0 11 0 0 0 0 5 0 0 5 0 0 3 0 1 38 566 554 498 588 640 538 458 274 39 0 4 7 2 0 0 0 0 0 0 1
13 0 12 7 0 0 19 14 0 0 0 0 0 0 0 28 0 11 0 1 0 0 0 38 509 637 614 639 664 624 575 437 135 11 1 10 2 2 2 0 4 0 0 0
0 9 0 0 0 0 9 25 0 0 0 0 0 0 0 47 47 54 32 42 0 0 0 109 615 616 671 692 696 700 682 557 394 130 0 1 2 6 3 3 5 1 0 0
2 0 0 0 0 0 0 5 5 2 11 0 0 0 41 42 23 48 79 25 12 0 0 0 559 786 772 814 772 709 702 573 558 569 277 8 0 14 2 2 1 3 0 0
0 0 0 0 0 0 0 0 0 0 12 21 0 17 5 1 25 65 126 129 60 1 3 33 245 622 858 762 593 649 613 516 553 565 436 333 164 1 4 4 2 3 0 0
0 0 0 0 0 0 0 10 41 11 2 0 4 0 0 8 76 167 126 84 66 58 37 10 26 65 139 197 463 623 640 532 469 450 489 469 346 269 129 0 0 15 41 1
0 0 0 0 0 0 3 3 33 15 14 20 0 0 0 0 74 71 106 99 83 64 39 35 6 1 9 15 10 21 184 540 592 641 441 450 483 447 352 170 25 5 32 66
0 0 0 0 0 0 12 21 4 20 66 1 0 0 0 0 1 0 11 76 91 80 62 39 36 3 0 5 25 11 5 99 560 519 627 528 300 351 381 335 192 179 88 26
0 0 0 0 0 0 4 9 8 7 0 0 0 0 0 0 0 5 14 31 57 47 35 25 24 34 20 15 4 0 3 2 6 136 540 533 438 338 343 355 303 338 277 227
0 0 0 0 0 0 2 0 0 0 0 0 0 1 0 0 0 5 4 24 32 18 4 12 8 4 2 2 3 0 0 0 0 6 11 81 508 447 323 355 269 365 434 428
4 0 0 0 0 4 0 0 0 0 0 0 0 0 0 0 0 1 0 0 9 24 18 0 0 0 0 0 0 0 0 0 0 0 0 62 224 487 450 371 310 329 373 458
2 1 1 9 4 2 2 0 0 0 0 0 0 0 0 0 0 0 0 0 0 8 3 0 0 0 0 0 0 0 0 0 0 0 0 17 147 539 651 530 377 333 312 299
0 7 1 0 7 3 0 0 0 0 0 0 0 0 0 0 0 0 0 0 3 26 20 0 0 0 0 0 0 0 0 2 0 0 1 0 47 131 195 279 336 352 392 377
0 0 0 0 2 0 0 0 0 0 0 0 0 0 0 0 0 0 0 0 0 16 40 17 1 0 0 0 0 0 0 0 0 0 0 0 1 6 84 89 129 101 61 200

GFSCGP_con_mucape_099.txt.gz
CAPE
0 0 0 0 0 0 0 0 0 0 0 0 0 0 0 0 0 0 0 0 0 0 0 0 0 0 2 70 173 411 294 123 130 0 0 0 2 3 21 103 53 46 49 49
0 0 0 0 0 0 0 0 0 0 0 0 0 0 0 0 0 0 0 0 0 0 0 0 0 0 0 59 345 346 187 141 107 1 0 0 0 7 8 52 104 66 49 39
0 0 0 0 0 0 0 0 0 0 0 0 0 0 0 0 0 0 0 0 0 0 0 0 0 0 13 175 337 263 151 141 81 0 0 0 2 2 0 34 45 56 45 21
0 0 0 0 0 0 0 0 0 0 0 0 0 0 0 0 0 0 0 0 0 0 0 0 0 1 98 172 274 201 170 117 76 0 0 0 0 0 0 0 14 42 46 41
0 0 0 0 0 0 0 0 0 0 0 0 0 0 0 0 0 0 0 0 0 0 0 0 0 23 110 142 226 194 161 114 80 0 0 0 0 0 0 0 0 0 6 34
0 0 0 0 0 0 0 0 0 0 0 0 0 0 0 0 0 0 0 0 0 0 0 0 0 3 104 133 224 214 163 159 70 0 0 0 0 0 0 0 0 0 0 0
0 0 0 0 0 0 0 0 0 0 0 0 0 0 0 0 0 0 0 0 0 0 0 0 0 2 62 170 219 218 190 179 64 0 0 0 0 0 0 0 0 0 1 0
0 0 0 0 0 0 0 0 0 0 0 0 0 0 0 0 0 0 0 0 0 0 0 0 0 7 20 89 203 223 230 155 60 0 0 1 0 0 0 0 0 0 0 0
0 0 0 0 0 0 0 0 0 0 0 0 0 0 0 0 0 0 0 0 0 0 0 0 0 9 39 31 230 236 228 149 40 0 0 0 0 0 0 0 0 11 0 0
0 0 0 0 0 0 0 0 0 0 0 0 0 0 0 3 2 0 1 1 0 0 4 29 7 7 55 59 256 259 217 157 7 2 0 0 0 0 0 0 6 10 5 0
0 0 0 0 0 0 0 0 0 0 0 0 0 0 22 0 0 0 0 0 0 0 0 135 63 59 25 84 275 281 213 179 5 2 0 0 0 0 0 0 12 0 1 6
6 0 0 0 0 4 0 0 0 2 0 5 0 0 53 0 10 15 0 0 0 0 0 0 174 214 68 98 322 284 243 242 27 0 0 0 0 0 0 0 0 0 0 0
6 7 0 0 31 0 14 1 0 0 0 0 0 0 0 0 10 38 0 0 0 0 0 4 97 266 239 163 317 315 318 336 125 0 0 0 0 0 0 0 0 0 0 0
20 1 21 1 0 7 1 1 0 0 0 0 0 0 19 36 33 40 55 0 0 0 0 4 16 228 368 248 287 332 403 412 277 103 0 0 0 0 0 0 0 0 0 0
15 0 0 9 0 3 0 0 6 1 0 0 0 0 61 37 15 9 44 88 0 0 0 0 314 382 391 421 310 315 408 463 337 281 101 0 0 0 0 0 0 0 0 0
0 0 0 0 0 0 0 0 0 5 10 0 0 0 9 18 24 50 73 94 14 0 0 16 410 574 590 538 502 391 388 390 382 421 301 186 122 0 0 0 1 1 0 5
0 0 0 0 0 0 0 0 0 7 2 8 17 1 0 1 59 69 76 89 84 56 0 19 206 351 502 474 446 341 304 243 231 268 239 269 215 145 24 2 3 3 2 2
0 0 0 0 0 0 0 112 14 36 18 6 4 9 0 47 102 62 65 75 109 101 45 1 2 53 246 261 308 427 389 346 274 285 290 173 151 175 155 109 17 8 6 2
0 0 0 0 0 0 25 14 11 23 16 17 12 10 9 6 87 10 38 78 97 101 55 1 1 4 14 14 19 47 58 258 227 261 355 272 337 182 145 144 94 73 23 5
0 0 0 0 0 0 0 18 5 9 4 3 1 10 2 0 5 0 9 15 17 32 41 36 29 22 4 1 1 5 0 177 197 219 276 241 220 180 164 182 149 122 158 33
0 0 0 0 0 0 0 0 5 7 0 0 0 0 13 0 0 0 1 19 26 14 14 35 40 25 14 0 14 13 4 0 2 4 92 179 264 272 240 197 199 134 170 188
0 0 0 0 0 0 0 0 0 0 0 0 0 0 0 0 0 0 0 10 8 12 16 17 26 22 36 36 41 24 8 6 8 2 3 0 8 73 271 364 170 153 161 142
22 0 0 0 0 1 0 0 0 0 0 0 0 0 0 0 0 0 0 0 0 1 0 1 2 2 8 3 0 0 0 0 0 0 0 0 0 10 70 169 451 376 226 274
3 0 10 0 0 0 0 0 0 0 0 0 0 0 0 0 0 0 0 0 0 2 7 5 0 0 0 0 0 0 0 0 0 0 0 0 0 3 0 32 305 258 341 356
0 1 0 0 1 5 1 0 0 0 0 0 0 0 0 0 0 0 0 0 0 0 13 1 0 0 0 0 0 0 0 0 0 0 0 0 0 0 0 0 4 64 143 117
0 0 0 0 0 0 1 0 0 0 0 0 0 0 0 0 0 0 0 0 0 5 3 5 12 8 0 0 0 0 0 0 0 0 0 0 0 0 0 0 3 23 12 5

GFSCGP_con_mucape_102.txt.gz
CAPE
0 0 0 0 0 0 0 0 0 0 0 0 0 0 0 0 0 0 0 0 0 0 0 0 0 0 0 0 0 54 111 362 385 214 98 52 28 137 178 310 54 47 38 52
0 0 0 0 0 0 0 0 0 0 0 0 0 0 0 0 0 0 0 0 0 0 0 0 0 0 0 0 0 17 71 338 316 194 93 27 1 3 10 30 87 51 58 38
0 0 0 0 0 0 0 0 0 0 0 0 0 0 0 0 0 0 0 0 0 0 0 0 0 0 0 0 0 2 29 314 282 178 62 8 1 3 1 16 39 23 47 36
0 0 0 0 0 0 0 0 0 0 0 0 0 0 0 0 0 0 0 0 0 0 0 0 0 0 0 0 0 0 21 292 281 122 54 3 0 0 0 0 15 25 32 40
0 0 0 0 0 0 0 0 0 0 0 0 0 0 0 0 0 0 0 0 0 0 0 0 0 0 0 0 0 0 18 306 204 84 34 2 0 0 0 0 0 47 23 8
0 0 0 0 0 0 0 0 0 0 0 0 0 0 0 0 0 0 0 0 0 0 0 0 0 0 0 0 0 2 95 284 121 78 33 1 0 0 0 0 0 0 1 11
0 0 0 0 0 0 0 0 0 0 0 0 0 0 0 0 0 0 0 0 0 0 0 0 0 0 0 0 0 5 129 200 98 69 37 0 0 0 0 0 0 0 0 0
0 0 0 0 0 0 0 0 0 0 0 0 0 0 0 0 0 0 0 0 0 0 0 0 0 0 0 0 0 0 69 144 102 69 32 0 0 0 0 0 0 0 0 0
0 0 0 0 0 0 0 0 0 0 0 0 0 0 0 0 0 0 0 0 0 5 0 0 0 15 0 0 0 6 62 136 119 102 31 0 0 0 0 0 0 0 0 0
0 0 0 0 0 0 0 0 0 0 0 0 0 0 0 0 0 0 0 0 0 21 8 0 0 0 0 0 0 6 27 158 135 131 16 0 0 0 0 0 0 0 0 0
0 0 0 0 0 0 0 0 0 0 0 0 0 0 0 0 0 0 0 0 0 4 3 0 10 26 42 0 0 2 8 156 139 110 0 0 0 0 0 0 0 0 0 0
3 0 0 0 0 0 0 0 0 0 0 0 0 0 26 0 6 1 5 0 0 0 0 3 5 0 32 108 15 11 15 174 166 93 0 0 0 0 0 0 0 0 0 0
0 0 0 0 0 0 0 0 0 0 0 0 0 0 0 12 53 31 38 2 0 0 0 0 110 0 98 224 48 20 76 204 165 120 0 0 0 0 0 0 0 0 0 0
0 0 0 0 6 1 6 3 0 0 0 0 0 0 0 23 22 24 34 2 21 0 0 3 205 202 167 263 93 22 93 255 202 155 16 0 0 0 0 0 0 0 0 0
19 0 0 0 0 0 5 2 0 0 0 0 0 0 4 29 40 45 49 21 5 0 0 0 186 305 321 305 319 193 177 265 191 147 96 11 0 0 0 0 0 0 0 0
2 1 3 0 0 1 0 0 0 7 0 0 1 0 6 3 65 30 8 10 8 0 0 0 8 108 226 266 207 374 293 264 144 182 183 107 34 0 0 0 0 0 0 0
0 0 0 0 0 0 0 0 0 0 0 0 0 0 0 2 61 0 0 1 5 0 0 0 1 6 26 101 130 194 207 201 149 64 58 74 90 64 37 8 0 3 2 3
0 0 1 0 0 0 22 84 17 1 40 5 1 7 0 3 10 32 40 47 45 44 49 21 0 0 1 11 78 85 70 74 71 12 24 47 47 48 71 72 56 14 1 1
0 0 0 0 7 0 44 22 13 19 0 0 2 1 1 3 17 7 6 2 2 58 64 70 26 0 0 0 0 10 112 64 73 54 11 9 31 18 33 34 52 36 24 19
14 0 0 0 2 0 16 8 0 26 8 7 0 0 0 3 31 0 0 0 0 5 32 61 43 14 1 0 2 9 32 143 216 62 64 66 77 64 36 34 53 98 106 35
0 0 1 0 0 0 0 17 7 4 0 0 0 0 0 0 0 0 0 0 4 11 25 44 84 73 53 31 27 23 13 11 20 34 68 93 96 106 102 96 114 109 77 157
2 0 0 0 0 0 0 21 5 0 0 0 0 0 0 0 0 0 0 0 0 0 7 3 15 60 54 22 16 3 0 2 4 1 0 4 2 0 14 39 95 108 154 134
10 2 0 0 0 0 0 10 3 0 0 0 0 0 0 0 0 0 0 0 0 0 0 0 0 8 54 35 32 11 1 0 0 0 0 0 0 0 0 5 5 24 119 241
0 0 6 0 0 0 2 4 0 0 0 0 0 0 0 0 0 0 0 0 0 0 0 0 0 0 0 0 0 0 0 0 0 0 0 0 0 0 0 5 7 30 17 20
0 1 4 0 0 0 1 0 0 0 0 0 0 0 0 0 0 0 0 2 2 0 4 0 0 0 0 0 0 0 0 0 0 0 0 0 0 0 0 0 2 9 24 58
0 0 0 1 0 1 1 0 0 0 0 0 0 0 0 0 0 0 0 1 4 4 0 0 8 11 1 0 0 0 0 0 0 0 0 0 0 0 0 0 0 1 13 18

GFSCGP_con_mucape_105.txt.gz
CAPE
0 0 0 0 0 0 0 0 0 0 0 0 0 0 0 0 0 0 0 0 0 0 0 0 0 0 0 0 0 9 75 119 50 276 311 273 180 274 41 479 87 107 308 126
0 0 0 0 0 0 0 0 0 0 0 0 0 0 0 0 0 0 0 0 0 0 0 0 0 0 0 0 0 1 26 18 130 240 347 346 157 49 51 117 3 132 96 41
0 0 0 0 0 0 0 0 0 0 0 0 0 0 0 0 0 0 0 0 0 0 0 0 0 0 0 0 0 0 2 2 103 198 361 309 149 66 15 112 62 74 54 54
0 0 0 0 0 0 0 0 0 0 0 0 0 0 0 0 0 0 0 0 0 0 0 0 0 0 0 0 0 0 4 3 33 228 379 308 157 68 0 1 29 27 55 54
0 0 0 0 0 0 0 0 0 0 0 0 0 0 0 0 0 0 0 0 0 0 0 0 0 0 0 0 0 0 2 56 18 216 349 272 169 53 0 1 0 8 34 48
0 0 0 0 0 0 0 0 0 0 0 0 0 0 0 0 0 0 0 0 0 0 0 0 0 0 0 0 0 3 0 33 16 143 310 268 146 30 0 1 0 0 17 30
0 0 0 0 0 0 0 0 0 0 0 0 0 0 0 0 0 0 0 0 0 0 0 0 0 0 0 0 4 6 0 24 23 104 298 261 115 30 0 1 1 0 0 7
0 0 0 0 0 0 0 0 0 0 0 0 0 0 0 0 0 0 0 0 0 0 0 0 0 0 0 0 0 7 1 10 17 79 309 199 98 9 1 3 0 0 0 0
0 0 0 0 0 0 0 0 0 0 0 0 0 0 0 0 0 0 0 0 0 0 0 0 0 0 0 0 2 9 3 8 2 196 268 156 110 0 2 0 0 0 0 0
0 0 0 2 0 0 0 0 0 0 0 0 0 0 0 0 0 0 0 0 0 0 0 0 0 0 0 0 9 0 2 31 6 213 197 139 117 0 0 0 0 0 0 0
0 0 0 0 0 0 0 0 0 0 0 0 0 0 0 0 0 0 0 0 0 0 0 0 0 0 0 0 16 0 2 3 16 121 206 160 49 0 0 0 0 0 0 0
14 0 0 0 0 0 0 0 0 0 0 0 0 0 0 0 0 0 0 0 0 0 0 0 0 0 0 0 19 32 0 0 14 37 231 183 4 0 0 0 0 0 0 0
19 10 25 20 34 5 0 0 0 0 0 0 0 0 0 2 0 0 8 13 0 0 0 0 2 75 69 131 301 115 16 23 14 216 259 143 0 0 0 0 0 0 0 0
4 10 5 0 0 0 0 0 0 0 0 0 0 0 0 23 40 61 56 38 17 1 0 0 1 149 145 189 324 196 41 33 93 280 222 101 0 0 0 0 0 0 0 0
7 0 0 0 0 0 0 0 0 0 0 0 0 0 0 0 50 64 18 24 3 0 0 0 0 82 161 138 140 125 69 80 173 260 195 70 0 0 0 0 0 0 0 0
0 0 16 0 0 0 0 0 0 0 0 0 0 0 0 16 27 0 0 0 0 0 0 0 0 0 125 15 51 68 102 80 130 175 172 81 1 0 0 0 0 0 0 0
0 7 0 0 7 0 0 0 0 0 0 0 0 2 7 4 7 0 0 0 1 10 0 3 0 0 21 77 68 46 57 65 99 88 49 58 62 17 2 0 0 0 0 0
0 0 0 0 0 0 33 1 0 0 1 3 3 10 1 1 32 4 0 1 4 2 5 18 0 0 2 27 45 56 71 81 43 3 4 27 61 176 105 28 12 4 0 1
0 1 0 0 0 0 15 22 8 43 0 18 3 3 7 1 7 17 11 2 0 0 4 16 14 0 0 0 0 28 50 46 9 2 1 19 19 13 5 12 117 26 13 9
2 5 0 0 0 0 1 6 0 5 0 0 0 4 0 3 6 2 0 0 0 0 2 17 44 23 13 0 0 0 42 31 1 4 14 16 9 0 1 1 6 27 61 64
1 0 0 0 0 0 0 3 2 7 0 0 0 0 0 0 0 0 0 0 0 0 2 1 26 74 65 3 0 15 35 53 77 103 53 36 14 28 30 43 32 60 103 132
21 0 0 0 0 0 0 0 0 0 0 0 0 0 0 0 0 0 0 0 0 0 0 0 7 38 62 4 16 23 10 2 1 2 1 7 10 17 18 4 18 14 19 67
29 14 46 0 0 0 2 0 0 0 0 0 0 0 0 0 0 0 0 0 0 0 0 0 0 0 0 1 41 64 33 11 16 11 3 0 0 0 0 0 2 8 18 11
27 0 0 0 0 0 0 12 0 0 0 0 0 0 0 0 0 0 0 1 1 0 0 0 0 0 0 0 0 0 0 0 0 0 0 0 0 0 0 6 6 4 6 7
0 0 0 0 0 0 0 0 0 0 0 0 0 0 0 0 0 0 0 2 4 0 0 0 0 0 0 0 0 0 0 0 0 0 0 0 0 0 0 0 0 1 5 6
0 0 0 11 0 0 0 0 0 0 0 0 0 0 0 0 0 0 0 0 1 5 0 0 0 0 0 0 0 0 0 0 0 0 0 0 0 0 0 0 0 0 2 10

GFSCGP_con_mucape_108.txt.gz
CAPE
0 0 0 0 0 0 0 0 0 0 0 0 0 0 0 0 0 0 0 0 0 0 0 0 0 0 0 0 0 0 19 567 774 1003 632 449 299 604 511 708 544 583 379 490
0 0 0 0 0 0 0 0 0 0 0 0 0 0 0 0 0 0 0 0 0 0 0 0 0 0 0 0 0 0 109 521 763 562 413 501 385 419 359 424 641 306 306 215
0 0 0 0 0 0 0 0 0 0 0 0 0 0 0 0 0 0 0 0 0 0 0 0 0 0 0 0 0 0 116 404 711 677 467 458 421 287 316 266 355 289 165 69
0 0 0 0 0 0 0 0 0 0 0 0 0 0 0 0 0 0 0 0 0 0 0 0 0 0 0 0 0 2 67 302 539 628 379 553 522 291 319 203 86 123 59 25
0 0 0 0 0 0 0 0 0 0 0 0 0 0 0 0 0 0 0 0 0 0 0 0 0 0 0 0 31 41 91 231 200 476 478 585 771 682 546 397 160 19 172 40
4 0 0 0 0 0 0 0 0 0 0 0 0 0 0 0 0 0 0 0 0 0 0 0 0 0 0 0 0 204 165 135 52 142 561 582 926 702 285 81 34 5 35 20
0 0 0 3 0 0 0 0 0 0 0 0 0 0 0 0 0 0 0 0 0 0 0 0 0 0 0 0 0 95 159 69 13 23 575 464 822 486 309 154 21 4 3 16
0 0 0 0 10 0 0 0 0 18 0 0 0 0 0 0 0 0 0 0 0 0 0 0 0 0 0 0 0 13 152 15 5 14 338 289 259 451 225 87 5 7 12 26
0 0 0 0 0 0 0 0 9 0 0 1 0 0 0 0 0 0 0 0 0 0 0 0 0 0 0 0 0 2 66 5 9 10 255 54 249 296 193 72 3 11 11 19
4 0 0 0 0 0 0 0 0 0 0 0 0 0 0 9 12 8 0 0 0 0 3 0 0 0 0 0 0 0 85 5 9 1 136 31 338 306 153 33 7 13 0 7
80 60 7 16 0 0 0 0 0 0 0 0 0 0 0 8 1 0 0 6 26 37 3 5 4 0 0 0 0 3 8 1 2 1 55 143 386 257 140 9 10 0 8 9
31 101 58 2 49 0 0 0 0 0 0 0 0 0 46 25 5 11 32 52 54 21 14 10 3 0 0 0 2 3 129 8 6 0 100 237 372 234 119 9 0 0 0 0
10 100 0 41 83 69 71 11 1 1 5 0 0 64 92 65 39 52 86 84 67 38 24 7 0 0 0 0 116 4 159 14 2 3 64 281 346 241 12 8 0 0 0 0
49 52 47 25 25 61 57 84 54 48 0 0 5 39 62 30 36 78 71 25 3 3 0 0 0 0 0 26 29 92 77 12 4 8 49 325 267 176 7 7 0 0 0 0
29 72 51 32 21 31 53 40 32 24 24 4 31 3 25 46 84 16 5 3 0 0 0 0 0 0 0 16 230 76 71 139 118 77 193 314 234 3 7 3 0 0 0 0
31 38 4 5 4 19 9 0 2 0 0 0 0 8 9 21 5 2 0 0 0 0 0 0 0 0 0 12 279 102 109 89 44 130 224 186 101 6 5 6 0 0 0 0
18 45 20 19 7 15 5 0 0 9 12 4 22 36 4 6 1 1 1 1 0 0 0 0 0 0 0 2 57 75 59 136 45 124 111 157 10 0 0 1 5 0 0 0
30 29 33 29 11 0 100 125 38 16 32 7 4 19 11 7 3 2 2 0 0 0 0 0 0 0 0 0 25 10 33 51 108 81 91 128 55 2 1 0 0 0 1 7
27 2 45 25 0 5 0 45 58 61 20 4 10 11 23 0 3 4 5 0 0 0 0 0 0 7 0 0 0 0 28 58 25 23 26 31 60 111 49 31 8 0 0 1
26 25 44 0 0 0 125 15 30 147 17 0 2 0 0 0 0 0 2 0 0 0 0 0 0 0 0 0 0 12 45 16 0 19 8 6 10 12 8 32 29 46 71 42
124 173 126 23 0 0 0 0 5 140 11 4 1 1 0 0 0 0 0 0 0 0 0 0 0 2 0 0 0 0 0 0 0 0 0 10 12 2 7 5 19 36 23 66
116 106 82 47 0 0 0 49 49 0 0 0 0 0 0 0 0 0 0 0 0 0 0 0 0 0 5 1 3 0 2 0 0 0 21 53 12 16 5 10 14 39 102 74
162 91 69 112 122 0 0 3 0 0 0 0 0 0 0 0 0 0 0 0 0 0 0 0 0 0 0 0 0 18 0 0 0 12 88 47 37 33 26 15 16 1 7 19
91 0 0 0 0 0 0 0 2 2 0 0 0 0 0 0 0 0 0 0 1 0 0 0 0 0 0 0 0 0 0 0 0 0 0 0 0 0 0 0 3 0 0 5
9 0 0 0 0 0 0 0 1 0 0 0 0 0 0 0 0 0 0 0 2 0 0 0 0 0 0 0 0 0 0 0 0 0 0 0 0 0 0 0 0 4 3 3
0 0 0 0 0 0 0 0 0 0 0 0 0 0 0 0 0 0 0 0 0 1 2 0 0 0 0 0 0 0 0 0 0 0 0 0 0 0 0 0 0 0 1 6

GFSCGP_con_mucape_111.txt.gz
CAPE
0 0 0 0 0 0 0 0 0 1 0 0 0 0 0 0 0 0 0 0 0 0 0 0 0 0 0 0 0 0 0 221 1366 1347 1867 2212 1264 1031 1045 1386 1215 1045 917 820
0 0 0 0 0 0 0 0 0 0 0 0 0 0 0 0 0 0 0 0 0 0 0 0 0 0 0 0 0 0 0 0 258 965 1331 1772 1013 1016 1004 1046 1291 1073 1033 694
0 0 0 0 0 0 0 0 0 0 0 0 1 0 0 0 0 0 0 0 0 0 0 0 0 0 0 0 0 0 0 4 232 789 1315 1000 819 1048 1000 837 1025 995 898 593
5 0 0 0 0 0 0 0 0 0 0 0 0 1 0 0 0 0 0 0 0 0 0 0 0 0 0 0 0 2 0 45 213 814 1132 773 739 542 636 785 790 823 804 663
51 8 2 0 0 0 0 0 0 0 0 0 0 0 0 0 0 0 0 0 0 0 0 0 0 0 0 0 0 0 130 135 222 571 1073 952 616 877 1028 959 895 851 634 371
56 19 9 0 0 0 0 0 0 0 0 0 0 0 0 0 0 0 0 0 1 2 0 0 0 0 0 0 0 0 83 276 261 563 833 986 697 1233 1132 1210 1031 837 590 571
48 50 11 14 14 0 0 0 0 0 0 3 0 0 0 0 0 0 4 8 0 2 0 0 0 0 0 0 0 0 0 178 342 483 461 795 759 1301 1426 1380 1020 528 357 321
58 46 53 35 7 0 0 0 0 0 0 4 0 0 0 0 0 31 22 35 4 0 0 0 1 1 0 0 0 0 0 0 274 305 143 438 592 820 1154 945 624 311 156 179
57 60 28 79 7 15 0 0 0 0 0 0 0 1 12 1 27 52 30 3 1 1 6 17 10 5 0 0 0 0 0 0 90 266 140 317 447 638 1053 1088 751 252 95 22
179 28 9 14 38 10 3 3 0 0 0 0 0 0 0 0 32 49 13 6 1 3 22 7 14 5 0 0 0 0 0 0 32 175 68 151 302 719 898 882 393 169 37 20
271 214 0 0 0 0 0 0 0 2 0 0 0 0 67 21 29 58 64 51 22 32 23 31 12 8 1 0 0 0 0 0 142 71 21 43 278 400 672 567 251 155 7 14
131 181 28 10 17 5 0 0 17 0 0 0 0 1 17 85 85 82 94 82 119 126 12 4 12 12 7 0 0 0 0 8 51 6 15 56 202 174 508 313 247 7 17 11
28 111 45 39 88 5 0 0 5 15 11 0 0 0 93 70 124 155 189 198 147 37 2 1 3 0 0 0 0 0 0 8 12 72 7 6 275 505 383 341 236 6 11 4
29 46 48 137 46 30 54 12 1 9 0 0 22 78 153 134 95 103 29 9 4 10 2 0 0 0 0 0 0 0 0 9 21 23 43 21 421 457 446 343 25 2 2 4
68 97 39 1 12 51 7 37 75 60 68 28 54 57 71 58 65 19 1 3 0 0 0 0 0 0 0 0 0 0 92 16 16 48 65 181 204 436 405 307 9 2 5 1
11 73 44 3 37 48 69 35 46 63 43 47 21 20 215 66 0 0 0 0 0 0 0 0 0 0 0 0 0 0 6 14 7 64 70 93 366 393 301 65 4 15 3 0
20 25 74 2 22 25 15 39 36 54 56 69 85 160 83 1 0 0 0 2 0 0 0 0 0 0 0 0 0 1 39 19 65 172 287 296 196 254 248 6 14 6 6 0
47 25 19 80 14 0 113 129 91 54 147 127 69 70 62 1 0 2 3 2 0 0 0 0 0 0 0 0 0 0 17 54 130 217 206 178 181 147 2 7 31 19 8 5
43 56 80 84 83 57 22 191 137 154 85 36 25 20 6 2 0 2 4 0 0 0 0 0 0 0 0 0 0 0 2 40 98 157 190 168 83 0 0 17 12 9 10 7
84 100 75 147 46 52 53 0 0 13 174 6 1 5 0 0 2 0 0 0 0 0 0 0 0 0 0 0 0 0 0 58 67 52 118 109 59 12 9 0 8 8 15 10
129 161 157 117 72 101 0 19 0 103 5 0 0 0 0 0 0 0 0 0 0 0 0 0 0 0 0 3 0 0 0 0 0 0 4 17 42 66 88 64 36 33 14 43
122 111 179 176 132 90 0 8 5 3 5 0 0 0 0 0 0 0 0 0 1 0 0 0 0 0 0 0 0 0 0 0 0 0 0 0 9 0 0 34 31 14 12 54
156 76 2 262 8 0 0 0 7 0 0 0 0 0 0 0 0 0 0 0 0 0 0 0 0 0 0 0 0 0 0 0 0 0 0 0 0 0 0 0 6 33 61 159
161 15 44 20 0 0 0 0 0 6 0 0 0 0 0 0 0 0 0 0 0 2 0 0 0 0 0 0 0 0 0 0 0 0 0 0 0 0 9 30 15 13 36 51
48 24 0 0 0 0 0 0 0 0 2 0 0 0 0 0 0 0 0 0 0 0 4 0 0 0 0 0 0 0 0 1 0 0 0 0 0 0 0 0 2 0 3 3
0 0 0 0 0 0 0 0 0 0 0 0 0 0 0 0 0 0 0 0 0 0 0 1 3 1 0 0 0 0 0 0 0 0 0 0 0 0 0 0 0 1 2 11

GFSCGP_con_mucape_114.txt.gz
CAPE
0 0 0 0 0 0 0 0 0 0 0 0 0 0 0 0 0 0 0 0 0 0 0 0 0 0 0 0 0 0 110 1684 2088 2201 2444 2297 2233 1812 1416 1322 1223 1089 1114 1582
32 47 0 0 0 0 0 0 2 6 2 2 0 0 0 0 1 0 0 0 0 0 0 0 0 0 0 0 1 3 0 0 761 1635 1611 2031 2081 1834 1449 1139 1224 1163 1169 1105
1 13 0 0 0 0 0 0 4 0 4 0 0 0 0 0 0 0 1 0 0 0 0 0 1 3 12 2 19 0 0 1 43 2 1103 1439 1715 1726 1492 944 681 1286 1078 860
21 52 16 4 0 0 0 0 0 8 12 0 0 0 0 0 0 0 0 0 0 0 0 0 2 10 13 4 23 0 31 31 34 376 428 1324 1276 1250 1036 812 568 1006 1206 984
3 24 50 24 0 0 1 7 20 1 0 0 0 0 0 0 0 0 0 0 0 0 0 0 4 8 3 0 4 9 37 112 92 316 546 1184 1022 870 544 369 398 1181 1192 1092
2 10 168 9 3 0 9 11 9 0 0 0 0 2 0 0 0 0 0 0 6 8 3 1 2 0 0 8 27 13 0 0 195 328 577 1163 947 733 492 570 456 740 1024 1157
13 163 172 109 14 6 30 25 0 0 0 0 0 1 0 0 1 0 1 5 128 49 7 0 0 0 13 24 44 21 0 0 0 486 315 999 1034 816 665 787 787 610 1008 1064
0 1 21 141 57 22 14 0 0 0 0 0 0 0 0 0 0 0 29 147 97 24 38 15 45 24 14 0 0 0 0 0 0 0 324 397 957 806 756 854 1001 833 754 1009
82 6 3 94 71 28 10 3 1 0 1 26 0 0 1 0 4 37 91 68 25 37 76 64 43 7 0 0 0 0 0 0 0 0 0 341 280 455 501 905 991 1039 735 826
111 239 47 14 70 30 11 2 1 0 0 0 4 0 1 0 80 57 17 21 64 55 83 29 0 0 0 0 0 0 0 0 0 0 0 123 97 177 357 607 825 1070 739 155
114 93 111 45 78 42 11 1 0 0 0 0 0 0 1 1 82 27 5 80 169 154 95 7 1 0 0 0 0 0 0 0 0 0 0 74 29 95 259 434 664 840 516 219
32 81 26 44 5 1 2 3 18 0 0 0 0 0 27 38 96 102 288 218 118 16 7 9 0 0 0 0 0 0 0 0 0 0 42 70 5 12 165 445 770 690 590 177
3 54 3 36 64 1 0 0 0 13 13 0 0 0 3 1 0 210 141 85 81 54 41 0 0 0 0 0 0 0 0 0 0 5 31 18 19 6 35 361 639 672 243 253
65 63 24 27 22 23 59 0 0 0 0 0 9 23 70 1 32 34 45 59 36 13 0 0 0 0 0 0 0 0 0 0 0 13 7 10 9 31 2 372 486 620 236 168
24 32 0 0 0 0 62 54 58 0 0 4 19 11 94 0 3 7 74 54 3 0 0 0 0 0 0 0 0 0 0 0 0 4 8 10 10 5 24 195 404 459 298 46
19 14 6 2 3 0 0 1 29 8 4 9 2 10 7 0 0 0 0 0 0 0 0 0 0 0 0 0 0 0 0 0 0 16 5 13 15 9 126 247 616 364 288 80
22 28 11 0 0 0 0 36 25 7 16 34 44 59 21 0 0 0 0 0 0 0 0 0 0 0 0 0 0 0 0 0 0 14 19 47 38 78 180 388 496 416 40 32
26 25 22 21 41 4 151 19 98 107 103 115 62 10 1 0 0 0 0 0 0 0 0 0 0 0 0 0 0 0 0 0 0 1 14 8 64 111 174 459 547 152 54 20
29 27 26 25 30 15 6 0 3 25 44 12 59 1 0 0 0 1 2 0 0 0 0 0 0 0 0 0 0 0 0 0 0 15 10 12 73 73 336 160 273 58 58 45
51 60 39 65 18 20 0 0 0 7 19 0 5 0 0 0 0 0 0 0 0 0 0 0 0 0 0 0 0 0 0 0 0 0 3 35 93 86 153 197 53 63 15 8
84 72 92 72 21 39 0 0 0 45 0 0 0 3 0 0 0 0 0 0 0 0 0 0 0 0 0 0 0 0 0 0 0 0 0 3 55 52 93 20 14 9 4 27
11 56 2 22 51 38 0 0 0 0 0 0 0 0 0 0 0 0 0 0 0 0 0 0 0 0 0 0 0 0 0 0 0 0 0 0 1 45 2 2 1 14 4 15
67 28 6 0 1 0 0 0 1 1 0 0 0 0 0 0 0 0 0 0 0 3 0 0 0 0 0 0 0 0 0 0 0 0 0 0 0 0 1 4 0 0 29 60
49 11 24 0 0 0 0 0 0 0 0 4 0 0 0 0 0 0 0 0 0 0 2 0 0 0 0 0 0 0 0 0 0 0 0 0 0 0 0 0 0 0 20 44
13 8 0 0 0 0 0 0 0 0 0 0 0 0 0 0 0 0 0 0 0 0 0 1 0 0 0 0 0 0 0 0 0 0 0 2 22 13 3 0 0 0 0 0
0 0 0 0 0 0 0 0 0 0 0 0 0 0 0 0 0 0 0 0 0 0 0 0 0 0 0 0 0 0 0 0 0 0 0 0 0 3 8 15 17 9 6 1

GFSCGP_con_mucape_117.txt.gz
CAPE
0 0 0 0 0 0 0 0 0 0 0 0 0 0 0 0 0 0 0 0 0 0 0 0 0 0 0 0 0 69 1998 1866 1961 2135 2089 2148 2000 1760 1574 1490 1785 1643 1437 1354
0 0 0 0 0 0 0 0 0 0 0 5 14 20 0 0 0 0 0 0 0 0 0 0 0 0 0 0 0 2 1817 2319 2102 2065 1932 1814 2174 2177 2071 1650 1303 1513 1512 1262
0 0 4 0 5 44 0 1 0 0 0 42 34 15 0 0 0 0 0 0 0 0 0 0 0 0 0 0 0 0 0 1233 2290 2216 2185 2015 1813 2005 2144 1964 1603 1363 1171 1132
0 0 0 0 0 11 0 22 6 0 4 40 21 17 2 0 0 0 0 0 0 0 0 0 0 0 0 0 0 0 0 0 0 160 1635 1862 1873 1982 1945 1835 1667 1368 1121 1225
0 0 0 0 0 34 0 1 0 4 44 25 13 24 3 6 3 0 0 0 0 0 0 0 0 0 0 2 3 15 2 1 0 0 0 914 1251 1321 1546 1786 1718 1645 1480 1135
0 0 0 3 54 36 0 57 30 40 54 31 16 8 0 0 0 0 0 0 0 0 0 2 3 11 0 0 0 0 0 0 0 0 0 799 947 1007 1083 1114 971 780 558 803
0 0 0 30 190 166 19 29 89 35 53 0 5 1 0 0 0 5 0 1 0 0 6 32 8 0 0 0 0 0 0 0 0 0 0 0 503 864 890 848 671 582 305 367
0 7 0 43 44 64 2 127 6 0 0 0 0 0 0 0 0 0 0 1 12 13 24 9 22 7 0 0 0 0 0 0 0 0 0 0 0 343 858 794 553 428 327 440
4 8 7 41 2 24 26 73 76 55 45 2 0 0 0 0 2 7 0 1 59 83 84 53 11 5 0 0 0 0 0 0 0 0 0 0 0 0 499 634 447 575 807 784
15 3 0 1 65 35 34 42 9 40 33 46 52 0 0 3 16 16 31 39 24 42 34 4 1 11 8 6 0 0 0 0 0 0 0 0 0 0 166 460 302 404 668 1024
7 32 0 1 29 57 44 13 12 16 30 16 10 3 4 3 25 13 32 2 3 1 0 1 1 2 11 7 0 0 0 0 0 0 0 0 0 0 0 257 136 418 697 877
18 0 0 0 0 0 22 2 0 7 12 17 27 0 0 98 67 115 10 5 0 9 20 28 16 13 3 0 0 0 0 0 0 0 0 0 1 19 0 32 121 326 593 789
3 0 0 1 1 16 6 0 0 0 0 2 28 3 66 23 0 0 1 0 17 20 39 23 9 2 0 0 0 0 0 0 0 0 0 0 0 71 77 48 99 237 497 677
30 34 0 0 0 0 0 33 68 11 0 0 3 42 12 0 20 0 13 17 40 49 39 9 0 0 0 0 0 0 0 0 0 0 0 0 0 12 77 16 97 209 453 393
0 0 0 0 0 11 1 31 22 4 15 0 34 60 9 0 0 9 2 0 6 3 0 0 0 0 0 0 0 0 0 0 0 0 0 0 0 6 16 25 49 125 278 436
0 0 0 9 0 0 0 6 20 45 41 22 14 108 0 0 0 0 0 5 1 0 0 0 0 0 0 0 0 0 0 0 0 0 0 0 7 11 11 14 43 172 312 376
1 4 0 1 11 1 30 3 4 13 39 50 7 11 11 15 1 0 1 4 0 0 0 0 0 0 0 0 0 0 0 0 0 0 0 0 7 1 17 11 32 81 212 271
6 3 0 0 7 0 13 3 8 0 9 5 24 33 15 4 1 0 0 0 0 0 0 0 0 0 0 0 0 0 0 0 0 0 0 2 12 11 17 37 41 57 139 177
26 20 3 0 0 18 0 2 0 1 1 24 5 15 2 0 0 0 0 0 0 0 0 0 0 0 0 0 0 0 0 0 0 0 0 3 1 18 21 31 56 93 106 93
15 22 16 9 0 0 0 0 0 14 0 0 1 0 2 0 0 0 0 0 0 0 0 0 0 0 0 0 0 0 0 0 0 0 3 6 0 22 20 38 58 91 121 160
0 0 0 0 4 0 2 0 2 0 0 0 0 0 0 0 0 0 0 0 0 0 0 0 0 0 0 0 0 0 0 0 0 0 0 3 0 0 14 9 44 52 43 194
0 0 0 0 0 2 0 0 0 0 0 0 0 0 0 0 0 0 0 0 0 0 0 0 0 0 0 0 0 0 0 0 0 0 0 0 0 0 6 13 8 4 71 47
2 0 0 0 0 0 0 0 0 0 0 0 0 0 0 0 0 0 0 0 0 0 0 0 0 0 0 0 0 0 0 0 0 0 0 0 0 0 0 11 19 22 9 20
12 0 0 0 0 0 0 0 0 0 0 0 1 1 0 0 0 0 0 0 0 0 0 0 0 0 0 0 0 0 0 0 0 0 0 0 0 0 0 0 9 29 11 34
0 1 0 0 0 0 0 0 0 0 0 0 0 0 0 0 0 0 0 0 0 0 0 0 0 0 0 0 0 0 0 0 0 0 0 2 3 0 0 0 0 0 0 0
0 0 0 0 0 0 0 0 0 0 0 0 0 0 0 0 0 0 0 0 0 0 0 0 0 0 0 0 0 0 0 0 0 0 0 0 0 11 16 0 6 0 0 0